[[{"header":{"parameterUnit":"m.s-1","parameterCategory":1,"la1":30.6,"la2":28.766,"lo1":-90.7593,"lo2":-88.6598,"dy":0.0162,"dx":0.0183,"nx":116,"ny":114,"refTime":"2024-05-27T06:00:00:Z","depth":0,"parameterNumber":2,"parameterNumberName":"U-component_of_WINDS"},"data":[0.0,0.0,0.0,0.0,0.0,0.0,0.0,0.0,0.0,0.0,0.0,0.0,0.0,0.0,0.0,0.0,0.0,0.0,0.0,0.0,0.0,0.0,0.0,0.0,0.0,0.0,0.0,0.0,0.0,0.0,0.0,0.0,0.0,0.0,0.0,0.0,0.0,0.0,0.0,0.0,0.0,0.0,0.0,0.0,0.0,0.0,0.0,0.0,0.0,0.0,0.0,0.0,0.0,0.0,0.0,0.0,0.0,0.0,0.0,0.0,0.0,0.0,0.0,0.0,0.0,0.0,0.0,0.0,0.0,0.0,0.0,0.0,0.0,0.0,0.0,0.0,0.0,0.0,0.0,0.0,0.0,0.0,0.0,0.0,0.0,0.0,0.0,0.0,0.0,0.0,0.0,0.0,0.0,0.0,0.0,0.0,0.0,0.0,0.0,0.0,0.0,0.0,0.0,0.0,0.0,0.0,0.0,0.0,0.0,0.0,0.0,0.0,0.0,0.0,0.0,0.0,0.0,0.0,0.0,0.0,0.0,0.0,0.0,0.0,0.0,0.0,0.0,0.0,0.0,0.0,0.0,0.0,0.0,0.0,0.0,0.0,0.0,0.0,0.0,0.0,0.0,0.0,0.0,0.0,0.0,0.0,0.0,0.0,0.0,0.0,0.0,0.0,0.0,0.0,0.0,0.0,0.0,0.0,0.0,0.0,0.0,0.0,0.0,0.0,0.0,0.0,0.0,0.0,0.0,0.0,0.0,0.0,0.0,0.0,0.0,0.0,0.0,0.0,0.0,0.0,0.0,0.0,0.0,0.0,0.0,0.0,0.0,0.0,0.0,0.0,0.0,0.0,0.0,0.0,0.0,0.0,0.0,0.0,0.0,0.0,0.0,0.0,0.0,0.0,0.0,0.0,0.0,0.0,0.0,0.0,0.0,0.0,0.0,0.0,0.0,0.0,0.0,0.0,0.0,0.0,0.0,0.0,0.0,0.0,0.0,0.0,0.0,0.0,0.0,0.0,0.0,0.0,0.0,0.0,0.0,0.0,0.0,0.0,0.0,0.0,0.0,0.0,0.0,0.0,0.0,0.0,0.0,0.0,0.0,0.0,0.0,0.0,0.0,0.0,0.0,0.0,0.0,0.0,0.0,0.0,0.0,0.0,0.0,0.0,0.0,0.0,0.0,0.0,0.0,0.0,0.0,0.0,0.0,0.0,0.0,0.0,0.0,0.0,0.0,0.0,0.0,0.0,0.0,0.0,0.0,0.0,0.0,0.0,0.0,0.0,0.0,0.0,0.0,0.0,0.0,0.0,0.0,0.0,0.0,0.0,0.0,0.0,0.0,0.0,0.0,0.0,0.0,0.0,0.0,0.0,0.0,0.0,0.0,0.0,0.0,0.0,0.0,0.0,0.0,0.0,0.0,0.0,0.0,0.0,0.0,0.0,0.0,0.0,0.0,0.0,0.0,0.0,0.0,0.0,0.0,0.0,0.0,0.0,0.0,0.0,0.0,0.0,0.0,0.0,0.0,0.0,0.0,0.0,0.0,0.0,0.0,0.0,0.0,0.0,0.0,0.0,0.0,0.0,0.0,0.0,0.0,0.0,0.0,0.0,0.0,0.0,0.0,0.0,0.0,0.0,0.0,0.0,0.0,0.0,0.0,0.0,0.0,0.0,0.0,0.0,0.0,0.0,0.0,0.0,0.0,0.0,0.0,0.0,0.0,0.0,0.0,0.0,0.0,0.0,0.0,0.0,0.0,0.0,0.0,0.0,0.0,0.0,0.0,0.0,0.0,0.0,0.0,0.0,0.0,0.0,0.0,0.0,0.0,0.0,0.0,0.0,0.0,0.0,0.0,0.0,0.0,0.0,0.0,0.0,0.0,0.0,0.0,0.0,0.0,0.0,0.0,0.0,0.0,0.0,0.0,0.0,0.0,0.0,0.0,0.0,0.0,0.0,0.0,0.0,0.0,0.0,0.0,0.0,0.0,0.0,0.0,0.0,0.0,0.0,0.0,0.0,0.0,0.0,0.0,0.0,0.0,0.0,0.0,0.0,0.0,0.0,0.0,0.0,0.0,0.0,0.0,0.0,0.0,0.0,0.0,0.0,0.0,0.0,0.0,0.0,0.0,0.0,0.0,0.0,0.0,0.0,0.0,0.0,0.0,0.0,0.0,0.0,0.0,0.0,0.0,0.0,0.0,0.0,0.0,0.0,0.0,0.0,0.0,0.0,0.0,0.0,0.0,0.0,0.0,0.0,0.0,0.0,0.0,0.0,0.0,0.0,0.0,0.0,0.0,0.0,0.0,0.0,0.0,0.0,0.0,0.0,0.0,0.0,0.0,0.0,0.0,0.0,0.0,0.0,0.0,0.0,0.0,0.0,0.0,0.0,0.0,0.0,0.0,0.0,0.0,0.0,0.0,0.0,0.0,0.0,0.0,0.0,0.0,0.0,0.0,0.0,0.0,0.0,0.0,0.0,0.0,0.0,0.0,0.0,0.0,0.0,0.0,0.0,0.0,0.0,0.0,0.0,0.0,0.0,0.0,0.0,0.0,0.0,0.0,0.0,0.0,0.0,0.0,0.0,0.0,0.0,0.0,0.0,0.0,0.0,0.0,0.0,0.0,0.0,0.0,0.0,0.0,0.0,0.0,0.0,0.0,0.0,0.0,0.0,0.0,0.0,0.0,0.0,0.0,0.0,0.0,0.0,0.0,0.0,0.0,0.0,0.0,0.0,0.0,0.0,0.0,0.0,0.0,0.0,0.0,0.0,0.0,0.0,0.0,0.0,0.0,0.0,0.0,0.0,0.0,0.0,0.0,0.0,0.0,0.0,0.0,0.0,0.0,0.0,0.0,0.0,0.0,0.0,0.0,0.0,0.0,0.0,0.0,0.0,0.0,0.0,0.0,0.0,0.0,0.0,0.0,0.0,0.0,0.0,0.0,0.0,0.0,0.0,0.0,0.0,0.0,0.0,0.0,0.0,0.0,0.0,0.0,0.0,0.0,0.0,0.0,0.0,0.0,0.0,0.0,0.0,0.0,0.0,0.0,0.0,0.0,0.0,0.0,0.0,0.0,0.0,0.0,0.0,0.0,0.0,0.0,0.0,0.0,0.0,0.0,0.0,0.0,0.0,0.0,0.0,0.0,0.0,0.0,0.0,0.0,0.0,0.0,0.0,0.0,0.0,0.0,0.0,0.0,0.0,0.0,0.0,0.0,0.0,0.0,0.0,0.0,0.0,0.0,0.0,0.0,0.0,0.0,0.0,0.0,0.0,0.0,0.0,0.0,0.0,0.0,0.0,0.0,0.0,0.0,0.0,0.0,0.0,0.0,0.0,0.0,0.0,0.0,0.0,0.0,0.0,0.0,0.0,0.0,0.0,0.0,0.0,0.0,0.0,0.0,0.0,0.0,0.0,0.0,0.0,0.0,0.0,0.0,0.0,0.0,0.0,0.0,0.0,0.0,0.0,0.0,0.0,0.0,0.0,0.0,0.0,0.0,0.0,0.0,0.0,0.0,0.0,0.0,0.0,0.0,0.0,0.0,0.0,0.0,0.0,0.0,0.0,0.0,0.0,0.0,0.0,0.0,0.0,0.0,0.0,0.0,0.0,0.0,0.0,0.0,0.0,0.0,0.0,0.0,0.0,0.0,0.0,0.0,0.0,0.0,0.0,0.0,0.0,0.0,0.0,0.0,0.0,0.0,0.0,0.0,0.0,0.0,0.0,0.0,0.0,0.0,0.0,0.0,0.0,0.0,0.0,0.0,0.0,0.0,0.0,0.0,0.0,0.0,0.0,0.0,0.0,0.0,0.0,0.0,0.0,0.0,0.0,0.0,0.0,0.0,0.0,0.0,0.0,0.0,0.0,0.0,0.0,0.0,0.0,0.0,0.0,0.0,0.0,0.0,0.0,0.0,0.0,0.0,0.0,0.0,0.0,0.0,0.0,0.0,0.0,0.0,0.0,0.0,0.0,0.0,0.0,0.0,0.0,0.0,0.0,0.0,0.0,0.0,0.0,0.0,0.0,0.0,0.0,0.0,0.0,0.0,0.0,0.0,0.0,0.0,0.0,0.0,0.0,0.0,0.0,0.0,0.0,0.0,0.0,0.0,0.0,0.0,0.0,0.0,0.0,0.0,0.0,0.0,0.0,0.0,0.0,0.0,0.0,0.0,0.0,0.0,0.0,0.0,0.0,0.0,0.0,0.0,0.0,0.0,0.0,0.0,0.0,0.0,0.0,0.0,0.0,0.0,0.0,0.0,0.0,0.0,0.0,0.0,0.0,0.0,0.0,0.0,0.0,0.0,0.0,0.0,0.0,0.0,0.0,0.0,0.0,0.0,0.0,0.0,0.0,0.0,0.0,0.0,0.0,0.0,0.0,0.0,0.0,0.0,0.0,0.0,0.0,0.0,0.0,0.0,0.0,0.0,0.0,0.0,0.0,0.0,0.0,0.0,0.0,0.0,0.0,0.0,0.0,0.0,0.0,0.0,0.0,0.0,0.0,0.0,0.0,0.0,0.0,0.0,0.0,0.0,0.0,0.0,0.0,0.0,0.0,0.0,0.0,0.0,0.0,0.0,0.0,0.0,0.0,0.0,0.0,0.0,0.0,0.0,0.0,0.0,0.0,0.0,0.0,0.0,0.0,0.0,0.0,0.0,0.0,0.0,0.0,0.0,0.0,0.0,0.0,0.0,0.0,0.0,0.0,0.0,0.0,0.0,0.0,0.0,0.0,0.0,0.0,0.0,0.0,0.0,0.0,0.0,0.0,0.0,0.0,0.0,0.0,0.0,0.0,0.0,0.0,0.0,0.0,0.0,0.0,0.0,0.0,0.0,0.0,0.0,0.0,0.0,0.0,0.0,0.0,0.0,0.0,0.0,0.0,0.0,0.0,0.0,0.0,0.0,0.0,0.0,0.0,0.0,0.0,0.0,0.0,0.0,0.0,0.0,0.0,0.0,0.0,0.0,0.0,0.0,0.0,0.0,0.0,0.0,0.0,0.0,0.0,0.0,0.0,0.0,0.0,0.0,0.0,0.0,0.0,0.0,0.0,0.0,0.0,0.0,0.0,0.0,0.0,0.0,0.0,0.0,0.0,0.0,0.0,0.0,0.0,0.0,0.0,0.0,0.0,0.0,0.0,0.0,0.0,0.0,0.0,0.0,0.0,0.0,0.0,0.0,0.0,0.0,0.0,0.0,0.0,0.0,0.0,0.0,0.0,0.0,0.0,0.0,0.0,0.0,0.0,0.0,0.0,0.0,0.0,0.0,0.0,0.0,0.0,0.0,0.0,0.0,0.0,0.0,0.0,0.0,0.0,0.0,0.0,0.0,0.0,0.0,0.0,0.0,0.0,0.0,0.0,0.0,0.0,0.0,0.0,0.0,0.0,0.0,0.0,0.0,0.0,0.0,0.0,0.0,0.0,0.0,0.0,0.0,0.0,0.0,0.0,0.0,0.0,0.0,0.0,0.0,0.0,0.0,0.0,0.0,0.0,0.0,0.0,0.0,0.0,0.0,0.0,0.0,0.0,0.0,0.0,0.0,0.0,0.0,0.0,0.0,0.0,0.0,0.0,0.0,0.0,0.0,0.0,0.0,0.0,0.0,0.0,0.0,0.0,0.0,0.0,0.0,0.0,0.0,0.0,0.0,0.0,0.0,0.0,0.0,0.0,0.0,0.0,0.0,0.0,0.0,0.0,0.0,0.0,0.0,0.0,0.0,0.0,0.0,0.0,0.0,0.0,0.0,0.0,0.0,0.0,0.0,0.0,0.0,0.0,0.0,0.0,0.0,0.0,0.0,0.0,0.0,0.0,0.0,0.0,0.0,0.0,0.0,0.0,0.0,0.0,0.0,0.0,0.0,0.0,0.0,0.0,0.0,0.0,0.0,0.0,0.0,0.0,0.0,0.0,0.0,0.0,0.0,0.0,0.0,0.0,0.0,0.0,0.0,0.0,0.0,0.0,0.0,0.0,0.0,0.0,0.0,0.0,0.0,0.0,0.0,0.0,0.0,0.0,0.0,0.0,0.0,0.0,0.0,0.0,0.0,0.0,0.0,0.0,0.0,0.0,0.0,0.0,0.0,0.0,0.0,0.0,0.0,0.0,1.1321,1.0787,0.0,0.0,0.0,0.0,0.0,0.0,0.0,0.0,0.0,0.0,0.0,0.0,0.0,0.0,0.0,0.0,0.0,0.0,0.0,0.0,0.0,0.0,0.0,0.0883,0.0928,0.0928,0.0928,0.0928,0.0928,0.0,0.0,0.0,0.0,0.0,0.0884,0.0907,0.1112,0.149,0.172,0.2138,0.2764,0.2798,0.2721,0.2604,0.0,0.0,0.0,0.0,0.0,0.0,0.0,0.0,0.0,0.0,0.0,0.0,0.0,0.0,0.0,0.0,0.0,0.0,0.0,0.0,0.0,0.0,0.0,0.0,0.0,0.0,0.0,0.0,0.0,0.0,0.0,0.0,0.0,0.0,0.0,0.0,0.0,0.0,0.0,0.0,0.0,0.0,0.0,0.0,0.0,0.0,0.0,0.0,0.0,0.0,0.0,0.0,0.0,0.0,0.0,0.0,0.0,0.0,0.0,0.0,0.0,0.0,0.0,0.0,0.0,0.0,0.0,0.0,0.0,0.0,1.3111,1.2708,0.0,0.0,0.0,0.0,0.0,0.0,0.0,0.0,0.0,0.0,0.0,0.0,0.0,0.0,0.0,0.0,0.0,0.0,0.0,0.0,0.0,0.1311,0.1371,0.1444,0.153,0.1568,0.1553,0.155,0.157,0.1422,0.0,0.0,0.0,0.1309,0.1309,0.1424,0.1632,0.1948,0.2371,0.3078,0.4033,0.4071,0.3671,0.2955,0.2892,0.0,0.0,0.0,0.0,0.0,0.0,0.0,0.0,0.0,0.0,0.0,0.0,0.0,0.0,0.0,0.0,0.0,0.0,0.0,0.0,0.0,0.0,0.0,0.0,0.0,0.0,0.0,0.0,0.0,0.0,0.0,0.0,0.0,0.0,0.0,0.0,0.0,0.0,0.0,0.0,0.0,0.0,0.0,0.0,0.0,0.0,0.0,0.0,0.0,0.0,0.0,0.0,0.0,0.0,0.0,0.0,0.0,0.0,0.0,0.0,0.0,0.0,0.0,1.4312,1.4675,1.5141,1.465,1.4688,1.5128,1.4714,1.4626,1.4776,1.3993,0.0,0.0,0.0,0.0,0.0,0.0,0.0,0.0,0.0,0.0,0.0,0.0,0.0,0.0,0.0,0.0,0.0,0.0,0.0,0.1391,0.1635,0.156,0.1591,0.1814,0.1739,0.1721,0.1854,0.1606,0.0,0.0,0.1363,0.1296,0.1296,0.17,0.1966,0.2074,0.3376,0.4197,0.4504,0.4673,0.4478,0.3895,0.3672,0.3548,0.3541,0.0,0.0,0.0,0.0,0.0,0.0,0.0,0.0,0.0,0.0,0.0,0.0,0.0,0.0,0.0,0.0,0.0,0.0,0.0,0.0,0.0,0.0,0.0,0.0,0.0,0.0,0.0,0.0,0.0,0.0,0.0,0.0,0.0,0.0,0.0,0.0,0.0,0.0,0.0,0.0,0.0,0.9582,1.013,0.0,0.0,0.0,0.0,0.0,0.0,0.0,0.0,0.0,0.0,0.0,0.0,0.0,1.4264,1.4252,1.5057,1.5439,1.5439,1.5664,1.5936,1.6296,1.5923,1.5936,1.6296,1.622,0.0,1.4578,1.465,0.0,0.0,0.0,0.0,0.0,0.0,0.0,0.0,0.0,0.0,0.0,0.0,0.0,0.0,0.0,0.0,0.0,0.0,0.0,0.0,0.0,0.2143,0.235,0.2656,0.2723,0.2691,0.2546,0.2351,0.2106,0.1793,0.1899,0.1985,0.2035,0.2601,0.3356,0.4306,0.5257,0.5849,0.6102,0.5895,0.5569,0.5169,0.4829,0.4427,0.3919,0.3716,0.0,0.0,0.0,0.0,0.0,0.0,0.0,0.0,0.0,0.0,0.0,0.0,0.0,0.0,0.0,0.0,0.0,0.0,0.0,0.0,0.0,0.0,0.0,0.0,0.0,0.0,0.0,0.0,0.0,0.0,0.0,0.0,0.0,0.0,0.0,0.0,0.0,0.0,0.0,0.9229,1.0682,1.0902,1.0999,1.0844,0.0,0.0,0.0,0.0,0.0,0.0,0.0,0.0,0.0,1.4943,1.5101,1.5343,1.56,1.5948,1.6158,1.6158,1.6225,1.6337,1.6522,1.6349,1.6337,1.6522,1.6522,1.6161,1.5616,1.5427,1.5151,1.4862,0.0,0.0,0.0,0.0,1.4673,1.4676,0.0,0.0,0.0,0.0,0.0,0.0,0.0,0.0,0.0,0.0,0.0,0.0,0.2676,0.2835,0.3101,0.3595,0.3636,0.354,0.3306,0.3062,0.2747,0.2353,0.253,0.2709,0.2849,0.3751,0.4994,0.6594,0.7011,0.7404,0.7695,0.7221,0.6817,0.6424,0.6053,0.5291,0.4302,0.4098,0.4154,0.0,0.0,0.0,0.0,0.0,0.0,0.0,0.0,0.0,0.0,0.0,0.0,0.0,0.0,0.0,0.0,0.0,0.0,0.0,0.0,0.0,0.0,0.0,0.0,0.0,0.0,0.0,0.0,0.0,0.0,0.0,0.0,0.0,0.0,0.0,0.0,0.0,0.0,1.0077,1.1217,1.1338,1.1395,1.1201,0.0,0.0,0.0,0.0,0.0,0.0,1.3982,1.4468,1.509,1.5894,1.5906,1.6107,1.6522,1.6522,1.6522,1.6522,1.6522,1.6522,1.6522,1.6522,1.6522,1.6522,1.6522,1.6522,1.6484,1.607,1.5906,1.5869,1.5454,1.5291,1.5341,1.5756,1.5724,1.5683,0.0,0.0,0.0,0.0,0.0,0.0,0.0,0.0,0.0,0.0,0.0,0.2768,0.3816,0.3489,0.3536,0.4461,0.4095,0.3875,0.0,0.3556,0.3257,0.3241,0.3137,0.3223,0.3536,0.5064,0.6628,0.8201,0.8318,0.8542,0.8721,0.859,0.8171,0.7573,0.711,0.6155,0.4859,0.4905,0.4993,0.5044,0.0,0.0,0.0,0.0,0.0,0.0,0.0,0.0,0.0,0.0,0.0,0.0,0.0,0.0,0.0,0.0,0.0,0.0,0.0,0.0,0.0,0.0,0.0,0.0,0.0,0.0,0.0,0.0,0.0,0.0,0.0,0.0,0.0,0.0,0.0,0.0,0.0,0.0,0.0,1.0949,1.1651,0.0,0.0,0.0,0.0,1.216,1.313,1.3925,1.4347,1.5334,1.6102,1.6429,1.6471,1.6497,1.6522,1.6522,1.6522,1.6522,1.6522,1.6522,1.6522,1.6522,1.6522,1.6522,1.6522,1.6522,1.6522,1.6484,1.6471,1.6471,1.6446,1.6434,1.6434,1.6471,1.6714,1.7079,0.0,0.0,0.0,0.0,0.0,0.1587,0.1772,0.205,0.2286,0.2508,0.3024,0.3552,0.4058,0.4449,0.477,0.4949,0.4927,0.4725,0.43,0.3878,0.3591,0.3483,0.3751,0.456,0.6032,0.7114,0.8284,0.9505,0.9729,0.9787,0.9703,0.9436,0.8892,0.8212,0.7882,0.7333,0.658,0.5954,0.5711,0.5697,0.5767,0.5389,0.0,0.0,0.0,0.0,0.0,0.0,0.0,0.0,0.0,0.0,0.0,0.0,0.0,0.0,0.0,0.0,0.0,0.0,0.0,0.0,0.0,0.0,0.0,0.0,0.0,0.0,0.0,0.0,0.0,0.0,0.0,0.0,0.0,0.0,0.0,0.0,0.0,1.1758,1.2153,0.0,1.1539,1.1915,1.2432,1.2998,1.3647,1.4463,1.5393,1.5804,1.6163,1.6479,1.6522,1.6697,1.7074,1.671,1.671,1.7074,1.6697,1.6522,1.6522,1.6522,1.6522,1.6522,1.6522,1.6522,1.6522,1.6522,1.6522,1.6522,1.6522,1.6522,1.6522,1.6522,1.6735,1.7002,0.0,0.0,0.0,0.0,0.1868,0.2068,0.2269,0.2494,0.2769,0.3185,0.3736,0.436,0.4998,0.5449,0.5697,0.578,0.5705,0.5476,0.4991,0.4679,0.4507,0.4428,0.5001,0.6071,0.7589,0.8473,0.9432,1.0493,1.0676,1.0793,1.088,1.0561,1.0108,0.9577,0.9277,0.9026,0.8776,0.7929,0.7067,0.6303,0.6477,0.6115,0.5516,0.0,0.0,0.0,0.0,0.0,0.0,0.0,0.0,0.0,0.0,0.0,0.0,0.0,0.0,0.0,0.0,0.0,0.0,0.0,0.0,0.0,0.0,0.0,0.0,0.0,0.0,0.0,0.0,0.0,0.0,0.0,0.0,0.0,0.0,0.0,1.2401,1.2227,1.2483,1.2487,1.1995,1.2306,1.2888,1.3701,1.4085,1.4766,1.58,1.5944,1.6262,1.681,1.681,1.7087,1.7652,1.7087,1.7099,1.7652,1.6886,1.6622,1.681,1.6609,1.6522,1.6522,1.6522,1.6522,1.6522,1.6522,1.6522,1.6522,1.6522,1.6522,1.6522,1.6607,1.6748,1.6918,0.0,0.0,0.0,0.2502,0.2614,0.2713,0.3057,0.3106,0.3453,0.4375,0.4534,0.5117,0.665,0.635,0.6284,0.6868,0.6361,0.6019,0.6019,0.6014,0.6019,0.6071,0.6922,0.7617,0.8062,0.9095,1.0141,1.1131,1.1101,1.149,1.2274,1.1877,1.1719,1.1678,1.136,1.12,1.1174,1.0653,0.9141,0.7074,0.7338,0.7317,0.7006,0.0,0.0,0.0,0.0,0.0,0.0,0.0,0.0,0.0,0.0,0.0,0.0,0.0,0.0,0.0,0.0,0.0,0.0,0.0,0.0,0.0,0.0,0.0,0.0,0.0,0.0,0.0,0.0,0.0,0.0,0.0,0.0,0.0,1.2064,1.219,1.22,1.2246,1.2627,1.2849,1.2634,1.3034,1.3515,1.4176,1.443,1.4891,1.5611,1.5925,1.647,1.7388,1.74,1.7664,1.8229,1.7689,1.7689,1.8216,1.7099,1.6861,1.7388,1.6823,1.6572,1.6572,1.6572,1.6572,1.6572,1.6572,1.6572,1.6572,1.6491,1.6522,1.6522,1.6791,1.6918,1.7002,0.0,0.0,0.2343,0.2817,0.2848,0.2941,0.3257,0.3351,0.3664,0.446,0.5196,0.5988,0.6837,0.7225,0.7297,0.6943,0.6745,0.6526,0.6258,0.5948,0.6277,0.7386,0.7934,0.8683,0.98,1.0386,1.0959,1.1559,1.2106,1.2366,1.2274,1.2175,1.1977,1.1678,1.136,1.1292,1.1466,1.1113,1.0739,1.023,0.951,0.8521,0.759,0.0,0.0,0.0,0.0,0.0,0.0,0.0,0.0,0.0,0.0,0.0,0.0,0.0,0.0,0.0,0.0,0.0,0.0,0.0,0.0,0.0,0.0,0.0,0.0,0.0,0.0,0.0,0.0,0.0,0.0,0.0,0.0,1.1908,1.2151,1.25,1.2733,1.2905,1.3062,1.3178,1.3303,1.402,1.4579,1.4857,1.5904,1.6645,1.6868,1.7331,1.7722,1.7978,1.7978,1.8242,1.8745,1.8254,1.8254,1.8794,1.8078,1.7827,1.7978,1.7815,1.7739,1.7739,1.7739,1.7739,1.7739,1.7739,1.7739,1.7652,1.6835,1.6522,1.6522,1.6791,1.724,1.772,0.0,0.2455,0.2673,0.2997,0.3002,0.3038,0.3244,0.3356,0.3817,0.4914,0.5636,0.6428,0.747,0.7839,0.7814,0.7405,0.7286,0.7118,0.6894,0.7051,0.7664,0.8791,0.9308,0.9948,1.0724,1.1138,1.1536,1.1977,1.2431,1.2666,1.2706,1.2706,1.2598,1.2501,1.2295,1.2276,1.2414,1.2258,1.2209,1.2153,1.164,1.0587,0.9349,0.9598,0.9173,0.8466,0.8261,0.7968,0.7571,0.7227,0.0,0.0,0.0,0.0,0.0,0.0,0.0,0.0,0.0,0.0,0.0,0.0,0.0,0.0,0.0,0.0,0.0,0.0,0.0,0.0,0.0,0.0,0.0,0.0,1.2086,1.25,1.25,1.2801,1.3094,1.317,1.3476,1.3744,1.4035,1.4898,1.5552,1.5857,1.686,1.7507,1.7739,1.8028,1.8304,1.8543,1.8555,1.8807,1.9346,1.8819,1.8819,1.9346,1.8664,1.8588,1.8947,1.8797,1.8865,1.8989,1.8819,1.8681,1.8575,1.8567,1.8554,1.8464,0.0,0.0,0.0,0.0,1.8574,1.9315,0.0,0.271,0.2879,0.3096,0.3103,0.3098,0.3162,0.3249,0.3878,0.5512,0.5828,0.6566,0.8222,0.8193,0.8021,0.8021,0.79,0.7911,0.0,0.0,0.9663,1.0163,1.0833,1.1226,1.1232,1.163,1.1968,1.2323,1.2372,1.2696,1.3266,1.3266,1.3362,1.3621,1.3621,1.3621,1.3668,1.3668,1.3457,1.3256,1.36,1.2938,1.1644,1.1226,1.0989,1.0815,1.0346,0.9873,0.9329,0.861,0.0,0.0,0.0,0.0,0.0,0.0,0.0,0.0,0.0,0.0,0.0,0.0,0.0,0.0,0.0,0.0,0.0,0.0,0.0,0.0,0.0,0.0,0.0,0.0,1.2825,1.2968,1.3017,1.3278,1.3433,1.3433,1.3996,1.4563,1.4952,1.5836,1.6558,1.702,1.7557,1.7994,1.8244,0.0,0.0,0.0,0.0,1.9334,1.985,1.9346,1.9397,1.9888,1.9159,1.9274,2.0112,1.9825,1.9929,2.0281,1.9884,1.9602,1.9408,1.9337,1.9324,1.9349,1.8686,1.8554,1.8865,1.9382,2.0259,2.1167,0.0,0.2749,0.2929,0.3285,0.3078,0.3018,0.3519,0.3381,0.3857,0.5627,0.599,0.6649,0.8222,0.8373,0.8242,0.8021,0.8569,0.9158,0.0,0.0,1.0921,1.1352,1.1677,1.1884,1.2046,1.2297,1.2472,1.253,1.288,1.3218,1.3515,1.3515,1.3563,1.3621,1.3621,1.3716,1.3915,1.3915,1.4186,1.4525,1.4628,1.3653,1.2248,1.2474,1.2054,1.134,1.1258,1.0839,1.0302,1.0171,0.9839,0.9506,0.9408,0.0,0.0,0.0,0.0,0.0,0.0,0.0,0.0,0.0,0.0,0.0,0.0,0.0,0.0,0.0,0.0,0.0,0.0,0.0,0.0,1.2917,1.3238,1.3573,1.3894,1.4547,1.4871,1.4688,1.4958,1.5557,1.6564,1.7476,1.7869,1.7521,1.8635,1.9196,1.8845,1.9271,1.9547,1.9648,1.966,1.98,2.0131,2.0029,2.0117,2.0459,2.0289,0.0,2.0965,2.0893,2.1064,2.1412,2.1318,2.1272,2.1211,2.1178,2.1178,2.1115,2.0093,1.9869,2.0043,2.0,2.0514,2.1167,0.2934,0.2979,0.3022,0.3211,0.3095,0.3005,0.3169,0.3215,0.3811,0.5341,0.5823,0.6476,0.7722,0.8,0.7984,0.7687,0.8553,0.0,0.0,1.1049,1.1611,1.2149,1.2453,1.2712,1.2939,1.3025,1.3112,1.3112,1.3314,1.36,1.4035,1.4035,1.4222,1.4536,1.4536,1.464,1.4743,1.4743,1.4915,1.5187,1.5187,1.4698,1.3935,1.3815,1.3445,1.2969,1.2651,1.2223,1.177,1.1434,1.1095,1.0646,1.0172,0.9508,0.8831,0.0,0.0,0.0,0.0,0.0,0.0,0.0,0.0,0.0,0.0,0.0,0.0,0.0,0.0,1.3173,0.0,0.0,1.3785,1.3521,1.357,1.3836,1.4499,1.5207,1.5533,1.5437,1.6132,1.6804,1.7373,1.8277,1.8739,1.8408,1.9281,1.9736,1.9585,1.9711,1.985,2.0016,2.0016,2.0067,2.0182,2.0321,2.0472,2.061,2.0957,2.1286,2.1657,2.1988,2.2346,2.2651,2.2469,2.2346,2.2193,2.2193,2.23,2.2381,2.1989,2.1744,2.1539,2.1583,2.1931,2.2372,0.3254,0.3237,0.3128,0.3128,0.3104,0.3017,0.2837,0.3105,0.3775,0.5074,0.5598,0.6229,0.7178,0.7555,0.7704,0.0,0.0,0.0,0.0,1.1657,1.2367,1.2976,1.3294,1.3589,1.3884,1.3931,1.3978,1.4014,1.4014,1.4212,1.4686,1.472,1.4994,1.5379,1.5468,1.5513,1.5513,1.5513,1.5558,1.5603,1.5635,1.568,1.5724,1.513,1.4812,1.4547,1.4082,1.3647,1.3243,1.2666,1.2221,1.1734,1.08,1.0421,1.0172,0.9534,0.9109,0.0,0.0,0.0,0.0,0.0,0.0,0.0,0.0,0.0,1.339,1.3606,1.4317,1.4767,1.4586,1.4564,1.4534,1.4457,1.4221,1.4456,1.5419,1.6097,1.6539,1.6622,1.7492,1.8127,1.8235,1.8931,1.9384,1.9384,1.9695,2.0016,2.0271,2.0067,2.0055,2.0283,2.0372,2.0372,2.0385,2.0709,2.0894,2.0858,2.1506,2.1969,2.2314,2.2844,2.329,2.3595,2.329,2.3068,2.2875,2.2875,2.3024,2.3201,2.3465,2.329,2.2875,2.3113,2.3392,2.3595,0.0,0.337,0.3275,0.3275,0.3125,0.3054,0.3211,0.3317,0.3857,0.5201,0.5535,0.6075,0.7189,0.734,0.7846,0.9076,0.0,0.0,1.2717,1.3176,1.3737,1.4411,1.4398,1.4525,1.4846,1.5062,1.5287,1.5487,1.5487,1.5365,1.522,1.5522,1.5389,1.4994,1.5322,1.5513,1.5513,1.5513,1.568,1.5944,1.6151,1.6423,1.6705,1.6552,1.5844,1.5017,1.4971,1.4766,1.4457,1.41,1.3705,1.325,1.2532,1.1845,1.1277,1.0951,0.0,1.0348,1.0348,1.0348,1.0365,1.0373,1.093,1.1723,0.0,0.0,1.4102,1.5107,1.5348,1.5508,1.5772,1.5276,1.5097,1.5928,1.5928,1.6268,1.747,1.8407,1.9012,1.9313,1.9223,1.9357,1.9877,2.0042,2.008,2.008,2.0118,2.0271,2.056,2.051,2.051,2.056,2.0894,2.1055,2.0885,2.1575,2.1908,2.1841,2.2235,2.2603,2.2979,2.3083,2.329,2.3595,2.3551,2.3508,2.3508,2.3508,2.3508,2.3551,2.361,2.3551,2.3508,2.3508,2.3551,2.3595,0.0,0.3457,0.3415,0.3415,0.3275,0.3211,0.3338,0.3472,0.3885,0.4754,0.5308,0.5802,0.6355,0.6618,0.7255,0.8657,0.0,0.0,1.2614,1.3369,1.4061,1.4915,1.4994,1.5152,1.5454,1.5676,1.5852,1.5928,1.5928,1.5983,1.6107,1.6281,1.6269,1.6225,1.6411,1.6509,1.6466,1.6337,1.6479,1.668,1.6637,1.682,1.7086,1.7031,1.671,1.6238,1.549,1.504,0.0,0.0,1.3952,1.3705,1.3054,1.2425,1.1901,1.1659,1.1398,0.0,1.1556,1.1491,0.0,0.0,1.2439,1.3068,1.3793,1.4643,1.5425,1.5903,1.6269,1.6411,1.6194,1.6187,1.6296,0.0,1.6728,1.7351,1.8578,1.9208,1.9781,2.0426,2.0501,2.0496,2.0446,2.0422,2.0422,2.0422,2.0422,2.0573,2.0835,2.0673,2.0673,2.0835,2.1019,2.1166,2.1375,2.1827,2.2109,2.2296,2.2663,2.3024,2.329,2.3523,2.3739,2.3994,2.3994,2.3994,2.3994,2.3994,2.3994,2.3994,2.3994,2.3994,2.3952,2.3681,2.3595,2.3595,0.0,0.3506,0.3506,0.3548,0.3472,0.3402,0.3436,0.3619,0.3923,0.4411,0.5065,0.5596,0.5907,0.6155,0.685,0.8183,0.0,0.0,0.0,1.3541,1.4473,1.5546,1.5623,1.582,1.6269,1.6502,1.6659,1.6701,1.6701,1.6799,1.6909,1.6921,1.6976,1.7073,1.7157,1.7199,1.7199,1.7044,1.7086,1.7199,1.7199,1.724,1.7323,1.7434,1.7475,1.7269,1.6139,1.5623,0.0,0.0,1.4448,1.4365,1.3428,1.3006,1.283,1.2559,1.2421,1.2449,1.2801,0.0,0.0,1.3172,1.3867,1.4492,1.4721,1.5632,1.6398,1.6454,1.685,1.7102,1.674,1.7036,1.733,1.7455,1.7803,1.8507,1.96,1.9982,2.0395,2.1042,2.1277,2.1264,2.0858,2.0759,2.0723,2.0723,2.0723,2.0822,2.1082,2.1019,2.1019,2.1082,2.141,2.1602,2.1712,2.2217,2.2612,2.2922,2.3391,2.3792,2.4133,2.4273,2.4361,2.4302,2.4302,2.4302,2.4302,2.4302,2.4302,2.4302,2.4302,2.4302,2.4261,2.3909,2.3782,2.3782,0.0,0.0,0.3548,0.3668,0.3689,0.3647,0.3527,0.3731,0.4008,0.4357,0.489,0.5489,0.6219,0.6307,0.685,0.0,0.0,0.0,1.3222,1.4136,1.5259,1.6765,1.6466,1.6655,1.7434,1.7787,1.8028,1.8226,1.8226,1.7974,1.7476,1.7462,1.7214,1.6723,1.706,1.7199,1.7199,1.7199,1.7199,1.724,1.776,1.7787,1.7557,1.8068,1.8147,1.7868,1.7115,0.0,0.0,0.0,1.552,1.5632,1.3925,1.3884,0.0,1.3958,1.3958,0.0,0.0,0.0,1.4378,1.4147,1.488,1.562,1.5588,1.6126,1.6723,1.6833,1.7044,1.7282,1.7585,1.7643,1.7983,1.9128,1.9482,1.9943,2.0828,2.1202,2.1348,2.1361,2.1423,2.1375,0.0,2.1131,2.0997,2.0997,2.0997,2.1082,2.1375,2.1746,2.1793,2.1423,2.248,2.2723,2.1983,2.3024,2.3718,2.4063,2.4687,2.5288,2.5895,2.5461,2.4902,2.4302,2.4302,2.4302,2.4302,2.4302,2.4302,2.4302,2.4302,2.4302,2.4302,2.4261,2.4261,2.4261,0.0,0.0,0.0,0.3689,0.3765,0.3807,0.3765,0.3877,0.4123,0.4549,0.5186,0.0,0.0,0.0,0.0,0.0,0.0,0.0,1.2287,1.3825,1.5163,1.6245,1.6798,1.7214,1.7475,1.7774,1.7989,1.8016,1.8016,1.7935,1.7774,1.7788,1.7666,1.7488,1.7625,1.7666,1.7666,1.772,1.8058,1.8591,1.8393,1.8476,1.87,1.8669,1.8184,1.7515,0.0,0.0,0.0,0.0,1.4869,1.4764,1.4201,0.0,0.0,1.4666,1.4859,1.5085,0.0,0.0,1.5466,1.5752,1.6114,1.6441,1.6612,1.6964,1.7227,1.7282,1.7488,1.7693,1.7882,1.8557,1.9273,1.9871,2.0753,2.1389,2.1623,2.1746,2.1712,2.1423,2.1664,0.0,0.0,0.0,0.0,2.1664,2.244,2.2767,2.2402,2.3069,2.319,2.2603,2.2965,2.3201,2.3201,2.397,2.4564,2.4894,2.5259,2.5571,2.5772,2.5326,2.497,2.4751,2.4751,2.4751,2.4751,2.4751,2.4751,2.4751,2.4751,2.4751,2.4766,2.4549,2.4589,2.4726,0.0,0.0,0.0,0.0,0.0,0.0,0.0,0.0,0.0,0.0,0.0,0.0,0.0,0.0,0.0,0.0,0.0,0.0,0.0,0.0,1.452,1.5539,1.6336,1.6811,1.689,1.7217,1.7495,1.7701,1.7701,1.781,1.8016,1.7949,1.7882,1.7882,1.7882,1.7882,1.7922,1.8042,1.8408,1.8943,1.8708,1.8739,1.8915,1.8454,1.7974,0.0,0.0,0.0,0.0,0.0,0.0,0.0,0.0,0.0,0.0,1.5433,1.5636,1.5856,1.6107,1.6225,1.6355,1.6921,1.7173,1.7297,1.7352,1.7679,1.7908,1.772,1.7975,1.8254,1.8408,1.9154,1.995,2.0486,2.1336,2.1995,2.2128,2.217,2.2063,2.1827,2.2016,2.217,0.0,0.0,0.0,2.231,2.3083,2.3504,2.339,2.3807,2.403,2.3954,2.3732,2.3906,2.4519,2.4817,2.5387,2.6187,2.6598,2.6686,2.6565,2.6251,2.6002,2.5724,2.5456,2.5345,2.5313,2.5116,2.5005,2.5005,2.5005,2.5005,2.4966,2.4806,2.4831,2.4926,0.0,0.0,0.0,0.0,0.0,0.0,0.0,0.0,0.0,0.0,0.0,0.0,0.0,0.0,0.0,0.0,0.0,0.0,0.0,0.0,0.0,1.4662,1.5196,1.5573,1.5771,1.6208,1.6736,1.732,1.732,1.7626,1.8224,1.7988,1.7855,1.7882,1.7882,1.7882,1.7922,1.8161,1.8305,1.8344,1.8626,1.8574,1.8193,1.7618,0.0,0.0,0.0,0.0,0.0,0.0,0.0,0.0,0.0,0.0,0.0,0.0,1.6386,1.6484,1.6863,1.7018,1.7201,1.7625,1.8028,1.8226,1.7828,1.8305,1.8669,1.8147,1.8461,1.8898,0.0,0.0,2.0076,2.0983,2.1441,2.1914,2.2426,2.2512,2.2512,0.0,0.0,0.0,0.0,0.0,0.0,2.3023,0.0,2.3435,2.4237,2.4116,2.4446,2.5354,2.4798,2.4882,2.5849,2.5584,2.6277,2.7872,2.8389,2.8481,2.8094,2.8063,2.7699,2.7067,2.6356,2.604,2.5945,2.5298,2.5037,2.5005,2.5005,2.5005,2.5005,2.5005,2.5005,2.4966,0.0,0.0,0.0,0.0,0.0,0.0,0.0,0.0,0.0,0.0,0.0,0.0,0.0,0.0,0.0,0.0,0.0,0.0,0.0,0.0,0.0,0.0,0.0,1.5125,1.5559,1.5708,0.0,0.0,0.0,1.648,1.7021,1.7165,1.7289,1.7406,1.7747,1.7788,1.7639,1.8121,1.8422,1.8626,0.0,1.8084,1.7953,0.0,0.0,0.0,0.0,0.0,0.0,0.0,0.0,0.0,0.0,0.0,1.695,0.0,0.0,1.7706,1.8028,1.8094,1.8173,1.8461,1.8592,1.8669,1.8553,1.8669,1.8745,1.863,1.8707,1.8898,0.0,0.0,0.0,2.145,2.2414,0.0,2.2965,2.2934,0.0,2.2558,0.0,2.2934,2.2934,2.3246,0.0,0.0,2.5195,2.5421,2.5302,2.6411,2.6904,2.666,2.6479,2.6506,2.6748,2.7165,2.785,2.8761,2.843,2.8223,2.8079,2.7589,2.7257,2.7099,2.6909,2.6514,2.5993,2.5819,2.544,2.5005,2.5005,2.5005,2.5005,2.5005,2.5123,2.5278,0.0,0.0,0.0,0.0,0.0,0.0,0.0,0.0,0.0,0.0,0.0,0.0,0.0,0.0,0.0,0.0,0.0,0.0,0.0,0.0,0.0,0.0,0.0,1.3779,1.4101,1.4537,0.0,0.0,0.0,0.0,0.0,1.6264,1.6399,1.6467,1.6718,1.6796,1.6796,1.7246,0.0,0.0,0.0,0.0,0.0,0.0,0.0,0.0,0.0,0.0,0.0,0.0,0.0,1.7664,1.8317,1.8404,1.8286,1.8612,0.0,1.8669,1.8727,1.8779,1.8907,1.9072,1.9184,1.9221,1.9109,1.9236,1.9273,1.9161,1.9147,0.0,0.0,0.0,0.0,0.0,0.0,0.0,2.326,2.3304,2.3246,0.0,2.3201,0.0,2.3718,2.3926,2.4446,0.0,2.5766,2.614,2.6738,2.734,2.7762,2.7984,2.7415,2.7241,2.7541,2.8205,2.8742,2.9075,2.8726,2.8553,2.8537,2.8158,2.8,2.7984,2.7668,2.7146,2.6467,2.6135,2.5598,2.5037,2.5497,2.5456,2.5233,2.5692,2.5766,2.5621,0.0,0.0,0.0,0.0,0.0,0.0,0.0,0.0,0.0,0.0,0.6166,0.0,0.0,0.0,0.0,0.0,0.0,0.0,0.0,0.0,0.0,0.0,0.0,1.2095,1.2202,0.0,0.0,0.0,0.0,0.0,0.0,0.0,0.0,0.0,0.0,0.0,0.0,0.0,0.0,0.0,0.0,0.0,0.0,0.0,0.0,0.0,0.0,0.0,0.0,0.0,1.9386,1.9159,1.9456,1.9667,1.9747,1.936,1.9432,1.9561,1.928,1.9332,1.9507,1.9588,1.9767,1.9859,1.966,1.9869,1.999,1.9639,0.0,1.9762,1.9762,1.998,2.05,2.1603,0.0,2.2515,2.3516,2.3728,2.3773,2.3729,2.3804,2.4103,2.4657,2.4716,2.5122,2.6,2.5754,2.6293,2.7987,2.7592,2.7921,2.9044,2.7984,2.7636,2.8221,2.8821,2.9075,2.9075,2.9075,2.9075,2.9075,2.9075,2.9075,2.9044,2.8534,2.7929,2.7264,2.656,2.5886,2.5353,2.6221,2.617,2.5718,2.6776,2.6775,2.625,0.0,0.0,0.0,0.0,0.0,0.0,0.0,0.0,0.0,0.0,0.6114,0.6421,0.0,0.0,0.0,0.0,0.0,0.0,0.0,0.0,0.0,0.0,0.0,0.0,0.0,0.0,0.0,0.0,0.0,0.0,0.0,0.0,0.0,0.0,0.0,0.0,0.0,0.0,0.0,0.0,0.0,0.0,0.0,0.0,0.0,0.0,0.0,0.0,0.0,0.0,1.9842,2.028,2.0602,2.0536,2.0405,2.0601,2.0682,2.0667,2.0398,2.0345,2.0345,2.0185,2.0308,2.0395,2.022,2.0342,0.0,0.0,0.0,2.0166,1.999,2.0518,0.0,2.2049,0.0,0.0,0.0,0.0,2.4655,0.0,0.0,0.0,0.0,0.0,0.0,0.0,2.6965,2.7226,2.7748,2.8385,2.8839,2.9075,2.8854,2.8791,2.8948,2.9012,2.9075,2.9075,2.9075,2.9075,2.9075,2.9075,2.9075,2.9121,2.9281,2.8966,2.8303,2.7843,2.7248,2.6689,2.6842,2.6825,2.6809,2.7607,2.7982,2.8056,0.0,0.0,0.0,0.0,0.0,0.0,0.0,0.494,0.5293,0.5846,0.6284,0.6578,0.669,0.6643,0.6777,0.0,0.0,0.0,0.0,0.0,0.0,0.0,0.0,0.0,0.0,0.0,0.0,0.0,0.0,0.0,0.0,0.0,0.0,0.0,0.0,0.0,0.0,0.0,0.0,0.0,0.0,0.0,0.0,0.0,0.0,0.0,0.0,0.0,0.0,0.0,2.0111,2.1212,2.1119,2.1323,2.1519,2.1446,2.1552,2.1625,2.1399,2.1291,2.1182,2.0959,2.1007,2.1007,2.0861,0.0,0.0,0.0,0.0,1.9713,1.9611,0.0,0.0,0.0,0.0,0.0,0.0,0.0,0.0,0.0,0.0,0.0,0.0,0.0,0.0,2.7906,2.8233,2.8341,2.8249,2.8916,2.938,2.938,2.956,2.9665,2.9665,2.9665,2.9665,2.9665,2.9665,2.9665,2.9665,2.9665,2.9665,2.971,2.9826,2.9491,2.8835,2.8657,2.8181,2.7613,2.813,2.8125,2.7893,2.8793,2.8996,2.8774,0.0,0.0,0.0,0.0,0.0,0.0,0.0,0.5125,0.5393,0.6104,0.6487,0.6745,0.6846,0.6714,0.6741,0.0,0.0,0.0,0.0,0.0,0.0,0.0,0.0,0.0,0.0,0.0,0.0,0.0,0.0,0.0,0.0,0.0,0.0,0.0,0.0,0.0,0.0,0.0,0.0,0.0,0.0,0.0,0.0,0.0,0.0,0.0,0.0,0.0,0.0,0.0,1.9829,2.1305,2.1095,2.174,2.2415,2.2089,2.2169,2.2347,2.2124,2.1969,2.184,2.1612,2.1568,2.1554,2.1401,2.0681,0.0,0.0,1.9689,1.9419,1.92,0.0,0.0,0.0,0.0,0.0,0.0,0.0,0.0,0.0,0.0,0.0,0.0,0.0,0.0,2.895,2.9243,2.9243,2.892,2.9364,2.9589,2.9499,2.9782,2.9973,2.9973,3.006,3.006,3.006,3.0146,3.0231,3.0258,3.0258,3.03,3.0342,3.0384,3.0137,2.9558,2.945,2.9069,2.8661,2.9421,2.9326,2.8963,2.9981,2.9973,2.9502,0.0,0.0,0.0,0.0,0.0,0.0,0.0,0.5142,0.5612,0.6742,0.6573,0.6505,0.6922,0.6864,0.6844,0.0,0.0,0.0,0.0,0.0,0.0,0.0,0.0,0.0,0.0,0.0,0.0,0.0,0.0,0.0,0.0,0.0,0.0,0.0,0.0,0.0,0.0,0.0,0.0,0.0,0.0,0.0,0.0,0.0,0.0,0.0,0.0,0.0,0.0,0.0,0.0,1.9589,2.0344,2.1451,2.2515,2.2605,0.0,0.0,2.233,2.2164,2.201,2.184,2.1811,2.1794,2.1554,0.0,0.0,2.024,2.0237,2.0027,1.9177,2.0289,0.0,0.0,0.0,0.0,0.0,0.0,0.0,0.0,0.0,0.0,0.0,0.0,0.0,2.9361,2.9601,2.9661,2.9544,2.9572,2.9454,2.9167,2.9167,2.9213,2.9213,2.9499,2.9677,2.9677,3.0017,3.03,3.0477,3.0477,3.0559,3.0764,3.1061,3.1184,3.1065,3.0517,3.0248,3.016,3.0095,3.0019,3.0053,3.0835,3.1055,3.1026,0.0,0.0,0.0,0.0,0.0,0.0,0.4775,0.4893,0.5189,0.5998,0.623,0.6324,0.6403,0.6628,0.673,0.6576,0.0,0.0,0.0,0.0,0.0,0.0,0.0,0.0,0.0,0.0,0.0,0.0,0.0,0.0,0.0,0.0,0.0,0.0,0.0,0.0,0.0,0.0,0.0,0.0,0.0,0.0,0.0,0.0,0.0,0.0,0.0,0.0,0.0,0.0,0.0,0.0,1.9455,2.061,0.0,0.0,2.2816,2.2902,2.279,2.2686,2.2527,2.2381,2.2287,2.2203,2.2032,0.0,2.014,2.0003,1.9876,1.9694,1.9316,2.0139,2.0868,0.0,2.1203,2.179,0.0,0.0,0.0,0.0,0.0,0.0,0.0,0.0,3.0081,3.0182,3.0452,3.0535,3.03,3.0241,3.0199,3.0087,3.0241,3.0368,3.0368,3.0493,3.0535,3.0593,3.0855,3.1015,3.1134,3.1235,3.1334,3.1428,3.1542,3.1596,3.1562,3.1362,3.1242,3.1242,3.1168,3.1131,3.1127,3.1321,3.1402,3.1346,0.0,0.0,0.0,0.0,0.0,0.4165,0.4617,0.4696,0.4956,0.5657,0.603,0.6257,0.634,0.6682,0.6833,0.6598,0.6656,0.0,0.0,0.0,0.0,0.0,0.0,0.0,0.0,0.0,0.0,0.0,0.0,0.0,0.0,0.0,0.0,0.0,0.0,0.0,0.0,0.0,0.0,0.0,0.0,0.0,0.0,0.0,0.0,0.0,0.0,0.0,0.0,0.0,0.0,0.0,0.0,0.0,0.0,0.0,2.2702,2.3045,2.3095,2.2995,2.2868,2.2738,2.2605,2.246,0.0,0.0,1.9932,2.015,1.9701,1.9336,1.9631,2.008,2.0412,2.0395,2.0699,2.1278,2.2269,0.0,0.0,0.0,0.0,0.0,0.0,0.0,3.0697,3.0553,3.0954,3.1112,3.0855,3.0855,3.0773,3.0568,3.0773,3.0895,3.0895,3.1055,3.1134,3.1134,3.1462,3.1614,3.1688,3.1837,3.191,3.1982,3.1982,3.1982,3.1982,3.191,3.191,3.1856,3.1837,3.18,3.1728,3.1336,3.1175,3.1103,0.0,0.0,0.0,0.0,0.0,0.0,0.4617,0.4696,0.5092,0.6141,0.6191,0.6386,0.7114,0.7196,0.7196,0.7196,0.7077,0.0,0.0,0.0,0.0,0.0,0.0,0.0,0.0,0.0,1.1315,1.2761,1.2467,0.0,0.0,0.0,0.0,0.0,0.0,0.0,0.0,0.0,0.0,0.0,0.0,0.0,0.0,0.0,0.0,0.0,0.0,0.0,0.0,0.0,0.0,0.0,0.0,0.0,0.0,0.0,2.2335,2.2944,2.3052,2.2995,2.2868,2.2738,2.2605,2.246,0.0,2.11,2.0221,2.1008,1.9959,1.9195,2.0123,2.0235,2.026,2.0388,2.099,2.2099,2.3841,0.0,0.0,0.0,0.0,0.0,0.0,3.05,3.1096,3.0176,3.0784,0.0,3.119,3.119,3.0895,3.0248,3.0189,3.0189,3.0189,3.074,3.1021,3.1021,3.1542,3.191,3.2073,3.2126,3.2196,3.2388,3.2388,3.2388,3.2371,3.2196,3.2126,3.209,3.1873,3.18,3.1714,3.0737,3.0426,3.0324,0.0,0.0,0.0,0.0,0.0,0.0,0.0,0.4502,0.4752,0.5448,0.5513,0.565,0.6141,0.6536,0.685,0.698,0.7329,0.0,0.0,0.0,0.0,0.0,0.0,0.0,0.0,0.0,1.1615,1.2994,1.2926,1.3332,1.4118,0.0,0.0,0.0,0.0,0.0,0.0,0.0,0.0,0.0,0.0,0.0,0.0,0.0,0.0,0.0,0.0,0.0,0.0,0.0,0.0,0.0,0.0,0.0,0.0,0.0,0.0,0.0,2.2813,2.2995,2.2995,2.2764,2.2659,2.2579,2.2366,2.11,2.0069,2.0331,1.9653,1.9137,1.944,1.9932,2.0518,2.1108,2.1908,0.0,0.0,0.0,0.0,0.0,0.0,0.0,0.0,0.0,3.0903,3.0465,3.1168,3.1654,3.1823,3.1674,3.1445,3.1112,3.1095,3.0881,3.0493,3.121,3.1045,2.9999,3.1355,3.1759,3.1307,3.1987,3.2354,3.2406,3.2406,3.2406,3.2406,3.2319,3.2319,3.2319,3.2249,3.2214,3.2074,3.1115,3.075,3.0612,0.0,0.0,0.0,0.0,0.0,0.0,0.0,0.4411,0.4599,0.512,0.5254,0.5451,0.5846,0.6512,0.7017,0.7194,0.7852,0.0,0.0,0.0,0.0,0.0,0.0,0.0,1.0597,1.092,1.1787,1.3195,1.3301,1.3826,1.4738,1.388,1.2963,0.0,0.0,0.0,0.0,0.0,0.0,0.0,0.0,0.0,0.0,0.0,0.0,0.0,0.0,0.0,0.0,0.0,0.0,0.0,0.0,0.0,0.0,0.0,1.8444,0.0,0.0,2.2467,2.2554,2.2616,2.2426,2.215,2.1925,2.0703,1.9647,1.9934,1.9287,1.8859,1.9469,1.9602,1.9888,2.0825,2.1663,0.0,0.0,0.0,0.0,0.0,0.0,0.0,0.0,2.988,3.0387,3.0196,3.0662,3.1113,3.1498,3.1219,3.1027,3.0956,3.1104,3.0982,3.061,3.0905,3.0612,2.9744,3.1217,3.1684,3.1326,3.2237,3.2674,3.2674,3.2674,3.2674,0.0,3.2557,3.2523,3.2472,3.2089,3.1949,3.1775,3.0522,3.0021,2.9899,0.0,0.0,0.0,0.0,0.0,0.0,0.0,0.4451,0.4632,0.5152,0.5386,0.5659,0.6103,0.6911,0.7498,0.7659,0.0,0.0,0.0,0.0,0.0,0.0,0.0,0.0,1.0777,1.0991,1.1836,1.342,1.3535,1.4101,1.5029,1.4265,1.3371,1.2399,1.164,0.0,0.0,0.0,0.0,0.0,0.0,0.0,0.0,0.0,0.0,0.0,0.0,0.0,0.0,0.0,0.0,0.0,0.0,0.0,0.0,0.0,0.0,0.0,0.0,0.0,0.0,0.0,2.1772,2.1216,2.1078,1.99,0.0,1.9655,1.8801,1.8408,1.9964,1.92,1.8708,1.9883,2.069,0.0,0.0,0.0,0.0,0.0,0.0,0.0,2.7557,2.8853,2.9657,2.9454,2.9506,2.9834,3.056,3.0124,2.9937,3.0145,3.0385,3.0508,3.0508,3.0073,2.9887,3.0004,3.104,3.1581,3.1757,3.2601,3.2996,3.3014,3.3068,3.305,3.2996,3.2759,3.2627,3.2471,3.1502,3.114,3.0931,2.9231,2.861,2.8537,0.0,0.0,0.0,0.0,0.0,0.0,0.0,0.0,0.0,0.0,0.5383,0.5462,0.5573,0.619,0.6822,0.0,0.0,0.0,0.0,0.0,0.0,0.0,0.0,0.0,1.0705,1.092,1.1836,1.3472,1.3498,1.4197,1.5433,1.5154,1.4213,1.276,1.2485,1.1589,0.0,0.0,0.0,0.0,0.0,0.0,0.0,0.0,0.0,0.0,0.0,1.2796,0.0,0.0,0.0,0.0,0.0,0.0,0.0,0.0,1.5017,1.5675,1.7566,0.0,1.9381,1.9992,1.997,1.9756,0.0,1.8812,0.0,0.0,0.0,0.0,0.0,1.8696,1.9296,0.0,0.0,0.0,0.0,0.0,0.0,0.0,0.0,2.7968,2.7672,2.8535,2.9082,2.9033,2.961,3.0109,3.0423,3.0344,3.0343,3.0545,3.0036,2.9763,2.9763,3.0238,2.9922,2.881,3.0223,3.0621,3.0104,3.1523,3.217,3.2206,3.2816,3.2745,3.217,3.2092,3.1721,3.1136,3.0716,3.0601,3.0446,2.9259,2.8833,2.8741,0.0,0.0,0.0,0.0,0.0,0.0,0.0,0.0,0.0,0.0,0.0,0.5423,0.5491,0.597,0.0,0.0,0.0,0.0,0.0,0.0,0.0,0.0,0.0,1.0572,1.0705,1.0897,1.1763,1.3315,1.3484,1.4116,1.5149,1.5064,1.4206,1.2682,1.2169,1.1392,0.0,0.0,0.0,0.0,0.0,0.0,0.0,0.0,0.0,0.0,1.2012,1.2326,0.0,1.2926,1.2994,1.3061,0.0,0.0,0.0,0.0,1.4143,1.4432,1.5366,1.6951,1.8478,1.9156,1.9021,1.8719,0.0,0.0,0.0,0.0,0.0,0.0,0.0,0.0,0.0,0.0,0.0,0.0,0.0,0.0,0.0,0.0,0.0,2.8282,0.0,2.8408,2.8816,2.9142,2.9278,2.9532,2.9951,2.9817,2.9728,2.9764,2.9537,2.9432,2.9493,2.9601,2.926,2.8562,2.9764,3.0161,2.9842,3.112,3.1683,3.1701,3.2109,3.2055,3.1656,3.1562,3.1271,3.081,3.0234,3.0005,2.9869,2.9037,2.8696,2.8632,0.0,0.0,0.0,0.0,0.0,0.0,0.0,0.0,0.0,0.0,0.0,0.0,0.0,0.0,0.0,0.0,0.0,0.0,0.0,0.0,0.0,0.0,1.0424,1.0548,1.0656,1.0849,1.1598,1.2919,1.3297,1.3816,1.4411,1.4453,1.3775,1.2472,1.1504,1.0991,0.0,0.0,0.0,0.0,0.0,0.0,0.0,0.0,0.0,0.0,0.0,0.0,0.0,1.2427,1.2581,1.2681,1.2722,0.0,0.0,0.0,0.0,0.0,1.4246,1.6168,1.8173,1.8646,1.837,1.8007,0.0,0.0,0.0,0.0,0.0,0.0,0.0,0.0,0.0,0.0,0.0,0.0,0.0,0.0,0.0,0.0,0.0,0.0,2.844,2.8414,2.8658,2.9278,2.8748,2.8658,2.9296,2.9057,2.8834,2.8694,2.9079,2.9347,2.9449,2.8851,2.8626,2.8791,2.9491,2.9893,3.0073,3.0882,3.125,3.1244,3.1372,3.1354,3.1201,3.1016,3.0883,3.0675,2.9764,2.9413,2.935,2.8757,2.8496,2.85,0.0,0.0,0.0,0.0,0.0,0.0,0.0,0.0,0.0,0.0,0.0,0.0,0.0,0.0,0.0,0.0,0.0,0.0,0.0,0.0,0.0,1.0122,1.0361,1.0523,1.0523,1.0656,1.1217,1.2178,1.2392,1.2914,1.3671,1.3842,1.3411,1.2458,1.185,1.1452,1.1215,1.1215,0.0,0.0,0.0,0.0,0.0,0.0,0.0,0.0,0.0,0.0,0.0,1.2254,1.2499,1.2577,1.2813,0.0,0.0,0.0,0.0,0.0,1.5638,1.6913,1.7664,1.6923,1.7135,1.7659,0.0,0.0,0.0,0.0,0.0,0.0,0.0,0.0,0.0,0.0,0.0,0.0,0.0,0.0,0.0,0.0,0.0,2.8743,2.844,2.8414,2.8468,2.855,2.8468,2.8468,2.855,2.8674,2.8718,2.8694,2.9026,2.9233,2.9232,2.9197,2.9188,2.9209,2.9339,2.9416,2.9474,3.0268,3.0609,3.0572,3.1278,3.1114,3.0393,3.0345,2.9941,2.9295,2.9077,2.8998,2.898,2.8749,2.8652,2.8694,0.0,0.0,0.0,0.0,0.0,0.0,0.0,0.0,0.0,0.0,0.0,0.0,0.0,0.0,0.0,0.0,0.0,0.0,0.0,0.0,0.9641,0.9983,1.0236,1.0424,1.0498,1.0632,1.1292,1.2506,1.2701,1.3026,1.3432,1.3014,1.2622,1.2276,1.1881,1.1615,1.1437,1.1353,0.0,0.0,0.0,0.0,0.0,0.0,0.0,0.0,0.0,0.0,0.0,0.0,1.2224,1.2642,1.2834,0.0,0.0,0.0,0.0,0.0,1.4941,1.5875,1.6688,1.6983,1.7664,1.8324,0.0,0.0,0.0,0.0,0.0,0.0,0.0,0.0,0.0,0.0,0.0,0.0,0.0,0.0,0.0,0.0,0.0,2.9052,2.8845,2.8821,2.8815,2.8718,2.8718,2.8718,2.8718,2.8887,2.8957,2.8957,2.9225,2.9351,2.9351,2.9551,2.9513,2.9293,2.9293,2.9293,2.9312,2.9683,2.9826,2.982,3.0281,3.0206,2.9829,2.9895,2.9671,2.9272,2.9233,2.9188,2.9119,2.906,2.9064,2.9148,0.0,0.0,0.0,0.0,0.0,0.0,0.0,0.0,0.0,0.0,0.0,0.0,0.0,0.0,0.0,0.0,0.0,0.0,0.0,0.8962,0.9289,0.9692,1.0096,1.0349,1.0449,1.0742,1.1497,1.2689,1.3031,1.3243,1.33,1.25,1.2123,1.2123,1.1946,1.1818,1.1725,1.1608,1.1725,0.0,0.0,0.0,0.0,0.0,0.0,0.0,0.0,0.0,0.0,0.0,0.0,0.0,0.0,0.0,0.0,1.3479,1.3731,1.4051,1.4556,1.5279,1.6205,1.7467,0.0,0.0,0.0,0.0,0.0,0.0,0.0,0.0,0.0,0.0,0.0,0.0,0.0,0.0,0.0,2.8925,2.9456,2.9395,2.9395,2.9353,2.9225,2.9225,2.9181,2.9089,2.9067,2.9067,2.9067,2.9203,2.9267,2.9267,2.9474,2.9589,2.9589,2.9806,2.9753,2.9435,2.9456,2.9475,2.9475,2.9475,2.9475,2.9456,2.9551,2.957,2.9588,2.966,2.9643,2.9551,2.9588,2.9533,2.9475,2.9475,2.9532,2.9608,0.0,0.0,0.0,0.0,0.0,0.0,0.0,0.0,0.0,0.0,0.0,0.0,0.0,0.0,0.0,0.0,0.0,0.0,0.0,0.8512,0.9113,0.9163,0.989,1.0299,1.0299,1.112,1.1703,1.2069,1.2846,1.3129,1.3015,1.264,1.2372,1.2195,1.2356,1.2352,1.2153,1.2262,1.2372,1.2459,0.0,0.0,0.0,0.0,0.0,0.0,0.0,0.0,0.0,0.0,0.0,0.0,0.0,0.0,1.319,1.3493,1.3836,1.4431,1.5998,1.6609,1.7005,1.7866,0.0,0.0,0.0,0.0,0.0,0.0,0.0,0.0,0.0,0.0,0.0,0.0,0.0,0.0,2.9419,0.0,2.9883,2.9698,2.9662,2.957,2.9314,2.9293,2.9293,2.9272,2.9272,2.9272,2.9272,2.9416,2.9476,2.9476,2.9732,2.9869,2.9869,2.9946,2.9953,2.9859,2.9918,2.9946,2.9946,2.9946,2.9908,2.9851,2.9864,2.9832,2.9775,2.9712,2.9696,2.9696,2.9817,2.9899,2.9946,2.9946,2.9962,2.9946,0.0,0.0,0.0,0.0,0.0,0.0,0.0,0.0,0.0,0.0,0.0,0.0,0.0,0.0,0.0,0.0,0.0,0.0,0.0,0.7814,0.8361,0.9075,0.9458,0.9693,0.9752,1.0972,1.1923,1.2549,1.3162,1.3376,1.3248,1.264,1.2412,1.2506,1.2412,1.2368,1.2394,1.2399,1.2487,1.263,1.2703,0.0,0.0,0.0,0.0,0.0,0.0,0.0,0.0,0.0,1.0713,1.1413,0.0,1.2221,1.2969,1.2944,1.3071,1.3494,1.476,1.5618,1.6565,1.8292,0.0,0.0,0.0,0.0,0.0,0.0,0.0,0.0,0.0,0.0,0.0,0.0,0.0,2.7774,2.876,2.9028,2.9314,2.9826,2.9883,2.9801,2.957,2.9551,2.9494,2.9436,2.9418,2.9456,2.9533,2.9607,2.9661,2.975,2.9853,2.995,3.0022,3.0122,3.0196,3.0215,3.0071,3.0022,3.0066,3.0066,3.0075,3.0098,3.0177,3.0203,3.0184,3.019,3.0151,3.008,2.9992,2.9977,2.9992,2.9992,2.9992,2.9992,0.0,0.0,0.0,0.0,0.0,0.0,0.0,0.0,0.0,0.0,0.0,0.0,0.0,0.0,0.0,0.0,0.0,0.0,0.7119,0.7306,0.7751,0.8524,0.8886,0.9066,0.9108,1.0534,1.1648,1.243,1.3128,1.3394,1.3299,1.2697,1.2506,1.2623,1.2487,1.2463,1.2499,1.2262,1.2266,1.2401,1.228,1.1548,0.0,0.0,0.0,0.0,0.0,0.0,0.0,0.0,1.0081,1.0829,0.0,0.0,1.2622,1.2545,1.285,1.3272,1.3725,1.4575,1.5814,0.0,0.0,0.0,0.0,0.0,0.0,0.0,0.0,0.0,0.0,0.0,0.0,0.0,2.6172,2.6985,2.7978,2.8483,2.8939,2.9555,2.9899,3.0022,2.9834,2.9851,2.9799,2.9695,2.9695,2.9712,2.9799,2.9832,2.9915,2.9996,3.0026,3.0114,3.0235,3.0316,3.0386,3.043,3.0253,3.0184,3.0222,3.0222,3.0259,3.0337,3.04,3.0451,3.0462,3.0482,3.0452,3.0356,3.0196,3.0157,3.0157,3.0157,3.0157,3.0144,0.0,0.0,0.0,0.0,0.0,0.0,0.0,0.0,0.0,0.0,0.0,0.0,0.0,0.0,0.0,0.0,0.0,0.0,0.6599,0.7094,0.7393,0.7406,0.8108,0.8499,0.8499,0.9864,1.0859,1.1413,1.2539,1.3091,1.3075,1.2812,1.2607,1.2483,1.2642,1.2623,1.2451,1.1905,1.1739,1.1743,1.1213,1.0569,0.0,0.0,0.0,0.0,0.0,0.0,0.0,0.0,0.9602,0.9785,0.0,0.0,0.0,1.2494,1.3343,1.4031,1.3304,1.3796,0.0,0.0,0.0,0.0,0.0,0.0,0.0,0.0,0.0,0.0,0.0,0.0,0.0,2.5639,2.5904,2.6329,2.7357,2.8351,2.8931,2.8822,2.9679,3.0248,3.0122,3.0157,3.0171,3.0122,3.0089,3.0061,3.0007,3.0128,3.0196,3.0196,3.0323,3.0433,3.0509,3.0509,3.0491,3.0501,3.0501,3.0501,3.0501,3.0501,3.0548,3.0602,3.0519,3.0548,3.0602,3.0539,3.0501,3.0501,3.0501,3.0501,3.0501,3.0501,3.0501,3.0492,0.0,0.0,0.0,0.0,0.0,0.0,0.0,0.0,0.0,0.0,0.0,0.0,0.0,0.0,0.0,0.0,0.0,0.0,0.6599,0.6749,0.6994,0.7381,0.7595,0.7763,0.7862,0.8558,0.9919,1.1952,1.2149,1.2054,1.1677,1.1763,1.1508,1.1043,1.1555,1.1508,1.1029,1.0961,1.0994,1.1089,1.103,1.0597,0.0,0.0,0.0,0.0,0.0,0.0,0.0,0.0,0.0,0.0,0.9729,0.0,1.2094,1.1344,1.215,1.3272,1.3188,0.0,0.0,0.0,0.0,0.0,0.0,0.0,0.0,0.0,0.0,0.0,0.0,0.0,0.0,2.497,2.5148,2.5574,2.6581,2.6974,2.7647,2.8925,2.9336,2.9732,3.0251,3.0321,3.0333,3.0309,3.0309,3.0309,3.0359,3.0383,3.0406,3.0406,3.0447,3.05,3.0567,3.0567,3.0593,3.0634,3.0634,3.0618,3.0565,3.0565,3.061,3.0676,3.0642,3.0642,3.0668,3.061,3.0565,3.0565,3.051,3.0501,3.0501,3.0501,3.0501,3.0492,0.0,0.0,0.0,0.0,0.0,0.0,0.0,0.0,0.0,0.0,0.0,0.0,0.0,0.0,0.0,0.0,0.0,0.0,0.0,0.6599,0.6749,0.7056,0.7081,0.7357,0.7939,0.829,0.9398,1.1282,1.1137,1.094,1.0712,1.0856,1.0741,1.0428,1.0789,1.0758,1.0381,1.0239,1.0248,1.0352,1.0195,0.9929,0.961,0.0,0.0,0.0,0.0,0.0,0.0,0.0,0.0,0.0,0.0,0.0,0.0,1.1059,1.1913,1.3046,1.3561,0.0,0.0,0.0,0.0,0.0,0.0,0.0,0.0,0.0,0.0,0.0,0.0,2.4666,0.0,2.4809,2.4896,2.5165,2.5826,2.6217,2.6856,2.7999,2.8493,2.9081,2.9883,2.9989,3.0134,3.0462,3.0482,3.0501,3.0491,3.0491,3.051,3.0539,3.0539,3.0569,3.0634,3.0632,3.0665,3.069,3.069,3.0676,3.0634,3.0634,3.0668,3.069,3.069,3.071,3.0729,3.0661,3.0634,3.0634,3.061,3.0574,3.0574,3.0574,3.0574,3.0593,0.0,0.0,0.0,0.0,0.0,0.0,0.0,0.0,0.0,0.0,0.0,0.0,0.0,0.0,0.0,0.0,0.0,0.0,0.0,0.6599,0.6599,0.6599,0.6649,0.7275,0.853,0.8704,0.9117,0.9785,0.9735,0.9811,0.9985,1.0053,1.0139,1.0191,1.0204,1.0221,1.0176,0.9634,0.9477,0.9555,0.9009,0.8869,0.8992,0.9078,0.0,0.0,0.0,0.0,0.0,0.0,0.0,0.0,0.9747,1.0098,1.0395,1.1229,1.2204,1.3227,0.0,0.0,0.0,0.0,0.0,0.0,0.0,0.0,0.0,0.0,0.0,0.0,0.0,2.4915,2.4949,2.4998,2.5037,2.5068,2.5198,2.5915,2.6446,2.6514,2.7389,2.8303,2.9106,2.9252,2.9589,3.0319,3.0377,3.0341,3.0278,3.0355,3.0434,3.0482,3.0569,3.0636,3.0711,3.0699,3.0719,3.071,3.071,3.071,3.071,3.069,3.069,3.069,3.0704,3.075,3.0808,3.073,3.0704,3.071,3.071,3.071,3.071,3.071,3.071,3.071,0.0,0.0,0.0,0.0,0.0,0.0,0.0,0.0,0.0,0.0,0.0,0.0,0.0,0.0,0.0,0.0,0.0,0.0,0.0,0.6599,0.6599,0.6599,0.6994,0.7784,0.8958,0.8255,0.8234,0.8945,0.8986,0.9037,0.9083,0.9248,0.9065,0.863,0.9234,0.9261,0.8813,0.8636,0.8663,0.8816,0.8745,0.8773,0.8852,0.9039,0.9109,0.0,0.0,0.0,0.0,0.0,0.0,0.0,0.9179,0.9788,1.0355,0.9928,1.1341,1.3215,0.0,0.0,0.0,0.0,0.0,0.0,0.0,0.0,0.0,0.0,0.0,0.0,2.4981,2.5063,2.5153,2.5157,2.5243,2.5313,2.5351,2.556,2.597,2.6641,2.6943,2.7419,2.8262,2.8372,2.8469,2.8696,2.8715,2.8682,2.8621,2.9249,2.9633,2.9661,3.0323,3.071,3.0779,3.0784,3.0778,3.0775,3.0775,3.0775,3.0775,3.071,3.069,3.0697,3.0755,3.0798,3.0798,3.0778,3.0784,3.0775,3.0775,3.0775,3.0775,3.0775,3.0775,3.0775,0.0,0.0,0.0,0.0,0.0,0.0,0.0,0.0,0.0,0.0,0.0,0.0,0.0,0.0,0.0,0.0,0.0,0.0,0.0,0.6564,0.6599,0.6599,0.7106,0.7688,0.8286,0.7761,0.7727,0.8168,0.8049,0.8099,0.8332,0.8787,0.8697,0.8181,0.8879,0.8874,0.8351,0.839,0.8467,0.8567,0.8691,0.8784,0.8863,0.9078,0.9151,0.9154,0.9154,0.0,0.0,0.0,0.0,0.0,0.0,0.0,0.9876,0.9865,1.1109,1.2769,0.0,0.0,0.0,0.0,0.0,0.0,0.0,0.0,0.0,0.0,0.0,0.0,2.5145,2.5201,2.5262,2.5293,2.5341,2.5398,2.5434,2.5506,2.5712,2.618,2.6236,2.6573,2.7446,2.7524,2.7712,2.8159,2.8189,2.8182,2.8158,2.8583,2.883,2.8832,2.9305,2.9562,2.9597,2.9597,2.9598,2.9605,2.9566,2.9766,3.0194,3.0581,3.0749,3.0756,3.0787,3.0829,3.0849,3.081,3.0545,3.0186,3.0171,2.9922,2.9605,3.0019,2.9932,2.9654,0.0,0.0,0.0,0.0,0.0,0.0,0.0,0.0,0.0,0.0,0.0,0.0,0.0,0.0,0.0,0.0,0.0,0.0,0.0,0.6517,0.6637,0.6737,0.7156,0.7443,0.7543,0.7475,0.749,0.7611,0.7303,0.7417,0.793,0.8452,0.8485,0.8168,0.8681,0.8678,0.8267,0.8403,0.847,0.8508,0.8703,0.8818,0.8919,0.9116,0.9191,0.9196,0.9196,0.9201,0.9196,0.9206,0.0,0.0,0.0,0.0,0.9341,1.0055,1.0948,1.2057,0.0,0.0,0.0,0.0,0.0,0.0,0.0,0.0,0.0,0.0,0.0,2.5231,2.5293,2.5313,2.5332,2.5388,2.5418,2.5446,2.5514,2.558,2.5621,2.5621,2.5607,2.5873,2.6607,2.6673,2.6979,2.7698,2.7761,2.7771,2.7773,2.7902,2.7986,2.7995,2.8199,2.8303,2.8301,2.83,2.83,2.8303,2.824,2.8589,2.9311,3.0044,3.0522,3.0794,3.0652,3.0618,3.0664,3.0449,2.9941,2.9297,2.9281,2.8856,2.8291,2.9023,2.8863,2.8379,0.0,0.0,0.0,0.0,0.0,0.0,0.0,0.0,0.0,0.0,0.0,0.5166,0.5454,0.5625,0.0,0.0,0.0,0.0,0.6388,0.0,0.0,0.7269,0.7356,0.7631,0.8173,0.7783,0.7611,0.7686,0.7458,0.7721,0.0,0.0,0.7886,0.7942,0.8091,0.8131,0.8131,0.8203,0.8301,0.8435,0.8636,0.8755,0.884,0.9105,0.9206,0.9199,0.9199,0.9168,0.912,0.9181,0.9199,0.0,0.0,0.0,0.0,0.9337,1.0077,0.0,0.0,0.0,0.0,0.0,0.0,0.0,0.0,0.0,0.0,0.0,2.5168,2.5293,2.5303,2.5351,2.5388,2.5409,2.5509,2.5582,2.5599,2.5648,2.5691,2.5691,2.5644,2.565,2.5765,2.5762,2.5857,2.6029,2.6021,2.6035,2.6035,2.6741,2.7153,2.7167,2.7908,2.8299,2.8301,2.8301,2.8301,2.8307,2.8289,2.8354,2.8451,2.8571,2.9437,3.0762,3.0052,2.9764,2.9707,2.8945,2.8574,2.8457,2.8456,2.8398,2.8301,2.8422,2.8391,2.8315,0.0,0.0,0.0,0.0,0.0,0.0,0.0,0.0,0.0,0.0,0.0,0.499,0.5253,0.553,0.0,0.0,0.0,0.0,0.6557,0.6621,0.0,0.7099,0.7129,0.7245,0.7515,0.7312,0.7223,0.724,0.7278,0.0,0.0,0.8319,0.8555,0.0,0.9106,0.8957,0.8634,0.8335,0.8234,0.8314,0.8538,0.8952,0.9402,0.9211,0.945,0.9806,0.9369,0.9184,0.9174,0.9271,0.9259,0.9206,0.9204,0.0,0.0,0.0,0.0,0.0,0.0,0.0,0.0,0.0,0.0,0.0,0.0,0.0,0.0,0.0,2.5134,2.5262,2.5303,2.5351,2.5406,2.5453,2.5536,2.5604,2.564,2.5681,2.5701,2.5701,2.5661,2.5661,2.566,2.5664,2.5662,2.5703,2.5698,2.5698,2.5703,2.605,2.6263,2.6269,2.6631,2.6831,2.6831,2.6835,2.6835,2.6852,2.7339,2.7563,2.7582,2.807,2.8708,2.9383,2.9021,2.8867,2.8848,2.8457,2.8004,2.7579,2.7579,2.7245,2.6844,2.734,2.7172,2.6796,0.0,0.0,0.0,0.0,0.0,0.0,0.0,0.0,0.0,0.0,0.0,0.0,0.5069,0.0,0.0,0.0,0.0,0.0,0.6672,0.0,0.0,0.0,0.6908,0.6908,0.6908,0.6924,0.6944,0.6977,0.0,0.0,0.8745,0.8923,0.9525,0.0,1.0119,0.9621,0.0,0.0,0.0,0.0,0.8711,0.9254,0.9849,0.9674,1.0037,1.054,0.9785,0.9504,0.0,0.0,0.0,0.0,0.0,0.0,0.0,0.0,0.0,0.0,0.0,0.0,0.0,0.0,0.0,0.0,0.0,0.0,0.0,0.0,2.505,2.5145,2.5253,2.536,2.544,2.5492,2.5564,2.5624,2.5698,2.5702,2.5696,2.5707,2.5704,2.571,2.5703,2.5698,2.5691,2.5698,2.5694,2.5699,2.5699,2.5699,2.5699,2.5699,2.5707,2.5693,2.5662,2.5665,2.5675,2.5682,2.6357,2.6677,2.6697,2.7344,2.7644,2.7653,2.7869,2.7968,2.7949,2.7712,2.7234,2.6645,2.6627,2.6194,2.5648,2.6304,2.6094,2.5594,0.0,0.0,0.0,0.0,0.0,0.0,0.0,0.0,0.0,0.0,0.0,0.0,0.5069,0.5233,0.5339,0.5355,0.0,0.0,0.0,0.0,0.0,0.0,0.0,0.0,0.6908,0.696,0.7058,0.7187,0.0,0.0,0.9629,0.9758,1.0503,1.164,1.0428,0.9533,0.8921,0.0,0.0,0.0,0.0,0.9593,0.9895,1.0683,1.1147,1.1252,1.0586,0.0,0.0,0.0,0.0,0.0,0.0,0.9393,0.9383,0.0,0.0,0.0,0.0,0.0,0.0,0.0,0.0,0.0,0.0,0.0,0.0,0.0,2.4912,2.4974,2.5173,2.535,2.5499,2.5503,2.5551,2.5619,2.5681,2.5699,2.5701,2.5703,2.5699,2.5703,2.5699,2.5703,2.5703,2.5703,2.5699,2.5699,2.5699,2.5699,2.5699,2.5699,2.5699,2.5673,2.5609,2.5615,2.5607,2.5607,2.5717,2.5777,2.5777,2.5816,2.5839,2.5882,2.6715,2.7065,2.6992,2.611,2.5706,2.5659,2.5599,2.5544,2.5518,2.5553,2.5538,2.5492,0.0,0.0,0.0,0.0,0.0,0.0,0.0,0.0,0.0,0.0,0.0,0.0,0.0,0.5262,0.5291,0.5107,0.5528,0.0,0.0,0.0,0.0,0.0,0.0,0.0,0.0,0.7042,0.7123,0.0,0.0,0.8054,0.9114,0.9214,0.9555,1.0061,0.9941,0.9791,0.9544,0.8789,0.0,0.0,0.0,0.0,1.0669,1.1025,1.1562,1.1999,0.0,0.0,0.0,0.0,0.0,0.0,0.943,0.9466,0.9457,0.943,0.0,0.0,0.0,0.0,0.0,0.0,0.0,0.0,0.0,0.0,0.0,2.4768,2.4865,2.4994,2.5107,2.5274,2.5401,2.5498,2.5557,2.5604,2.5636,2.5663,2.5707,2.5709,2.5704,2.5699,2.5699,2.5699,2.5699,2.5699,2.5658,2.5644,2.5644,2.5599,2.5568,2.5568,2.5568,2.555,2.5538,2.5544,2.5531,2.5531,2.5604,2.5644,2.5644,2.5687,2.5699,2.5718,2.6026,2.6175,2.6144,2.5769,2.5607,2.558,2.5534,2.5468,2.5434,2.5437,2.5387,2.5293,0.0,0.0,0.0,0.0,0.0,0.0,0.0,0.0,0.4248,0.465,0.0,0.0,0.0,0.0,0.5373,0.5337,0.5649,0.6113,0.6676,0.6791,0.0,0.0,0.0,0.0,0.0,0.7091,0.7171,0.7298,0.7438,0.7938,0.0,0.8922,0.9138,0.9447,0.9645,0.9737,0.0,0.0,0.0,0.8834,0.0,0.0,1.1121,1.1732,1.2331,1.2779,0.0,0.0,0.0,0.0,0.0,0.0,0.0,0.9708,0.9536,0.9562,0.0,0.0,0.0,0.0,0.0,0.0,0.0,0.0,0.0,0.0,2.3975,2.4238,2.4662,2.4981,2.5072,2.5194,2.532,2.5478,2.5564,2.5601,2.564,2.5644,2.5662,2.5693,2.5704,2.5699,2.5699,2.5699,2.5699,2.5699,2.5644,2.5599,2.5599,2.5544,2.5499,2.5499,2.5478,2.5464,2.5464,2.5464,2.5464,2.5464,2.5538,2.5562,2.5562,2.5615,2.5625,2.5625,2.5625,2.5649,2.5654,2.559,2.555,2.5522,2.5468,2.5387,2.5321,2.5321,2.5264,2.516,0.0,0.0,0.0,0.0,0.0,0.0,0.0,0.0,0.4403,0.4671,0.0,0.0,0.0,0.0,0.0,0.6147,0.6201,0.6343,0.6672,0.6689,0.0,0.0,0.0,0.0,0.6993,0.7058,0.7171,0.7298,0.7438,0.7939,0.8779,0.8972,0.9418,1.0031,0.9577,0.9291,0.9186,0.0,0.9367,0.9579,0.0,1.0762,1.1219,0.0,0.0,0.0,1.292,1.2713,0.0,1.1862,0.0,0.0,0.0,1.0132,0.9603,0.9683,0.9688,0.0,0.0,0.0,0.0,0.0,0.0,0.0,0.0,0.0,2.2436,2.3295,2.419,2.4896,2.5061,2.5163,2.5274,2.5471,2.5538,2.5621,2.5698,2.5636,2.562,2.5701,2.5703,2.5699,2.5699,2.5699,2.5699,2.5699,2.5625,2.5599,2.5599,2.5538,2.5492,2.5492,2.5434,2.5401,2.5401,2.5401,2.5401,2.5401,2.5464,2.5492,2.5492,2.5492,2.5499,2.5499,2.5499,2.5531,2.5595,2.5525,2.5456,2.539,2.5322,2.5253,2.5192,2.5192,2.516,2.5072,0.0,0.0,0.0,0.0,0.0,0.3772,0.3939,0.4158,0.4403,0.0,0.0,0.0,0.5233,0.552,0.5782,0.6043,0.6236,0.6383,0.647,0.6621,0.6706,0.6757,0.6874,0.6944,0.6993,0.7009,0.7123,0.7298,0.7438,0.7722,0.8154,0.8243,0.848,0.8794,0.872,0.8719,0.8766,0.8693,0.0,0.9795,0.9908,1.0748,0.0,0.0,0.0,0.0,0.0,1.2968,1.2526,0.0,1.1884,1.1252,0.0,0.0,0.0,0.9692,0.0,0.0,1.0349,0.0,0.0,0.0,0.0,0.0,0.0,0.0,0.0,2.221,2.2956,2.3617,2.4862,2.5234,2.5387,2.548,2.5524,2.5557,2.5615,2.5617,2.5625,2.5698,2.5707,2.5699,2.5699,2.5699,2.5687,2.562,2.5562,2.5518,2.5456,2.5393,2.535,2.535,2.5331,2.5341,2.5341,2.5341,2.5341,2.5322,2.5393,2.5426,2.5434,2.5478,2.5499,2.5499,2.5499,2.5478,2.5441,2.5382,2.5357,2.5387,2.5274,2.5222,2.5192,2.5192,2.5164,2.5076,0.0,0.0,0.0,0.3869,0.3848,0.3897,0.4097,0.4321,0.4544,0.0,0.0,0.0,0.5406,0.5595,0.583,0.605,0.6218,0.6366,0.6483,0.6586,0.6668,0.6668,0.6757,0.6841,0.6874,0.6944,0.7058,0.7171,0.7345,0.7546,0.7811,0.7984,0.8164,0.8387,0.8508,0.8571,0.8587,0.8579,0.0,0.0,1.0361,0.0,0.0,1.3022,1.3531,0.0,0.0,0.0,1.3013,1.3055,1.2661,0.0,0.0,0.0,0.0,0.0,0.0,0.0,0.0,0.0,0.0,0.0,0.0,0.0,1.7081,1.7589,0.0,0.0,2.1713,2.289,2.3877,2.4782,2.5397,2.5484,2.5495,2.5524,2.5595,2.5617,2.5659,2.5691,2.5701,2.5693,2.5703,2.5699,2.5663,2.5604,2.5544,2.5456,2.5359,2.5313,2.5303,2.5303,2.5303,2.5303,2.5303,2.5303,2.5303,2.5303,2.5331,2.5359,2.5359,2.5401,2.5418,2.5418,2.5418,2.5393,2.535,2.5284,2.5293,2.535,2.5274,2.5214,2.5212,2.5171,2.5087,2.5004,0.0,0.0,0.3931,0.3911,0.398,0.4104,0.4273,0.4552,0.4782,0.0,0.5166,0.5406,0.5614,0.5633,0.5763,0.6129,0.6165,0.6284,0.6512,0.6564,0.6582,0.6582,0.6651,0.6702,0.6689,0.6891,0.6993,0.7026,0.7219,0.7454,0.7738,0.7982,0.8245,0.8508,0.8685,0.8705,0.864,0.8749,0.0,0.9303,1.1215,1.2136,0.0,0.0,1.4621,1.464,1.4056,1.3844,1.3837,1.3939,1.3625,0.0,0.0,0.0,0.0,0.0,1.1766,0.0,0.0,0.0,0.0,0.0,0.0,0.0,1.8323,1.7746,1.6677,0.0,2.0467,2.2231,2.2421,2.3772,2.4918,2.5043,2.5232,2.5418,2.5589,2.5652,2.5705,2.5703,2.5703,2.5699,2.5694,2.5703,2.5663,2.5599,2.5525,2.5426,2.5313,2.5303,2.5303,2.5303,2.5303,2.5303,2.5303,2.5284,2.5303,2.5293,2.5264,2.5253,2.5253,2.5243,2.5243,2.5253,2.5243,2.5253,2.5274,2.5192,2.5233,2.5303,2.5274,2.5243,2.5182,2.5115,2.5013,2.4889,0.0,0.4014,0.4055,0.398,0.4117,0.4252,0.4293,0.4615,0.4912,0.5049,0.5339,0.5595,0.5745,0.5774,0.5793,0.5867,0.5988,0.6062,0.6116,0.6325,0.6436,0.6436,0.6552,0.6651,0.6689,0.6841,0.6993,0.7155,0.736,0.7591,0.7869,0.8025,0.8245,0.8508,0.8546,0.8632,0.8769,0.0,0.0,1.0693,1.096,0.0,1.3126,1.3961,1.4757,1.5397,1.5374,1.5002,1.4623,1.5435,1.5673,1.5485,0.0,0.0,0.0,1.2408,1.2626,1.3139,1.2544,0.0,0.0,0.0,0.0,0.0,1.5657,1.6583,1.7473,0.0,1.9094,1.9954,2.1304,2.1924,2.2263,2.228,2.3449,2.4672,2.557,2.5691,2.5705,2.5703,2.5703,2.5702,2.5703,2.5697,2.5654,2.5538,2.541,2.5341,2.5303,2.5303,2.5303,2.5303,2.5303,2.5303,2.5303,2.5243,2.5222,2.5222,2.5061,2.4981,2.4981,2.4923,2.4923,2.4981,2.4923,2.5031,2.5212,2.503,2.5096,2.5303,2.5182,2.5138,2.5115,2.5113,2.4972,2.4821,0.0,0.4097,0.4042,0.4009,0.4158,0.4313,0.4342,0.4655,0.5027,0.5399,0.5705,0.5842,0.5721,0.5708,0.5726,0.5793,0.5933,0.6025,0.6086,0.629,0.6366,0.6295,0.6483,0.6582,0.654,0.6778,0.6944,0.7042,0.7282,0.753,0.7768,0.7911,0.8149,0.846,0.8533,0.8604,0.8705,0.0,0.9279,1.0038,1.1533,0.0,1.4324,1.5034,1.5633,1.6062,1.577,1.5531,1.5419,1.5573,1.6199,0.0,0.0,1.6064,1.6489,0.0,1.4718,1.5141,1.3922,0.0,0.0,1.53,0.0,0.0,0.0,1.5882,1.6054,1.7637,1.8371,1.9267,2.0991,2.1751,2.2113,2.2183,2.3276,2.4011,2.3728,2.4826,2.5666,2.5703,2.5703,2.5701,2.5693,2.5691,2.563,2.5506,2.5376,2.5303,2.5303,2.5303,2.5303,2.5303,2.5303,2.5274,2.5253,2.5222,2.516,2.5061,2.4956,2.4891,2.4855,2.4818,2.4832,2.4855,2.4799,2.4888,2.4987,2.4896,2.4936,2.5037,2.5091,2.5061,2.5,2.4993,2.4861,2.466,0.0,0.4248,0.4112,0.4063,0.4199,0.4333,0.4382,0.4664,0.5092,0.5701,0.6079,0.6159,0.5834,0.5811,0.5861,0.5959,0.601,0.6068,0.6195,0.6248,0.6242,0.6177,0.639,0.6483,0.6401,0.6676,0.6861,0.6927,0.7171,0.7407,0.765,0.7812,0.8053,0.8396,0.8521,0.0,0.0,0.0,0.0,0.9831,0.0,1.392,1.4618,1.5787,1.6285,1.6362,1.593,1.622,1.6675,1.5923,1.6905,1.82,1.6776,1.7881,0.0,0.0,0.0,0.0,0.0,0.0,0.0,0.0,0.0,1.5364,0.0,0.0,0.0,1.6779,1.7718,0.0,0.0,0.0,0.0,2.1864,0.0,0.0,0.0,2.3558,0.0,2.4961,2.5254,2.5446,2.5453,2.543,2.5445,2.5492,2.5232,2.5139,2.5284,2.5303,2.5303,2.5303,2.5303,2.5264,2.5192,2.5182,2.5084,2.4891,2.4864,2.4799,2.4716,2.47,2.47,2.4716,2.47,2.4716,2.4775,2.4731,2.4746,2.479,2.4949,2.4962,2.485,2.4851,2.4692,2.4495,0.4581,0.463,0.4541,0.4313,0.4342,0.4362,0.4313,0.4552,0.4968,0.5633,0.6241,0.6616,0.6588,0.6578,0.6588,0.6611,0.6294,0.6118,0.6191,0.5993,0.5922,0.6007,0.6159,0.629,0.6401,0.6493,0.6714,0.7075,0.7171,0.7407,0.7768,0.7797,0.8027,0.8411,0.8409,0.0,0.0,0.0,1.0393,0.0,1.3389,1.2778,0.0,1.4515,1.5593,1.5818,1.6558,1.7882,1.917,0.0,1.9612,2.1282,0.0,2.019,2.0602,1.9427,0.0,0.0,0.0,0.0,0.0,0.0,1.8844,0.0,0.0,0.0,1.788,1.6664,0.0,0.0,0.0,0.0,0.0,0.0,0.0,0.0,2.0656,2.208,2.2968,2.2323,2.3613,2.4551,2.455,2.4446,2.4682,2.5449,2.4722,2.4543,2.5264,2.5303,2.5303,2.5303,2.5303,2.5264,2.5192,2.5149,2.5043,2.4898,2.4723,2.4564,2.4429,2.4321,2.4321,2.4429,2.4321,2.4428,2.4707,2.4532,2.4547,2.4704,2.4734,2.4734,2.4723,2.4645,2.4549,2.4411,0.4524,0.4524,0.0,0.4313,0.4313,0.4321,0.426,0.5002,0.5676,0.596,0.6622,0.6941,0.0,0.0,0.0,0.0,0.0,0.6386,0.0,0.0,0.6109,0.5889,0.6086,0.6183,0.6177,0.6383,0.6579,0.6748,0.7045,0.7282,0.7453,0.7694,0.7913,0.8139,0.8724,0.0,0.9789,0.0,1.0602,0.0,0.0,0.0,0.0,1.5353,1.6778,1.6965,1.8073,1.8934,1.9542,0.0,2.0502,0.0,0.0,0.0,0.0,2.1112,0.0,0.0,0.0,0.0,0.0,0.0,0.0,0.0,1.6527,0.0,1.661,0.0,0.0,0.0,0.0,0.0,0.0,0.0,1.9388,0.0,0.0,0.0,2.2053,2.1831,0.0,2.3086,2.3594,2.4028,2.4607,2.5444,2.4621,2.4445,2.5255,2.5303,2.5303,2.5303,2.5303,2.5264,2.5192,2.5138,2.4994,2.4783,2.4645,2.4498,2.4284,2.4246,2.4228,2.4284,2.4209,2.4284,2.4411,2.4229,2.4229,2.4302,2.4211,2.4265,2.4409,2.4374,2.4229,2.4057,0.0,0.0,0.0,0.4403,0.4333,0.4293,0.4335,0.5368,0.6185,0.6272,0.6946,0.0,0.7273,0.7154,0.0,0.0,0.7146,0.688,0.0,0.0,0.6296,0.6069,0.6113,0.6137,0.6136,0.6325,0.6441,0.651,0.6848,0.7061,0.7203,0.753,0.7768,0.7941,0.8907,0.9581,1.0034,0.0,1.0949,1.1185,1.2542,1.3188,1.3617,1.62,1.7557,1.8212,1.9068,1.9668,2.002,1.9935,2.0995,2.2281,2.1568,2.2425,2.3482,0.0,0.0,0.0,2.1039,0.0,0.0,0.0,0.0,0.0,0.0,0.0,0.0,0.0,0.0,0.0,0.0,0.0,1.8592,1.8417,0.0,1.9715,0.0,1.9194,0.0,0.0,0.0,0.0,2.1992,2.2576,2.3332,2.4405,2.3608,2.3617,2.4899,2.4976,2.5082,2.5284,2.5303,2.5264,2.5192,2.5138,2.4981,2.4707,2.4629,2.4464,2.419,2.419,2.419,2.419,2.417,2.4151,2.4133,2.3996,2.3955,2.3955,2.3837,2.3899,2.4057,2.4078,2.3959,2.3816,0.4244,0.4313,0.0,0.0,0.4419,0.4306,0.4647,0.5442,0.6113,0.6448,0.0,0.0,0.0,0.0,0.0,0.0,0.0,0.7705,0.7849,0.0,0.6281,0.6647,0.6247,0.6158,0.0,0.6291,0.6295,0.651,0.651,0.6765,0.7203,0.7345,0.7576,0.7941,0.8743,0.9733,1.0758,1.0777,1.1775,1.3379,1.4195,1.593,1.7828,0.0,1.7185,1.9064,1.9098,2.0093,2.1325,2.0625,2.15,2.2753,2.2142,2.2411,2.301,0.0,0.0,0.0,2.3757,2.3951,2.3361,2.0391,1.9582,1.8728,1.564,1.6168,1.7349,0.0,0.0,0.0,2.0133,2.0765,2.1024,2.0257,2.0822,0.0,0.0,0.0,0.0,0.0,0.0,0.0,0.0,1.9394,2.0073,2.1792,2.0985,2.151,2.4015,2.4149,2.4505,2.5284,2.5303,2.5264,2.5192,2.5138,2.4981,2.4707,2.4629,2.4464,2.419,2.419,2.419,2.419,2.4074,2.3996,2.3996,2.3858,2.3816,2.3816,2.3795,2.3771,2.3703,2.3792,2.3816,2.3795,0.0,0.0,0.0,0.0,0.0,0.4377,0.4957,0.5762,0.6547,0.0,0.0,0.0,0.0,0.8877,0.8906,0.0,0.0,0.8638,0.8318,0.7869,0.0,0.0,0.0,0.664,0.0,0.6453,0.641,0.6177,0.6401,0.663,0.6874,0.7235,0.7514,0.7768,0.0,1.0446,0.0,0.0,0.0,0.0,0.0,1.6809,1.8814,1.7773,1.8104,1.9166,1.9696,2.0565,2.1464,2.1799,2.2306,2.2738,2.2513,2.2675,2.301,2.3164,2.3271,2.3392,2.357,2.3777,2.3468,2.1471,2.0172,1.8879,1.6885,1.6959,1.7482,1.7507,0.0,0.0,2.026,2.0491,2.0203,1.8789,1.9265,1.8941,0.0,0.0,0.0,0.0,0.0,0.0,0.0,0.0,2.0585,2.1715,2.1973,2.2671,2.4024,2.4659,2.5063,2.5284,2.5303,2.5303,2.5264,2.516,2.4987,2.476,2.466,2.4464,2.419,2.419,2.4151,2.4074,2.4016,2.3937,2.3876,2.3789,2.3725,2.3725,2.3638,2.3589,2.3567,2.3682,2.3682,2.3611,0.3703,0.0,0.0,0.0,0.0,0.0,0.5124,0.6062,0.0,0.0,0.8187,0.0,0.9395,0.0,0.9346,0.0,0.9501,0.9213,0.8785,0.8542,0.0,0.7599,0.7434,0.0,0.0,0.6903,0.6808,0.6427,0.6645,0.6762,0.6774,0.7123,0.7407,0.7663,0.0,1.0585,1.1416,0.0,1.3252,0.0,0.0,1.7883,0.0,1.9291,1.9502,2.0041,2.0506,2.1174,2.1875,2.2371,2.2579,2.2632,2.2632,2.2721,2.2833,2.2884,2.2993,2.3105,2.3289,2.3468,2.3286,2.1934,2.084,1.9617,1.7647,1.82,1.8993,1.8469,2.0279,2.2,2.2028,2.1564,2.0716,1.9273,1.9025,1.8236,0.0,1.5765,0.0,0.0,0.0,0.0,0.0,0.0,1.8887,2.0332,2.0623,2.1606,2.3605,2.4221,2.4755,2.5331,2.5303,2.5303,2.5303,2.5182,2.5037,2.4828,2.4704,2.4515,2.4266,2.4209,2.4151,2.4074,2.4016,2.3917,2.3795,2.3725,2.3678,2.3611,2.3539,2.3494,2.3517,2.3607,2.3567,2.3494,0.0,0.0,0.0,0.0,0.4556,0.0,0.0,0.0,0.7208,0.0,0.8445,0.9314,1.0186,0.9904,0.9972,1.077,1.0089,0.9528,0.9273,0.8855,0.0,0.0,0.7787,0.7739,0.7805,0.7594,0.7399,0.0,0.0,0.7069,0.6878,0.7026,0.7282,0.7663,0.9282,0.0,1.0639,1.223,1.3477,1.4649,1.7226,1.9142,2.0442,2.0859,2.1266,2.1606,2.1473,2.1892,2.2487,2.2349,2.2377,2.2487,2.2487,2.2487,2.2515,2.2632,2.2579,2.2596,2.3028,2.3168,2.2941,2.1929,2.1625,2.0857,1.8048,1.9833,2.169,2.0316,2.2676,2.5031,2.5118,2.389,2.2524,2.1543,1.993,1.8275,1.6755,0.0,0.0,0.0,0.0,0.0,0.0,0.0,1.5254,1.7754,1.7187,0.0,0.0,2.2914,2.3647,2.5277,2.5312,2.5293,2.5303,2.5233,2.5096,2.4898,2.4775,2.4596,2.4412,2.4266,2.419,2.417,2.4054,2.3917,2.3795,2.3725,2.3611,2.3494,2.3494,2.3494,2.3494,2.3494,2.3494,2.3494,0.3612,0.4142,0.4615,0.0,0.4962,0.5203,0.0,0.0,0.0,0.0,0.8712,0.9379,0.9926,1.0077,1.0096,1.0101,1.0234,0.0,0.0,0.0,0.0,0.8767,0.8918,0.8628,0.78,0.7451,0.7202,0.7047,0.0,0.0,0.6613,0.6944,0.7219,0.0,0.0,0.0,1.131,1.2387,1.4093,1.6302,1.8602,1.9884,2.0539,2.1912,2.2289,2.2018,2.1773,2.2047,2.2487,2.246,2.2422,2.2366,2.2366,2.2366,2.2366,2.2377,2.246,2.2542,2.2632,2.2842,2.294,2.2822,2.2046,2.1167,2.0601,2.1285,2.1957,2.1719,2.3404,2.4791,2.4312,2.3896,2.2738,2.0084,1.7697,1.6047,0.0,0.0,0.0,1.6514,0.0,0.0,0.0,0.0,1.6309,1.6973,1.8001,1.9602,2.1919,2.2629,2.3429,2.4407,2.505,2.535,2.5303,2.5233,2.5118,2.4974,2.4888,2.4723,2.4479,2.4375,2.4228,2.4054,2.4016,2.3894,2.3725,2.3721,2.3611,2.3494,2.3494,2.3494,2.3494,2.3494,2.3494,2.3494,0.3753,0.0,0.0,0.5331,0.0,0.0,0.6003,0.6513,0.0,0.8136,0.8718,0.0,0.9744,0.9853,0.9917,0.9993,1.0427,0.0,1.0554,0.0,0.0,1.0067,0.9912,0.954,0.8868,0.829,0.0,0.7393,0.0,0.7007,0.6591,0.6811,0.0,0.0,0.0,1.0152,1.1029,1.2627,1.4771,1.7204,1.8585,2.0021,0.0,2.231,2.2664,2.2713,2.2615,2.268,2.2764,2.2569,2.246,2.2394,2.231,2.231,2.231,2.231,2.2349,2.2432,2.2487,2.2659,2.2876,2.3206,2.2745,2.2154,2.1771,2.2365,2.2861,2.2279,2.3583,2.4723,2.4409,2.3507,2.1732,1.8446,1.6694,0.0,0.0,0.0,0.0,0.0,1.618,0.0,0.0,1.5498,1.5565,1.5566,1.7171,1.8899,2.0565,2.2139,2.3353,2.4157,2.4949,2.5339,2.534,2.5214,2.5118,2.5041,2.4888,2.4753,2.4629,2.4411,2.4247,2.4171,2.4056,2.3915,2.3747,2.3721,2.3611,2.3494,2.3494,2.3494,2.3494,2.3494,2.3494,2.3494,0.4011,0.0,0.0,0.0,0.0,0.0,0.0,0.695,0.0,0.8219,0.0,0.9035,0.9587,0.947,0.9626,1.0205,0.0,1.0902,1.1046,1.1871,1.2027,1.1378,1.0793,1.0403,1.02,0.9401,0.863,0.0,0.8069,0.7646,0.6685,0.6672,0.0,0.0,0.0,0.0,0.0,1.3035,1.5395,1.7455,1.7991,1.988,2.2324,2.2253,2.2617,2.3264,2.35,2.3399,2.3144,2.2738,2.2569,2.2487,2.2349,2.231,2.231,2.231,2.231,2.2338,2.2432,2.2569,2.2773,2.3177,2.3432,2.3292,2.2246,2.3198,2.3933,2.2576,2.3568,2.4708,2.4723,2.2917,2.0448,1.7472,0.0,0.0,0.0,0.0,0.0,0.0,0.0,0.0,0.0,0.0,0.0,0.0,1.5665,1.7338,1.9194,2.1448,2.3115,2.4097,2.4884,2.5348,2.5393,2.5203,2.5096,2.5103,2.4851,2.4757,2.4757,2.4412,2.4284,2.4358,2.4095,2.3917,2.3795,2.3725,2.3611,2.3494,2.3471,2.3471,2.3471,2.3448,2.3407,2.3383,0.0,0.0,0.0,0.0,0.0,0.7293,0.7486,0.7392,0.7658,0.8666,0.8845,0.9015,0.94,0.9664,0.9882,1.0058,1.0606,0.0,0.0,0.0,0.0,1.168,1.1464,1.0989,1.0211,0.935,0.8581,0.79,0.7559,0.713,0.6616,0.6557,0.6697,0.0,0.0,0.0,1.1343,1.3673,0.0,1.6634,1.8659,1.985,2.0552,2.2216,2.2582,2.2346,2.3158,2.3319,2.3193,2.3119,2.2816,2.2487,2.246,2.2377,2.231,2.231,2.231,2.231,2.2338,2.2432,2.2552,2.2642,2.3049,2.3365,2.3163,2.3741,2.4229,2.3933,2.4275,2.4451,2.3939,2.2541,2.1084,1.9831,1.8434,0.0,0.0,0.0,0.0,0.0,0.0,1.6004,0.0,0.0,0.0,0.0,0.0,1.6689,1.9094,2.0315,2.1612,2.3106,2.4597,2.5354,2.5311,2.5173,2.5096,2.5103,2.4947,2.4813,2.4707,2.4464,2.4321,2.4228,2.4074,2.3917,2.3795,2.3725,2.3611,2.3494,2.3313,2.3265,2.3241,2.307,2.302,2.3003,0.0,0.0,0.0,0.0,0.0,0.0,0.0,0.7879,0.8149,0.8715,0.8543,0.859,0.9258,0.9196,0.9425,1.0197,1.0702,1.1395,1.2242,1.2813,1.3047,1.2899,1.2277,1.1709,1.1267,1.0089,0.9114,0.8361,0.7757,0.7251,0.6865,0.6576,0.6596,0.695,0.0,0.9807,0.0,0.0,1.5193,1.6564,1.8325,1.9827,2.1123,2.1953,2.2408,2.2688,2.3218,2.336,2.3265,2.3102,2.2876,2.2685,2.2525,2.246,2.2377,2.231,2.231,2.231,2.231,2.2405,2.2525,2.2598,2.3007,2.3414,2.3522,2.3941,2.4284,2.4284,2.4445,2.4401,2.3709,2.2756,2.1656,2.0346,1.9118,0.0,0.0,0.0,0.0,0.0,0.0,0.0,0.0,0.0,0.0,0.0,0.0,1.6131,1.78,1.9556,2.1251,2.2893,2.4121,2.4927,2.5348,2.519,2.5099,2.5103,2.4865,2.4723,2.4642,2.4393,2.4247,2.419,2.3978,2.3876,2.3795,2.3638,2.3499,2.3336,2.3241,2.3144,2.3028,2.2944,2.2842,2.2764,0.0,0.6653,0.0,0.0,0.7334,0.7489,0.7788,0.8157,0.851,0.8717,0.8278,0.8262,0.9042,0.8808,0.9033,1.0221,1.0731,1.1416,1.2398,1.2979,1.3362,1.3668,1.2754,1.2182,1.2082,1.0959,0.9864,0.8844,0.8288,0.7702,0.7015,0.6794,0.6888,0.7345,0.9091,1.0427,1.149,1.354,1.5294,1.6779,1.8006,1.9789,2.1754,2.1772,2.233,2.3119,2.3241,2.3313,2.3289,2.2995,2.2893,2.2816,2.2596,2.2487,2.2432,2.2338,2.231,2.231,2.231,2.2394,2.2497,2.2599,2.2996,2.3414,2.3588,2.3979,2.4303,2.4284,2.4315,2.408,2.3224,2.2814,2.2083,2.0524,1.9631,0.0,0.0,0.0,0.0,0.0,0.0,0.0,1.565,0.0,0.0,0.0,0.0,1.5859,1.6914,1.9049,2.1003,2.2693,2.3624,2.4424,2.5112,2.5111,2.5076,2.5056,2.4716,2.4545,2.451,2.4247,2.4114,2.4097,2.3896,2.3753,2.3728,2.3522,2.3336,2.3193,2.3119,2.2995,2.2842,2.279,2.2659,2.2542,0.0,0.0,0.0,0.0,0.0,0.7743,0.7934,0.8052,0.8319,0.8806,0.8615,0.8494,0.8632,0.8882,0.9251,0.9727,1.0578,1.1364,1.2006,1.2092,1.2267,1.256,1.2363,1.2104,1.1687,1.1654,1.0756,0.0,0.0,0.833,0.6755,0.7329,0.7885,0.8523,1.0508,1.1587,1.2074,1.4394,1.5993,1.7102,1.8539,1.9743,2.078,2.1949,2.2537,2.2764,2.2893,2.3003,2.3102,2.2944,2.2816,2.2685,2.2542,2.2422,2.231,2.231,2.231,2.231,2.231,2.231,2.2349,2.2487,2.2875,2.3277,2.3392,2.3881,2.4284,2.4228,2.3834,2.3078,2.1595,2.203,2.2299,2.1336,2.0459,2.0135,0.0,0.0,0.0,0.0,0.0,0.0,0.0,1.369,0.0,0.0,1.5311,1.6133,1.7793,1.8847,2.0187,2.1864,2.334,2.4134,2.4219,2.4804,2.5044,2.4912,2.4591,2.4355,2.4229,2.3959,2.3837,2.3837,2.3747,2.3634,2.3499,2.3313,2.3217,2.3168,2.2816,2.2632,2.2623,2.2432,2.2338,2.2338,0.0,0.0,0.7148,0.7802,0.7574,0.7532,0.8261,0.843,0.8518,0.8716,0.8591,0.8663,0.9081,0.8898,0.9081,0.9865,1.0262,1.0871,1.1783,1.1801,1.194,1.2169,1.2029,1.1846,1.1652,1.1514,1.0993,1.0153,0.9344,0.8701,0.8185,0.8111,0.8911,1.0442,1.1328,1.2221,1.3206,1.5115,1.6416,1.7322,1.8963,2.0067,2.0841,2.1749,2.2181,2.2364,2.2668,2.2816,2.2842,2.2712,2.2738,2.2747,2.2381,2.2315,2.2377,2.2118,2.2163,2.231,2.231,2.231,2.2338,2.246,2.279,2.3129,2.3346,2.384,2.4247,2.4266,2.3797,2.3057,2.1915,2.1702,2.1566,2.1178,2.0456,2.005,2.0354,0.0,0.0,0.0,0.0,0.0,0.0,0.0,0.0,0.0,0.0,1.4081,1.6322,1.7275,1.873,2.0893,2.257,2.3655,2.4107,2.4802,2.5068,2.4896,2.4554,2.4284,2.4059,2.3899,2.371,2.3576,2.3531,2.3365,2.3126,2.3052,2.2944,2.2816,2.2659,2.2453,2.2243,2.2293,2.218,2.202,0.7015,0.6918,0.7131,0.8129,0.775,0.7562,0.8371,0.8554,0.8618,0.8673,0.8612,0.8736,0.9212,0.8919,0.9059,0.9882,1.0017,1.0433,1.1309,1.1326,1.141,1.1534,1.156,1.1527,1.1513,1.1528,1.1306,1.0935,1.0022,0.9524,0.9382,0.9131,0.9933,1.1653,1.2348,1.3236,1.4315,1.6005,1.7046,1.7725,1.9276,2.0212,2.0747,2.1413,2.1803,2.2051,2.2409,2.2588,2.2659,2.2453,2.2561,2.2712,2.2298,2.2215,2.2287,2.2089,2.2135,2.231,2.231,2.231,2.2338,2.246,2.2747,2.3067,2.3289,2.3735,2.4025,2.3676,2.3262,2.2651,2.1592,2.1009,2.0678,2.0646,2.0195,1.983,1.9782,1.8832,0.0,0.0,1.7636,1.715,1.7808,1.6348,0.0,0.0,0.0,1.4085,1.6382,1.6873,1.8115,2.0367,2.1859,2.2979,2.3777,2.4466,2.4851,2.4866,2.45,2.4192,2.3941,2.3774,2.3576,2.3342,2.3342,2.3199,2.2952,2.2782,2.2677,2.2571,2.2426,2.2186,2.194,2.2003,2.1932,2.1781,0.72,0.7296,0.7481,0.82,0.8058,0.7963,0.8247,0.8372,0.8514,0.8756,0.8742,0.8679,0.8721,0.9004,0.9286,0.9604,0.9852,1.0154,1.047,1.0522,1.0522,1.0522,1.0922,1.1124,1.1116,1.1859,1.1864,1.1008,1.1499,1.1084,0.98,1.0386,1.1046,1.1783,1.3779,1.4853,1.5324,1.7181,1.8094,1.8394,1.9456,2.0019,2.0277,2.1039,2.1521,2.1816,2.2022,2.2364,2.2659,2.2254,2.2271,2.2487,2.2338,2.2106,2.1957,2.2209,2.231,2.231,2.231,2.231,2.2338,2.246,2.2747,2.3035,2.3175,2.3576,2.354,2.2204,2.1922,2.1472,1.9996,1.9718,1.9731,1.9795,1.9757,1.9699,1.9699,1.9804,0.0,1.8694,1.8114,1.7783,1.7794,1.63,0.0,0.0,0.0,1.7299,1.9068,1.8406,1.8768,2.0448,2.1288,2.2126,2.3009,2.3615,2.4197,2.4809,2.4379,2.4061,2.3795,2.3594,2.3383,2.3217,2.3217,2.3193,2.3151,2.2546,2.2422,2.2556,2.2027,2.1827,2.1751,2.1509,2.157,2.1751,0.7083,0.7279,0.7565,0.8501,0.8414,0.8346,0.8599,0.8662,0.8716,0.8768,0.8961,0.9029,0.9033,0.9076,0.9241,0.9555,0.9828,1.0051,1.0154,1.036,1.0522,1.0522,1.0624,1.0667,1.0667,1.1477,1.1751,1.1499,1.1586,1.1486,1.1126,1.1588,1.2401,1.3529,1.4578,1.5373,1.5994,1.6863,1.7598,1.8147,1.8703,1.9281,1.9788,2.0382,2.0781,2.1039,2.1399,2.1628,2.1748,2.1688,2.1661,2.1617,2.1721,2.1945,2.2106,2.184,2.2003,2.231,2.231,2.231,2.2338,2.246,2.2659,2.2876,2.3144,2.3553,2.3686,2.2866,2.229,2.1588,2.0574,2.001,1.9686,1.9665,1.9692,1.9686,1.9686,1.9233,1.9047,1.9511,1.8868,1.8471,1.8596,1.7599,0.0,0.0,1.6387,1.6221,1.7369,1.8304,1.9059,1.9609,2.1015,2.2145,2.292,2.362,2.426,2.4809,2.4487,2.4118,2.3725,2.3567,2.3313,2.2995,2.2995,2.2919,2.2764,2.2443,2.2426,2.2571,2.2276,2.1991,2.1781,2.1794,2.1645,2.1464,0.7143,0.7359,0.7664,0.8639,0.8657,0.8597,0.8778,0.8804,0.8804,0.8804,0.8962,0.9113,0.9211,0.9146,0.9307,0.971,0.9888,1.0051,1.0154,1.0368,1.0522,1.0522,1.0522,1.0522,1.0522,1.1124,1.1469,1.1469,1.1601,1.1637,1.1687,1.2276,1.3098,1.4047,1.4751,1.55,1.6194,1.6552,1.706,1.776,1.8147,1.8693,1.9295,1.9808,2.0193,2.0548,2.091,2.1134,2.1308,2.1197,2.1198,2.1214,2.1087,2.1401,2.1781,2.1675,2.1945,2.231,2.231,2.231,2.231,2.2405,2.2542,2.2738,2.3119,2.3508,2.364,2.307,2.261,2.1964,2.0804,2.0319,1.9931,1.9483,1.9499,1.9574,1.9513,1.9122,1.9095,0.0,1.9433,1.9069,1.8901,1.872,1.8505,1.8299,1.8194,1.8258,1.8471,1.8619,1.9013,1.9666,2.1053,2.2177,2.2926,2.3644,2.4272,2.479,2.4369,2.4019,2.37,2.3476,2.3217,2.2893,2.2816,2.2668,2.2463,2.226,2.2287,2.2381,2.2192,2.1974,2.1781,2.1735,2.157,2.1419,0.7306,0.7521,0.7788,0.8646,0.8804,0.8804,0.8804,0.8804,0.8804,0.8752,0.8811,0.891,0.9106,0.9159,0.942,0.9895,0.9947,1.0102,1.0419,1.047,1.047,1.0522,1.0522,1.0522,1.0522,1.0871,1.1124,1.1124,1.1528,1.1679,1.1611,1.2503,1.3128,1.3474,1.4417,1.522,1.5901,1.6194,1.6625,1.7199,1.7747,1.8305,1.8822,1.9295,1.9773,2.0246,2.0447,2.078,2.1071,2.0648,2.0812,2.1071,2.0444,2.0597,2.1103,2.1675,2.2032,2.2237,2.2282,2.2282,2.231,2.231,2.2405,2.2605,2.3077,2.3376,2.343,2.2874,2.2865,2.2465,2.082,2.059,2.0328,1.9326,1.9289,1.935,1.9225,1.9423,1.9601,1.9601,1.9781,1.9576,1.8773,1.9543,1.9753,1.8958,2.1258,2.2383,2.1632,1.9417,1.8932,2.0618,2.1461,2.228,2.3072,2.3693,2.4273,2.4796,2.4118,2.3771,2.3721,2.3342,2.3095,2.2893,2.2685,2.249,2.2303,2.2096,2.2056,2.2096,2.1899,2.1827,2.1751,2.1386,2.1402,2.1559,0.7306,0.7521,0.7788,0.8646,0.8804,0.8804,0.8804,0.8804,0.8699,0.8381,0.8593,0.8699,0.848,0.8896,0.9263,0.9368,0.9569,0.9725,0.9829,0.9991,1.0205,1.047,1.0522,1.0522,1.0522,1.0871,1.1267,1.1578,1.1669,1.1674,1.1684,1.2033,1.2454,1.2847,1.3752,1.4376,1.4903,1.5712,1.6238,1.6582,1.7421,1.8068,1.8616,1.9095,1.9354,1.9485,1.9681,1.9681,1.9609,1.9615,1.9864,2.0124,1.998,2.0277,2.0747,2.1055,2.1462,2.1794,2.1957,2.2135,2.231,2.231,2.2405,2.2605,2.3077,2.3247,2.3318,2.3372,2.2851,2.227,2.1855,2.0894,2.0102,1.9885,1.9514,1.9271,1.9331,1.9409,1.9485,1.9597,1.9633,1.9401,1.8688,1.9468,1.9697,1.895,2.0149,2.1113,2.1578,2.103,2.1249,2.236,2.2667,2.3144,2.3902,2.4025,2.4351,2.4874,2.4137,2.3858,2.3901,2.3417,2.3095,2.2893,2.2685,2.249,2.2303,2.226,2.2243,2.2248,2.2203,2.2106,2.194,2.1721,2.1617,2.1559,0.709,0.7252,0.7413,0.8109,0.8215,0.8215,0.8215,0.8215,0.8109,0.7895,0.8268,0.8434,0.8221,0.8692,0.9008,0.9008,0.9361,0.9666,0.9777,0.994,1.0154,1.047,1.0522,1.0522,1.0522,1.0718,1.0922,1.1175,1.1175,1.1226,1.1418,1.1642,1.203,1.2609,1.3236,1.3873,1.4547,1.5277,1.5844,1.6355,1.7173,1.7787,1.8305,1.864,1.8869,1.9035,1.9147,1.9161,1.9101,1.9095,1.9244,1.9479,1.95,1.9752,2.0035,2.0361,2.0942,2.1477,2.1615,2.1869,2.2135,2.2282,2.2405,2.2579,2.2893,2.3095,2.3247,2.3463,2.3155,2.2722,2.2278,2.1596,2.0831,2.0034,1.9813,1.9583,1.9216,1.9301,1.9427,1.946,1.9475,1.955,1.9632,2.0194,2.0432,2.0109,2.0954,2.1707,2.2165,2.2571,2.2868,2.3049,2.3435,2.3848,2.4248,2.4416,2.4651,2.4884,2.4284,2.3999,2.3983,2.3405,2.3052,2.2893,2.249,2.2254,2.2164,2.2158,2.2158,2.2181,2.2248,2.2237,2.2118,2.1886,2.1768,2.1648,0.6825,0.6879,0.7041,0.7413,0.7521,0.7521,0.7521,0.7521,0.7467,0.7413,0.7788,0.8062,0.8008,0.8434,0.8699,0.8699,0.9159,0.9621,0.994,0.9947,1.0102,1.047,1.0522,1.0522,1.0522,1.0522,1.0522,1.0522,1.0522,1.0667,1.1023,1.1158,1.1642,1.2374,1.2716,1.3389,1.4305,1.4869,1.5534,1.6238,1.6892,1.7475,1.7988,1.8187,1.8461,1.8707,1.8707,1.8822,1.8912,1.8707,1.8784,1.8974,1.9072,1.9132,1.9281,1.9762,2.0462,2.1119,2.1182,2.1493,2.1869,2.2106,2.2248,2.2388,2.2535,2.2825,2.306,2.3199,2.3353,2.3213,2.2415,2.2313,2.1804,2.017,2.0241,2.0154,1.9142,1.9319,1.9512,1.9353,1.938,1.9754,2.065,2.0914,2.1158,2.1481,2.225,2.2829,2.3081,2.3811,2.3989,2.3486,2.4134,2.4491,2.4489,2.4829,2.4974,2.4879,2.4424,2.4154,2.3983,2.3405,2.306,2.2902,2.2337,2.2084,2.2039,2.2056,2.2027,2.2027,2.2237,2.231,2.2254,2.1945,2.1827,2.1768,0.6825,0.6879,0.7041,0.7413,0.7521,0.7521,0.7521,0.7521,0.7359,0.7036,0.7359,0.7467,0.7149,0.7794,0.8275,0.8275,0.8699,0.9113,0.9621,0.9666,0.9932,1.047,1.0522,1.0522,1.0522,1.0522,1.0522,1.0522,1.0522,1.0522,1.0565,1.0616,1.0863,1.136,1.1931,1.256,1.3304,1.4582,1.5277,1.568,1.6607,1.7282,1.7747,1.7948,1.8187,1.8383,1.8383,1.824,1.8069,1.8029,1.8214,1.8422,1.8422,1.8793,1.9207,1.9281,1.9732,2.0289,2.063,2.1039,2.1432,2.1584,2.1645,2.1705,2.1899,2.2113,2.232,2.2439,2.2686,2.279,2.2643,2.2317,2.1812,2.0998,2.113,2.0877,1.9653,1.9976,2.0142,1.9615,1.9456,1.9546,1.9932,2.0112,2.0556,2.1423,2.1731,2.2494,2.3909,2.4175,2.4581,2.5186,2.5325,2.5377,2.5311,2.5109,2.4974,2.4891,2.4487,2.4192,2.4001,2.3558,2.3295,2.3144,2.2712,2.2409,2.2248,2.2231,2.2147,2.2027,2.2237,2.231,2.2265,2.2044,2.1899,2.1797,0.6282,0.6445,0.6554,0.6771,0.6825,0.6825,0.6825,0.6825,0.6717,0.6554,0.6933,0.709,0.6933,0.7473,0.7949,0.8168,0.8381,0.8745,0.9361,0.951,0.9718,0.9991,1.0154,1.0146,1.0043,1.0043,1.0043,1.0043,1.0043,1.0095,1.0205,1.0205,1.0565,1.1124,1.141,1.2089,1.3064,1.3909,1.4617,1.5277,1.6194,1.671,1.6993,1.7421,1.7639,1.772,1.772,1.7639,1.7529,1.7529,1.7611,1.776,1.7908,1.8173,1.8447,1.8717,1.9384,2.0096,2.0496,2.0828,2.115,2.1339,2.1462,2.1554,2.1751,2.1869,2.2027,2.2248,2.2456,2.266,2.2927,2.2852,2.2549,2.1962,2.2018,2.168,2.0329,2.0482,2.0466,1.9782,1.9732,1.9948,2.056,2.0728,2.102,2.156,2.2101,2.2749,2.3551,2.4058,2.4712,2.5622,2.5641,2.5593,2.551,2.532,2.5154,2.4993,2.4663,2.4371,2.4099,2.3653,2.3353,2.3168,2.2677,2.2446,2.2446,2.2231,2.2147,2.2163,2.2265,2.231,2.2282,2.2073,2.1928,2.1797,0.5681,0.5845,0.6005,0.6005,0.6005,0.6005,0.6005,0.6064,0.6123,0.6123,0.65,0.6717,0.6717,0.709,0.7521,0.7842,0.8002,0.8268,0.8791,0.9145,0.9458,0.9614,0.9777,0.9836,0.9614,0.9614,0.9614,0.9614,0.9614,0.9725,0.9999,0.9999,1.036,1.0972,1.1074,1.1751,1.2909,1.3379,1.4097,1.4994,1.5876,1.6269,1.6355,1.6934,1.7157,1.7199,1.7199,1.7199,1.7199,1.7199,1.7199,1.724,1.7516,1.7639,1.7787,1.8187,1.8997,1.9818,2.0224,2.053,2.0763,2.1055,2.1197,2.1308,2.1509,2.1661,2.1794,2.2051,2.2368,2.273,2.3109,2.3371,2.3347,2.2743,2.29,2.2594,2.1189,2.1239,2.118,2.0512,2.0327,2.0622,2.1569,2.1575,2.166,2.1972,2.2646,2.314,2.3392,2.3985,2.474,2.5652,2.5671,2.5609,2.5499,2.5406,2.5255,2.5049,2.4804,2.4526,2.4192,2.3762,2.3491,2.3289,2.2747,2.2581,2.2632,2.2298,2.2203,2.231,2.231,2.231,2.2282,2.2118,2.1986,2.184,0.5336,0.5336,0.5391,0.5391,0.5391,0.5391,0.5391,0.5622,0.585,0.585,0.6069,0.6232,0.6232,0.6663,0.6933,0.6987,0.7359,0.7574,0.7628,0.8309,0.8935,0.9562,0.9614,0.9614,0.9614,0.9614,0.9614,0.9614,0.9614,0.9725,0.9999,0.9999,1.0205,1.0573,1.0922,1.1601,1.2511,1.3283,1.4097,1.4949,1.5724,1.6107,1.6367,1.6778,1.7044,1.7199,1.7199,1.7199,1.7199,1.7199,1.7199,1.7199,1.724,1.7434,1.772,1.776,1.8316,1.908,1.9479,1.9833,2.0166,2.0494,2.0561,2.0628,2.0827,2.1214,2.1524,2.1538,2.2303,2.2975,2.3087,2.3552,2.3746,2.3159,2.3745,2.3791,2.2374,2.2678,2.2854,2.2367,2.1547,2.1456,2.2588,2.2018,2.1965,2.283,2.3026,2.3455,2.4256,2.4354,2.4778,2.5581,2.555,2.5506,2.5499,2.5312,2.5118,2.4898,2.476,2.4528,2.4192,2.3919,2.3728,2.3656,2.3295,2.3028,2.2868,2.2659,2.246,2.231,2.231,2.231,2.231,2.2282,2.2147,2.1998,0.5062,0.512,0.5175,0.5281,0.5226,0.523,0.5281,0.5395,0.5563,0.5795,0.5905,0.5959,0.5959,0.6123,0.6337,0.6549,0.6712,0.7031,0.7467,0.7783,0.8362,0.9309,0.9211,0.9113,0.9113,0.9113,0.9113,0.9113,0.9113,0.9263,0.9524,0.9673,0.9888,1.0205,1.0565,1.125,1.2159,1.2657,1.3437,1.4419,1.504,1.549,1.5844,1.6207,1.6522,1.6778,1.6778,1.6778,1.6778,1.6778,1.6778,1.6778,1.6778,1.685,1.6976,1.7157,1.7908,1.8693,1.8846,1.942,2.0076,2.0304,2.0545,2.0811,2.1006,2.1293,2.1568,2.1807,2.2341,2.289,2.3323,2.372,2.3988,2.3912,2.4253,2.4179,2.3248,2.3383,2.3366,2.2806,2.243,2.2406,2.2881,2.2688,2.2674,2.304,2.3593,2.4025,2.4321,2.4856,2.5309,2.5639,2.5556,2.5478,2.5441,2.5321,2.5184,2.5018,2.4893,2.4689,2.4442,2.4173,2.3979,2.3858,2.3486,2.3295,2.3199,2.2902,2.2738,2.2659,2.2525,2.2487,2.246,2.2338,2.2163,2.1998,0.4577,0.4736,0.4959,0.5007,0.4956,0.4959,0.5007,0.5117,0.5285,0.5513,0.5567,0.5622,0.5622,0.5678,0.5823,0.6151,0.6151,0.6396,0.7078,0.7296,0.7757,0.8633,0.8639,0.8593,0.8593,0.8752,0.8804,0.8804,0.8804,0.8956,0.9211,0.9458,0.9725,0.9999,1.0462,1.12,1.2012,1.2307,1.3064,1.4067,1.4547,1.5006,1.5367,1.5724,1.5988,1.6163,1.6163,1.625,1.6349,1.6349,1.6423,1.6522,1.6522,1.6522,1.6565,1.6918,1.7598,1.8305,1.8539,1.9199,1.9919,2.0235,2.0561,2.0877,2.1199,2.1417,2.1718,2.2164,2.2565,2.3045,2.3613,2.3943,2.4211,2.4441,2.4607,2.4524,2.4071,2.4113,2.4044,2.3703,2.3416,2.3403,2.3779,2.3609,2.3592,2.3859,2.4459,2.4788,2.4733,2.5312,2.5639,2.5663,2.5556,2.5464,2.5401,2.5312,2.5205,2.5103,2.4961,2.4827,2.4657,2.4391,2.4211,2.4099,2.378,2.3588,2.3473,2.3242,2.3067,2.2952,2.2799,2.2685,2.2579,2.2432,2.2276,2.2073,0.3934,0.4184,0.4519,0.4519,0.4519,0.4519,0.4522,0.4739,0.4901,0.4901,0.512,0.5281,0.5281,0.5502,0.5612,0.5612,0.5612,0.5806,0.6293,0.6876,0.7277,0.7478,0.7955,0.8221,0.8221,0.8593,0.8804,0.8804,0.8804,0.8956,0.9211,0.9458,0.9725,1.0051,1.0769,1.1451,1.2012,1.2414,1.316,1.402,1.4373,1.4686,1.4949,1.5322,1.5513,1.5513,1.5513,1.5724,1.5988,1.5988,1.6219,1.6479,1.6522,1.6522,1.6607,1.7073,1.7434,1.7868,1.8592,1.9147,1.9639,2.0166,2.0392,2.0646,2.1261,2.1601,2.194,2.2485,2.3021,2.3526,2.3923,2.4211,2.4476,2.4676,2.4813,2.4898,2.4898,2.4961,2.5072,2.5274,2.4532,2.4428,2.5492,2.4818,2.4671,2.5539,2.5658,2.5703,2.5693,2.5703,2.5663,2.5604,2.5538,2.5471,2.5401,2.5264,2.5171,2.5096,2.4961,2.4875,2.4791,2.4545,2.4407,2.4389,2.4264,2.4005,2.3705,2.3705,2.3482,2.3109,2.3091,2.2884,2.2605,2.2605,2.2487,2.231,0.3766,0.3907,0.416,0.4545,0.4623,0.466,0.4765,0.4841,0.4917,0.5034,0.5238,0.5323,0.5201,0.5342,0.5445,0.5445,0.5334,0.5517,0.6097,0.6333,0.6559,0.6778,0.7394,0.7842,0.8168,0.8002,0.8162,0.8804,0.854,0.854,0.891,0.9361,0.9666,0.9777,1.071,1.1368,1.181,1.2374,1.2909,1.3467,1.3752,1.4176,1.464,1.4731,1.5096,1.5513,1.5513,1.5558,1.5647,1.5647,1.5736,1.5824,1.6076,1.6163,1.625,1.682,1.7462,1.808,1.8461,1.9295,2.008,2.027,2.0561,2.0926,2.154,2.1853,2.2209,2.2892,2.3224,2.3548,2.404,2.4284,2.4476,2.4676,2.4851,2.4974,2.4974,2.5103,2.5253,2.5369,2.5172,2.5182,2.5506,2.5337,2.5335,2.5643,2.5657,2.5641,2.5697,2.5654,2.5639,2.5663,2.5556,2.5506,2.5538,2.5365,2.5255,2.5245,2.5152,2.5084,2.4993,2.4832,2.4738,2.466,2.4441,2.4229,2.404,2.3963,2.378,2.3562,2.3236,2.306,2.291,2.2685,2.2487,2.231,0.3621,0.3773,0.4088,0.4706,0.4731,0.4721,0.4816,0.483,0.4855,0.4933,0.5121,0.5186,0.5026,0.5154,0.5308,0.5308,0.5341,0.5479,0.5682,0.6095,0.6289,0.6306,0.6799,0.7291,0.7687,0.7574,0.7735,0.8268,0.8221,0.8328,0.8593,0.9152,0.9465,0.9465,1.0336,1.1006,1.1519,1.208,1.2667,1.3208,1.3362,1.3695,1.4129,1.4129,1.4455,1.4926,1.4926,1.5062,1.5277,1.5277,1.5457,1.5724,1.5944,1.6163,1.6479,1.7031,1.7625,1.8159,1.864,1.9442,2.015,2.027,2.0595,2.1039,2.1661,2.194,2.2292,2.3035,2.3301,2.3562,2.4097,2.4266,2.4408,2.466,2.4851,2.4961,2.4961,2.5134,2.5283,2.5322,2.5395,2.5472,2.5492,2.5531,2.5607,2.5688,2.564,2.5624,2.5697,2.5668,2.5652,2.5665,2.5585,2.5565,2.5593,2.5478,2.539,2.5337,2.5302,2.5226,2.5143,2.5024,2.4966,2.4908,2.4723,2.4561,2.4426,2.4302,2.4135,2.3919,2.3518,2.3259,2.3084,2.2799,2.2542,2.231,0.3397,0.3811,0.4308,0.4813,0.4823,0.4735,0.4748,0.4752,0.4745,0.4731,0.4863,0.4952,0.4942,0.5064,0.5152,0.5152,0.5528,0.5612,0.5166,0.6022,0.6428,0.6075,0.6356,0.6662,0.6892,0.7242,0.7436,0.7521,0.7919,0.8133,0.8221,0.8844,0.9159,0.9211,0.9917,1.0576,1.12,1.1575,1.2316,1.317,1.3122,1.3314,1.3563,1.3563,1.3716,1.3973,1.3973,1.4326,1.4812,1.4858,1.5311,1.5901,1.5944,1.6392,1.696,1.7516,1.7868,1.8226,1.902,1.9536,1.9909,2.022,2.0561,2.099,2.1631,2.1899,2.2209,2.301,2.3289,2.3571,2.4115,2.4192,2.4302,2.4642,2.4813,2.4884,2.4898,2.5069,2.519,2.5194,2.5322,2.5421,2.5485,2.5518,2.5549,2.5678,2.5629,2.5632,2.569,2.5681,2.5662,2.5616,2.5601,2.5605,2.5607,2.5607,2.5531,2.5422,2.543,2.5354,2.5216,2.5154,2.5115,2.5095,2.505,2.4922,2.4791,2.4647,2.4445,2.4192,2.3899,2.3495,2.3091,2.2952,2.2632,2.231,0.3336,0.3806,0.439,0.4938,0.5057,0.5077,0.5196,0.5216,0.5172,0.505,0.5169,0.522,0.5098,0.522,0.5311,0.5311,0.5294,0.5329,0.5542,0.6037,0.6358,0.6463,0.6832,0.6987,0.6837,0.6778,0.6996,0.7521,0.7439,0.7709,0.8221,0.858,0.889,0.9211,0.9917,1.0576,1.1209,1.1301,1.195,1.292,1.2618,1.2793,1.3266,1.3266,1.3467,1.3668,1.3668,1.3905,1.4244,1.4419,1.4777,1.5175,1.5501,1.5988,1.6582,1.7462,1.8028,1.8539,1.9258,1.9818,2.022,2.0426,2.0628,2.0925,2.1386,2.1764,2.2181,2.2764,2.3164,2.3571,2.4115,2.4116,2.4192,2.4626,2.4716,2.4775,2.4884,2.5069,2.5198,2.5209,2.5322,2.5432,2.5499,2.5557,2.5582,2.5629,2.5615,2.5605,2.5615,2.5622,2.5638,2.5681,2.5634,2.5621,2.5682,2.563,2.5579,2.5557,2.5571,2.5515,2.5432,2.5301,2.5205,2.5096,2.5088,2.4964,2.4791,2.4647,2.4515,2.4284,2.3777,2.341,2.3177,2.296,2.2632,2.2282,0.3537,0.4038,0.4568,0.5162,0.5179,0.5159,0.524,0.525,0.5223,0.5142,0.5267,0.5332,0.525,0.5315,0.5332,0.5257,0.5243,0.5274,0.5389,0.5841,0.6109,0.6148,0.6647,0.6812,0.6556,0.6717,0.6964,0.7146,0.7265,0.7548,0.788,0.8355,0.8667,0.8883,0.932,0.9969,1.0736,1.0736,1.1351,1.2332,1.2076,1.2314,1.2745,1.2745,1.3035,1.342,1.342,1.3668,1.402,1.4291,1.4743,1.5232,1.5412,1.6064,1.6879,1.7503,1.8147,1.8745,1.9221,1.9818,2.0304,2.0407,2.0595,2.0893,2.1214,2.1691,2.2124,2.2485,2.2925,2.3412,2.3919,2.3981,2.4099,2.458,2.4673,2.4734,2.4798,2.4953,2.5057,2.5057,2.5209,2.5361,2.5484,2.5524,2.5577,2.5609,2.5609,2.5587,2.554,2.5576,2.5621,2.5654,2.5625,2.5631,2.5699,2.5667,2.5648,2.5656,2.566,2.5604,2.5532,2.5439,2.5301,2.5143,2.5115,2.5019,2.4879,2.4679,2.4566,2.4446,2.386,2.3459,2.3183,2.2985,2.2632,2.2265,0.3692,0.4225,0.4761,0.5296,0.5254,0.5169,0.5169,0.5169,0.5169,0.5169,0.5281,0.5428,0.5428,0.5428,0.5308,0.5051,0.5222,0.5308,0.5179,0.5618,0.5829,0.5683,0.6252,0.65,0.6411,0.6876,0.703,0.6791,0.7245,0.7485,0.7617,0.8109,0.8401,0.8564,0.8622,0.9252,1.0128,1.0015,1.0621,1.1666,1.1545,1.1769,1.2175,1.2274,1.2608,1.3074,1.316,1.3515,1.402,1.4291,1.488,1.5513,1.5513,1.6293,1.7282,1.7598,1.8226,1.886,1.9184,1.9767,2.0304,2.0339,2.0561,2.086,2.1071,2.157,2.201,2.222,2.2669,2.3223,2.3649,2.3801,2.4002,2.4478,2.4596,2.4645,2.4676,2.4798,2.487,2.487,2.5063,2.5273,2.544,2.5483,2.5531,2.5575,2.5587,2.5565,2.5498,2.5542,2.5583,2.5604,2.559,2.5624,2.5701,2.5707,2.5694,2.5701,2.5694,2.5679,2.5617,2.5535,2.5403,2.5226,2.5154,2.508,2.501,2.4726,2.4615,2.4547,2.4039,2.3566,2.3165,2.2867,2.2552,2.2237,0.3692,0.4225,0.4761,0.5296,0.5411,0.5328,0.5328,0.5328,0.5328,0.5328,0.5415,0.5428,0.5428,0.5428,0.5219,0.4734,0.515,0.5418,0.5332,0.5679,0.5881,0.5858,0.6248,0.6567,0.6807,0.6894,0.6922,0.6791,0.7092,0.7573,0.8198,0.7822,0.8041,0.8847,0.841,0.885,0.9903,0.9307,1.0117,1.1616,1.1038,1.1158,1.1828,1.2175,1.2323,1.251,1.3025,1.3515,1.402,1.4291,1.488,1.5513,1.5513,1.6293,1.7282,1.7598,1.8226,1.8898,1.9332,1.9854,2.0339,2.0426,2.0628,2.0794,2.086,2.1355,2.1869,2.2027,2.25,2.306,2.3455,2.3588,2.3783,2.4265,2.4338,2.441,2.4599,2.4689,2.4731,2.4731,2.5005,2.5235,2.5321,2.5422,2.5492,2.5511,2.5515,2.5511,2.5503,2.5455,2.5479,2.5607,2.5605,2.5625,2.5702,2.569,2.5703,2.5707,2.5703,2.5699,2.5675,2.5562,2.5452,2.5363,2.5235,2.5153,2.5076,2.4802,2.4645,2.4566,2.4135,2.3671,2.3117,2.2385,2.2084,2.1998,0.3692,0.4225,0.4761,0.5296,0.5428,0.5428,0.5428,0.5428,0.5428,0.5428,0.5428,0.5292,0.496,0.496,0.496,0.5027,0.5296,0.5428,0.5428,0.5561,0.5627,0.5627,0.5954,0.6218,0.635,0.6683,0.6863,0.6881,0.7218,0.7531,0.7866,0.7747,0.7868,0.8281,0.8147,0.8493,0.9111,0.8819,0.9352,1.0346,1.015,1.0501,1.1167,1.1719,1.2076,1.2421,1.3132,1.3668,1.402,1.4291,1.488,1.5513,1.5513,1.6293,1.724,1.7393,1.7948,1.863,1.8997,1.9551,2.0065,2.0323,2.0595,2.0794,2.0794,2.1151,2.1556,2.184,2.2237,2.2721,2.3236,2.3473,2.3717,2.4061,2.4247,2.4392,2.4478,2.4508,2.4572,2.4682,2.4896,2.5084,2.5235,2.5302,2.5365,2.5445,2.5448,2.5423,2.5397,2.5427,2.5483,2.5534,2.562,2.5664,2.5703,2.5698,2.5698,2.5699,2.5699,2.5699,2.5699,2.5604,2.5499,2.5387,2.5293,2.519,2.5089,2.4903,2.4768,2.4679,2.4266,2.3714,2.3098,2.2527,2.226,2.2118]},{"header":{"parameterUnit":"m.s-1","parameterCategory":1,"la1":30.6,"la2":28.766,"lo1":-90.7593,"lo2":-88.6598,"dy":0.0162,"dx":0.0183,"nx":116,"ny":114,"refTime":"2024-05-27T06:00:00:Z","depth":0,"parameterNumber":3,"parameterNumberName":"V-component_of_WINDS"},"data":[0.0,0.0,0.0,0.0,0.0,0.0,0.0,0.0,0.0,0.0,0.0,0.0,0.0,0.0,0.0,0.0,0.0,0.0,0.0,0.0,0.0,0.0,0.0,0.0,0.0,0.0,0.0,0.0,0.0,0.0,0.0,0.0,0.0,0.0,0.0,0.0,0.0,0.0,0.0,0.0,0.0,0.0,0.0,0.0,0.0,0.0,0.0,0.0,0.0,0.0,0.0,0.0,0.0,0.0,0.0,0.0,0.0,0.0,0.0,0.0,0.0,0.0,0.0,0.0,0.0,0.0,0.0,0.0,0.0,0.0,0.0,0.0,0.0,0.0,0.0,0.0,0.0,0.0,0.0,0.0,0.0,0.0,0.0,0.0,0.0,0.0,0.0,0.0,0.0,0.0,0.0,0.0,0.0,0.0,0.0,0.0,0.0,0.0,0.0,0.0,0.0,0.0,0.0,0.0,0.0,0.0,0.0,0.0,0.0,0.0,0.0,0.0,0.0,0.0,0.0,0.0,0.0,0.0,0.0,0.0,0.0,0.0,0.0,0.0,0.0,0.0,0.0,0.0,0.0,0.0,0.0,0.0,0.0,0.0,0.0,0.0,0.0,0.0,0.0,0.0,0.0,0.0,0.0,0.0,0.0,0.0,0.0,0.0,0.0,0.0,0.0,0.0,0.0,0.0,0.0,0.0,0.0,0.0,0.0,0.0,0.0,0.0,0.0,0.0,0.0,0.0,0.0,0.0,0.0,0.0,0.0,0.0,0.0,0.0,0.0,0.0,0.0,0.0,0.0,0.0,0.0,0.0,0.0,0.0,0.0,0.0,0.0,0.0,0.0,0.0,0.0,0.0,0.0,0.0,0.0,0.0,0.0,0.0,0.0,0.0,0.0,0.0,0.0,0.0,0.0,0.0,0.0,0.0,0.0,0.0,0.0,0.0,0.0,0.0,0.0,0.0,0.0,0.0,0.0,0.0,0.0,0.0,0.0,0.0,0.0,0.0,0.0,0.0,0.0,0.0,0.0,0.0,0.0,0.0,0.0,0.0,0.0,0.0,0.0,0.0,0.0,0.0,0.0,0.0,0.0,0.0,0.0,0.0,0.0,0.0,0.0,0.0,0.0,0.0,0.0,0.0,0.0,0.0,0.0,0.0,0.0,0.0,0.0,0.0,0.0,0.0,0.0,0.0,0.0,0.0,0.0,0.0,0.0,0.0,0.0,0.0,0.0,0.0,0.0,0.0,0.0,0.0,0.0,0.0,0.0,0.0,0.0,0.0,0.0,0.0,0.0,0.0,0.0,0.0,0.0,0.0,0.0,0.0,0.0,0.0,0.0,0.0,0.0,0.0,0.0,0.0,0.0,0.0,0.0,0.0,0.0,0.0,0.0,0.0,0.0,0.0,0.0,0.0,0.0,0.0,0.0,0.0,0.0,0.0,0.0,0.0,0.0,0.0,0.0,0.0,0.0,0.0,0.0,0.0,0.0,0.0,0.0,0.0,0.0,0.0,0.0,0.0,0.0,0.0,0.0,0.0,0.0,0.0,0.0,0.0,0.0,0.0,0.0,0.0,0.0,0.0,0.0,0.0,0.0,0.0,0.0,0.0,0.0,0.0,0.0,0.0,0.0,0.0,0.0,0.0,0.0,0.0,0.0,0.0,0.0,0.0,0.0,0.0,0.0,0.0,0.0,0.0,0.0,0.0,0.0,0.0,0.0,0.0,0.0,0.0,0.0,0.0,0.0,0.0,0.0,0.0,0.0,0.0,0.0,0.0,0.0,0.0,0.0,0.0,0.0,0.0,0.0,0.0,0.0,0.0,0.0,0.0,0.0,0.0,0.0,0.0,0.0,0.0,0.0,0.0,0.0,0.0,0.0,0.0,0.0,0.0,0.0,0.0,0.0,0.0,0.0,0.0,0.0,0.0,0.0,0.0,0.0,0.0,0.0,0.0,0.0,0.0,0.0,0.0,0.0,0.0,0.0,0.0,0.0,0.0,0.0,0.0,0.0,0.0,0.0,0.0,0.0,0.0,0.0,0.0,0.0,0.0,0.0,0.0,0.0,0.0,0.0,0.0,0.0,0.0,0.0,0.0,0.0,0.0,0.0,0.0,0.0,0.0,0.0,0.0,0.0,0.0,0.0,0.0,0.0,0.0,0.0,0.0,0.0,0.0,0.0,0.0,0.0,0.0,0.0,0.0,0.0,0.0,0.0,0.0,0.0,0.0,0.0,0.0,0.0,0.0,0.0,0.0,0.0,0.0,0.0,0.0,0.0,0.0,0.0,0.0,0.0,0.0,0.0,0.0,0.0,0.0,0.0,0.0,0.0,0.0,0.0,0.0,0.0,0.0,0.0,0.0,0.0,0.0,0.0,0.0,0.0,0.0,0.0,0.0,0.0,0.0,0.0,0.0,0.0,0.0,0.0,0.0,0.0,0.0,0.0,0.0,0.0,0.0,0.0,0.0,0.0,0.0,0.0,0.0,0.0,0.0,0.0,0.0,0.0,0.0,0.0,0.0,0.0,0.0,0.0,0.0,0.0,0.0,0.0,0.0,0.0,0.0,0.0,0.0,0.0,0.0,0.0,0.0,0.0,0.0,0.0,0.0,0.0,0.0,0.0,0.0,0.0,0.0,0.0,0.0,0.0,0.0,0.0,0.0,0.0,0.0,0.0,0.0,0.0,0.0,0.0,0.0,0.0,0.0,0.0,0.0,0.0,0.0,0.0,0.0,0.0,0.0,0.0,0.0,0.0,0.0,0.0,0.0,0.0,0.0,0.0,0.0,0.0,0.0,0.0,0.0,0.0,0.0,0.0,0.0,0.0,0.0,0.0,0.0,0.0,0.0,0.0,0.0,0.0,0.0,0.0,0.0,0.0,0.0,0.0,0.0,0.0,0.0,0.0,0.0,0.0,0.0,0.0,0.0,0.0,0.0,0.0,0.0,0.0,0.0,0.0,0.0,0.0,0.0,0.0,0.0,0.0,0.0,0.0,0.0,0.0,0.0,0.0,0.0,0.0,0.0,0.0,0.0,0.0,0.0,0.0,0.0,0.0,0.0,0.0,0.0,0.0,0.0,0.0,0.0,0.0,0.0,0.0,0.0,0.0,0.0,0.0,0.0,0.0,0.0,0.0,0.0,0.0,0.0,0.0,0.0,0.0,0.0,0.0,0.0,0.0,0.0,0.0,0.0,0.0,0.0,0.0,0.0,0.0,0.0,0.0,0.0,0.0,0.0,0.0,0.0,0.0,0.0,0.0,0.0,0.0,0.0,0.0,0.0,0.0,0.0,0.0,0.0,0.0,0.0,0.0,0.0,0.0,0.0,0.0,0.0,0.0,0.0,0.0,0.0,0.0,0.0,0.0,0.0,0.0,0.0,0.0,0.0,0.0,0.0,0.0,0.0,0.0,0.0,0.0,0.0,0.0,0.0,0.0,0.0,0.0,0.0,0.0,0.0,0.0,0.0,0.0,0.0,0.0,0.0,0.0,0.0,0.0,0.0,0.0,0.0,0.0,0.0,0.0,0.0,0.0,0.0,0.0,0.0,0.0,0.0,0.0,0.0,0.0,0.0,0.0,0.0,0.0,0.0,0.0,0.0,0.0,0.0,0.0,0.0,0.0,0.0,0.0,0.0,0.0,0.0,0.0,0.0,0.0,0.0,0.0,0.0,0.0,0.0,0.0,0.0,0.0,0.0,0.0,0.0,0.0,0.0,0.0,0.0,0.0,0.0,0.0,0.0,0.0,0.0,0.0,0.0,0.0,0.0,0.0,0.0,0.0,0.0,0.0,0.0,0.0,0.0,0.0,0.0,0.0,0.0,0.0,0.0,0.0,0.0,0.0,0.0,0.0,0.0,0.0,0.0,0.0,0.0,0.0,0.0,0.0,0.0,0.0,0.0,0.0,0.0,0.0,0.0,0.0,0.0,0.0,0.0,0.0,0.0,0.0,0.0,0.0,0.0,0.0,0.0,0.0,0.0,0.0,0.0,0.0,0.0,0.0,0.0,0.0,0.0,0.0,0.0,0.0,0.0,0.0,0.0,0.0,0.0,0.0,0.0,0.0,0.0,0.0,0.0,0.0,0.0,0.0,0.0,0.0,0.0,0.0,0.0,0.0,0.0,0.0,0.0,0.0,0.0,0.0,0.0,0.0,0.0,0.0,0.0,0.0,0.0,0.0,0.0,0.0,0.0,0.0,0.0,0.0,0.0,0.0,0.0,0.0,0.0,0.0,0.0,0.0,0.0,0.0,0.0,0.0,0.0,0.0,0.0,0.0,0.0,0.0,0.0,0.0,0.0,0.0,0.0,0.0,0.0,0.0,0.0,0.0,0.0,0.0,0.0,0.0,0.0,0.0,0.0,0.0,0.0,0.0,0.0,0.0,0.0,0.0,0.0,0.0,0.0,0.0,0.0,0.0,0.0,0.0,0.0,0.0,0.0,0.0,0.0,0.0,0.0,0.0,0.0,0.0,0.0,0.0,0.0,0.0,0.0,0.0,0.0,0.0,0.0,0.0,0.0,0.0,0.0,0.0,0.0,0.0,0.0,0.0,0.0,0.0,0.0,0.0,0.0,0.0,0.0,0.0,0.0,0.0,0.0,0.0,0.0,0.0,0.0,0.0,0.0,0.0,0.0,0.0,0.0,0.0,0.0,0.0,0.0,0.0,0.0,0.0,0.0,0.0,0.0,0.0,0.0,0.0,0.0,0.0,0.0,0.0,0.0,0.0,0.0,0.0,0.0,0.0,0.0,0.0,0.0,0.0,0.0,0.0,0.0,0.0,0.0,0.0,0.0,0.0,0.0,0.0,0.0,0.0,0.0,0.0,0.0,0.0,0.0,0.0,0.0,0.0,0.0,0.0,0.0,0.0,0.0,0.0,0.0,0.0,0.0,0.0,0.0,0.0,0.0,0.0,0.0,0.0,0.0,0.0,0.0,0.0,0.0,0.0,0.0,0.0,0.0,0.0,0.0,0.0,0.0,0.0,0.0,0.0,0.0,0.0,0.0,0.0,0.0,0.0,0.0,0.0,0.0,0.0,0.0,0.0,0.0,0.0,0.0,0.0,0.0,0.0,0.0,0.0,0.0,0.0,0.0,0.0,0.0,0.0,0.0,0.0,0.0,0.0,0.0,0.0,0.0,0.0,0.0,0.0,0.0,0.0,0.0,0.0,0.0,0.0,0.0,0.0,0.0,0.0,0.0,0.0,0.0,0.0,0.0,0.0,0.0,0.0,0.0,0.0,0.0,0.0,0.0,0.0,0.0,0.0,0.0,0.0,0.0,0.0,0.0,0.0,0.0,0.0,0.0,0.0,0.0,0.0,0.0,0.0,0.0,0.0,0.0,0.0,0.0,0.0,0.0,0.0,0.0,0.0,0.0,0.0,0.0,0.0,0.0,0.0,0.0,0.0,0.0,0.0,0.0,0.0,0.0,0.0,0.0,0.0,0.0,0.0,0.0,0.0,0.0,0.0,0.0,0.0,0.0,0.0,0.0,0.0,0.0,0.0,0.0,0.0,0.0,0.0,0.0,0.0,0.0,0.0,0.0,0.0,0.0,0.0,0.0,0.0,0.0,0.0,0.0,0.0,0.0,0.0,0.0,0.0,0.0,0.0,0.0,0.0,0.0,0.0,0.0,0.0,0.0,0.0,0.0,0.0,0.0,0.0,0.0,0.0,0.0,0.0,0.0,0.0,0.0,0.0,0.0,0.0,0.0,0.0,0.0,0.0,0.0,0.0,0.0,0.0,0.0,0.0,0.0,0.0,0.0,0.0,0.0,0.0,0.0,0.0,0.0,0.0,0.0,0.0,0.0,0.0,0.0,0.0,0.0,0.0,0.0,0.0,0.0,0.0,0.0,0.0,0.0,0.0,0.0,0.0,0.0,0.0,0.0,0.0,0.0,0.0,0.0,0.0,0.0,0.0,0.0,0.0,0.0,0.0,0.0,0.0,0.0,0.0,0.0,0.0,0.0,0.0,0.0,0.0,0.0,0.0,0.0,0.0,0.0,0.0,0.0,0.0,0.0,0.0,0.0,0.0,0.0,0.0,0.0,0.0,0.0,0.0,0.0,0.0,0.0,0.0,0.0,0.0,0.0,0.0,0.0,0.0,0.0,1.3139,1.2799,0.0,0.0,0.0,0.0,0.0,0.0,0.0,0.0,0.0,0.0,0.0,0.0,0.0,0.0,0.0,0.0,0.0,0.0,0.0,0.0,0.0,0.0,0.0,1.0627,1.0878,1.0878,1.0878,1.0878,1.0878,0.0,0.0,0.0,0.0,0.0,1.1548,1.1527,1.2097,1.3335,1.3288,1.4097,1.5676,1.567,1.5049,1.3879,0.0,0.0,0.0,0.0,0.0,0.0,0.0,0.0,0.0,0.0,0.0,0.0,0.0,0.0,0.0,0.0,0.0,0.0,0.0,0.0,0.0,0.0,0.0,0.0,0.0,0.0,0.0,0.0,0.0,0.0,0.0,0.0,0.0,0.0,0.0,0.0,0.0,0.0,0.0,0.0,0.0,0.0,0.0,0.0,0.0,0.0,0.0,0.0,0.0,0.0,0.0,0.0,0.0,0.0,0.0,0.0,0.0,0.0,0.0,0.0,0.0,0.0,0.0,0.0,0.0,0.0,0.0,0.0,0.0,0.0,1.5283,1.5011,0.0,0.0,0.0,0.0,0.0,0.0,0.0,0.0,0.0,0.0,0.0,0.0,0.0,0.0,0.0,0.0,0.0,0.0,0.0,0.0,0.0,1.0308,1.0595,1.1157,1.1618,1.1909,1.1793,1.1773,1.1928,1.0983,0.0,0.0,0.0,1.1272,1.1272,1.2261,1.3535,1.505,1.5405,1.6214,1.747,1.7461,1.6391,1.4527,1.4539,0.0,0.0,0.0,0.0,0.0,0.0,0.0,0.0,0.0,0.0,0.0,0.0,0.0,0.0,0.0,0.0,0.0,0.0,0.0,0.0,0.0,0.0,0.0,0.0,0.0,0.0,0.0,0.0,0.0,0.0,0.0,0.0,0.0,0.0,0.0,0.0,0.0,0.0,0.0,0.0,0.0,0.0,0.0,0.0,0.0,0.0,0.0,0.0,0.0,0.0,0.0,0.0,0.0,0.0,0.0,0.0,0.0,0.0,0.0,0.0,0.0,0.0,0.0,1.7285,1.7567,1.8044,1.7537,1.7582,1.8029,1.7458,1.743,1.7687,1.6456,0.0,0.0,0.0,0.0,0.0,0.0,0.0,0.0,0.0,0.0,0.0,0.0,0.0,0.0,0.0,0.0,0.0,0.0,0.0,1.075,1.2215,1.1851,1.2083,1.3551,1.299,1.2854,1.3624,1.2199,0.0,0.0,1.0714,1.0369,1.0369,1.191,1.3155,1.4086,1.6055,1.715,1.7415,1.729,1.716,1.7041,1.709,1.7057,1.6839,0.0,0.0,0.0,0.0,0.0,0.0,0.0,0.0,0.0,0.0,0.0,0.0,0.0,0.0,0.0,0.0,0.0,0.0,0.0,0.0,0.0,0.0,0.0,0.0,0.0,0.0,0.0,0.0,0.0,0.0,0.0,0.0,0.0,0.0,0.0,0.0,0.0,0.0,0.0,0.0,0.0,1.4969,1.6056,0.0,0.0,0.0,0.0,0.0,0.0,0.0,0.0,0.0,0.0,0.0,0.0,0.0,1.7853,1.7837,1.8266,1.8482,1.8482,1.9258,1.9591,1.942,1.9576,1.9591,1.942,1.9331,0.0,1.8002,1.7614,0.0,0.0,0.0,0.0,0.0,0.0,0.0,0.0,0.0,0.0,0.0,0.0,0.0,0.0,0.0,0.0,0.0,0.0,0.0,0.0,0.0,1.2473,1.3329,1.4505,1.4691,1.4697,1.4624,1.3508,1.242,1.1482,1.1504,1.1549,1.1541,1.2645,1.3978,1.5527,1.7468,1.841,1.8369,1.8415,1.8802,1.9462,1.9549,1.8802,1.7496,1.6761,0.0,0.0,0.0,0.0,0.0,0.0,0.0,0.0,0.0,0.0,0.0,0.0,0.0,0.0,0.0,0.0,0.0,0.0,0.0,0.0,0.0,0.0,0.0,0.0,0.0,0.0,0.0,0.0,0.0,0.0,0.0,0.0,0.0,0.0,0.0,0.0,0.0,0.0,0.0,1.4914,1.6607,1.7531,1.71,1.6619,0.0,0.0,0.0,0.0,0.0,0.0,0.0,0.0,0.0,1.8535,1.8483,1.8612,1.9008,1.9176,1.9256,1.9256,1.9682,1.9818,1.969,1.9833,1.9818,1.969,1.969,1.9431,1.8944,1.8467,1.8137,1.787,0.0,0.0,0.0,0.0,1.6954,1.6588,0.0,0.0,0.0,0.0,0.0,0.0,0.0,0.0,0.0,0.0,0.0,0.0,1.207,1.3195,1.4436,1.5887,1.6399,1.6479,1.607,1.4884,1.3652,1.2396,1.272,1.2882,1.2852,1.3877,1.5484,1.7636,1.8877,1.9543,1.9661,1.984,2.0374,2.1176,2.1285,2.0278,1.845,1.8297,1.7301,0.0,0.0,0.0,0.0,0.0,0.0,0.0,0.0,0.0,0.0,0.0,0.0,0.0,0.0,0.0,0.0,0.0,0.0,0.0,0.0,0.0,0.0,0.0,0.0,0.0,0.0,0.0,0.0,0.0,0.0,0.0,0.0,0.0,0.0,0.0,0.0,0.0,0.0,1.6525,1.7864,1.8593,1.8236,1.7666,0.0,0.0,0.0,0.0,0.0,0.0,1.881,1.8686,1.8718,1.8942,1.8957,1.9196,1.969,1.969,1.969,1.969,1.969,1.969,1.969,1.969,1.969,1.969,1.969,1.969,1.9645,1.9151,1.8957,1.8912,1.8418,1.8223,1.8283,1.8777,1.8574,1.8121,0.0,0.0,0.0,0.0,0.0,0.0,0.0,0.0,0.0,0.0,0.0,1.1206,1.4365,1.4126,1.5019,1.8232,1.7917,1.7846,0.0,1.6376,1.5002,1.4926,1.4149,1.3688,1.355,1.5585,1.7727,1.9921,1.9957,2.0371,2.1185,2.126,2.1425,2.1684,2.1882,2.1642,2.1048,2.0234,1.9306,1.8343,0.0,0.0,0.0,0.0,0.0,0.0,0.0,0.0,0.0,0.0,0.0,0.0,0.0,0.0,0.0,0.0,0.0,0.0,0.0,0.0,0.0,0.0,0.0,0.0,0.0,0.0,0.0,0.0,0.0,0.0,0.0,0.0,0.0,0.0,0.0,0.0,0.0,0.0,0.0,1.887,1.9294,0.0,0.0,0.0,0.0,1.9555,1.9837,1.9887,1.9657,1.9893,1.9884,1.9666,1.963,1.966,1.969,1.969,1.969,1.969,1.969,1.969,1.969,1.969,1.969,1.969,1.969,1.969,1.969,1.9645,1.963,1.963,1.96,1.9585,1.9585,1.963,1.9398,1.9051,0.0,0.0,0.0,0.0,0.0,1.0782,1.0179,1.0545,1.0756,1.0445,1.0998,1.2087,1.3811,1.5141,1.6634,1.847,1.8879,1.8951,1.8812,1.6965,1.5868,1.5872,1.4906,1.5271,1.7154,1.8294,1.9399,2.0501,2.0396,2.052,2.0926,2.1069,2.1601,2.241,2.257,2.2569,2.2393,2.111,2.0083,1.9233,1.8292,1.7489,0.0,0.0,0.0,0.0,0.0,0.0,0.0,0.0,0.0,0.0,0.0,0.0,0.0,0.0,0.0,0.0,0.0,0.0,0.0,0.0,0.0,0.0,0.0,0.0,0.0,0.0,0.0,0.0,0.0,0.0,0.0,0.0,0.0,0.0,0.0,0.0,0.0,2.0365,2.0428,0.0,1.9589,2.0228,2.0488,2.0111,2.0619,2.0655,1.9971,2.0047,1.996,1.9726,1.969,1.9899,2.0348,1.9914,1.9914,2.0348,1.9899,1.969,1.969,1.969,1.969,1.969,1.969,1.969,1.969,1.969,1.969,1.969,1.969,1.969,1.969,1.969,1.9508,1.9302,0.0,0.0,0.0,0.0,1.1015,1.1158,1.056,1.091,1.1105,1.0667,1.1498,1.2752,1.4412,1.6053,1.7535,1.8759,1.9414,1.9581,1.9125,1.7773,1.697,1.6971,1.6485,1.7264,1.9514,2.0083,2.0578,2.1045,2.0953,2.1068,2.1353,2.1534,2.2052,2.2839,2.2962,2.3062,2.3012,2.1785,2.097,2.0457,1.9787,1.9104,1.8328,0.0,0.0,0.0,0.0,0.0,0.0,0.0,0.0,0.0,0.0,0.0,0.0,0.0,0.0,0.0,0.0,0.0,0.0,0.0,0.0,0.0,0.0,0.0,0.0,0.0,0.0,0.0,0.0,0.0,0.0,0.0,0.0,0.0,0.0,0.0,2.1053,2.1177,2.1299,2.1093,2.0363,2.0995,2.1239,2.0701,2.1079,2.0991,2.0224,2.0135,2.0081,2.0034,2.0034,2.0363,2.1036,2.0363,2.0378,2.1036,2.0124,1.9809,2.0034,1.9794,1.969,1.969,1.969,1.969,1.969,1.969,1.969,1.969,1.969,1.969,1.969,1.9617,1.9523,1.9376,0.0,0.0,0.0,1.1169,1.1323,1.13,1.1212,1.1198,1.1382,1.1939,1.2046,1.3245,1.6356,1.6872,1.7624,1.9261,1.9578,1.9686,1.9686,1.8787,1.8252,1.8276,1.8889,1.9587,2.0335,2.0793,2.126,2.1729,2.1788,2.2071,2.2605,2.2816,2.2876,2.2919,2.3035,2.3091,2.3038,2.2335,2.2068,2.2099,2.193,2.1401,2.064,0.0,0.0,0.0,0.0,0.0,0.0,0.0,0.0,0.0,0.0,0.0,0.0,0.0,0.0,0.0,0.0,0.0,0.0,0.0,0.0,0.0,0.0,0.0,0.0,0.0,0.0,0.0,0.0,0.0,0.0,0.0,0.0,0.0,2.1,2.1221,2.1237,2.1211,2.187,2.1922,2.1027,2.1585,2.184,2.1417,2.1294,2.0974,2.0345,2.02,2.0339,2.0722,2.0737,2.1051,2.1724,2.1081,2.1081,2.171,2.0378,2.0094,2.0722,2.0049,1.975,1.975,1.975,1.975,1.975,1.975,1.975,1.975,1.9741,1.969,1.969,1.9487,1.9376,1.9302,0.0,0.0,1.1023,1.1194,1.175,1.1908,1.1176,1.1046,1.1275,1.1928,1.2941,1.4368,1.6406,1.7661,1.8642,1.9338,1.945,1.9504,1.955,1.8172,1.7482,1.7722,1.9038,2.0333,2.1505,2.1532,2.186,2.2563,2.2297,2.231,2.2605,2.2659,2.2764,2.2919,2.3035,2.3025,2.2873,2.2786,2.2641,2.2447,2.1485,2.1224,2.1285,0.0,0.0,0.0,0.0,0.0,0.0,0.0,0.0,0.0,0.0,0.0,0.0,0.0,0.0,0.0,0.0,0.0,0.0,0.0,0.0,0.0,0.0,0.0,0.0,0.0,0.0,0.0,0.0,0.0,0.0,0.0,0.0,2.0729,2.1153,2.1651,2.1944,2.1799,2.1955,2.1931,2.1603,2.2007,2.1923,2.1022,2.1591,2.1595,2.0645,2.1024,2.1308,2.1425,2.1425,2.1739,2.2439,2.1754,2.1754,2.2398,2.1545,2.1246,2.1425,2.1231,2.1141,2.1141,2.1141,2.1141,2.1141,2.1141,2.1141,2.1036,2.0064,1.969,1.969,1.9487,1.9064,1.8592,0.0,1.0959,1.135,1.1692,1.2154,1.2186,1.122,1.1065,1.1492,1.28,1.369,1.5052,1.7283,1.8357,1.8982,1.9166,1.9232,1.9295,1.9335,1.8611,1.8389,1.8852,2.0076,2.1092,2.1867,2.2098,2.2399,2.2764,2.2542,2.2388,2.2343,2.2343,2.2381,2.2436,2.2527,2.2493,2.2395,2.2459,2.2485,2.2382,2.155,2.1587,2.2024,2.1061,2.0245,1.947,1.8664,1.811,1.7622,1.6622,0.0,0.0,0.0,0.0,0.0,0.0,0.0,0.0,0.0,0.0,0.0,0.0,0.0,0.0,0.0,0.0,0.0,0.0,0.0,0.0,0.0,0.0,0.0,0.0,2.0829,2.1651,2.1651,2.195,2.2118,2.2027,2.2208,2.2319,2.2137,2.2508,2.2419,2.1626,2.1972,2.1912,2.1141,2.1485,2.1814,2.2099,2.2113,2.2413,2.3056,2.2428,2.2428,2.3056,2.2047,2.1573,2.1701,2.1339,2.1044,2.0905,2.1085,2.1208,2.1274,2.1359,2.1344,2.1241,0.0,0.0,0.0,0.0,1.9234,1.849,0.0,1.118,1.144,1.2191,1.233,1.209,1.1304,1.1056,1.176,1.3993,1.4245,1.5375,1.8467,1.8843,1.8895,1.8895,1.9073,1.9217,0.0,0.0,2.0146,2.0837,2.1376,2.168,2.1809,2.2461,2.2747,2.2579,2.2552,2.2326,2.1969,2.1969,2.1911,2.1797,2.1797,2.1797,2.1768,2.1768,2.1853,2.1953,2.1764,2.2074,2.2607,2.2031,2.1801,2.1692,2.1096,2.0933,2.071,1.857,0.0,0.0,0.0,0.0,0.0,0.0,0.0,0.0,0.0,0.0,0.0,0.0,0.0,0.0,0.0,0.0,0.0,0.0,0.0,0.0,0.0,0.0,0.0,0.0,2.1664,2.2237,2.2209,2.2099,2.2028,2.2028,2.2507,2.275,2.259,2.2935,2.3,2.2586,2.2371,2.2122,2.1839,0.0,0.0,0.0,0.0,2.3041,2.3551,2.3056,2.3014,2.3493,2.2138,2.1595,2.1757,2.0983,2.0368,2.0017,2.0412,2.0656,2.0812,2.1011,2.0996,2.084,2.1307,2.1344,2.1044,2.0514,1.9649,1.8727,0.0,1.0727,1.1226,1.1269,1.1388,1.1364,1.1076,1.0484,1.1045,1.3841,1.4198,1.5382,1.8467,1.8806,1.8843,1.8895,1.936,1.9866,0.0,0.0,2.0539,2.1238,2.1285,2.1661,2.2418,2.2415,2.2385,2.2375,2.2198,2.1998,2.184,2.184,2.1811,2.1797,2.1797,2.1738,2.1634,2.1634,2.1433,2.1134,2.1087,2.1639,2.2441,2.216,2.1858,2.1554,2.1399,2.1045,2.0551,2.007,2.0061,2.0156,1.9835,0.0,0.0,0.0,0.0,0.0,0.0,0.0,0.0,0.0,0.0,0.0,0.0,0.0,0.0,0.0,0.0,0.0,0.0,0.0,0.0,2.0671,2.1392,2.1827,2.1601,2.1874,2.2151,2.2296,2.2281,2.2321,2.2488,2.2878,2.2871,2.2225,2.2909,2.308,2.2559,2.2966,2.3295,2.3415,2.343,2.3389,2.3363,2.3245,2.3142,2.3024,2.2731,0.0,2.2189,2.2016,2.1717,2.1318,2.1412,2.1458,2.1491,2.1551,2.1551,2.1393,2.0536,2.0043,1.9869,1.9913,1.9382,1.8727,0.9825,1.0564,1.1181,1.1108,1.1161,1.1023,1.053,1.0045,1.0688,1.3304,1.3972,1.5074,1.7343,1.7968,1.8039,1.7678,1.8553,0.0,0.0,2.078,2.1165,2.1805,2.1678,2.1798,2.2186,2.2113,2.2039,2.2039,2.194,2.1764,2.1509,2.1509,2.1386,2.115,2.115,2.1103,2.1055,2.1055,2.0909,2.0712,2.0712,2.0991,2.1458,2.1582,2.1516,2.1373,2.1585,2.1494,2.1233,2.095,2.0977,2.1121,2.0855,2.0047,1.9156,0.0,0.0,0.0,0.0,0.0,0.0,0.0,0.0,0.0,0.0,0.0,0.0,0.0,0.0,1.8553,0.0,0.0,2.0926,2.1121,2.1507,2.1823,2.1906,2.1921,2.1979,2.2047,2.2512,2.2917,2.3054,2.3394,2.3453,2.3142,2.339,2.3417,2.3033,2.3387,2.3551,2.3436,2.3436,2.3392,2.3319,2.3172,2.3038,2.2889,2.2572,2.2235,2.1846,2.1513,2.1113,2.0756,2.0953,2.1113,2.1245,2.1245,2.1161,2.0962,2.0149,1.9925,2.0174,2.0127,1.9747,1.9277,0.9724,1.0345,1.0908,1.0908,1.0915,1.0696,0.9976,0.9773,1.0515,1.28,1.36,1.4585,1.6217,1.6968,1.7201,0.0,0.0,0.0,0.0,2.1139,2.1637,2.2029,2.1907,2.1748,2.1584,2.1554,2.1524,2.1477,2.1477,2.137,2.1071,2.1023,2.0828,2.0595,2.0527,2.0494,2.0494,2.0494,2.046,2.0426,2.0376,2.0342,2.0308,2.073,2.0958,2.1166,2.1479,2.1735,2.1824,2.1395,2.1383,2.1499,2.1196,2.1015,2.0855,2.0445,1.9759,0.0,0.0,0.0,0.0,0.0,0.0,0.0,0.0,0.0,1.9212,1.9252,1.9437,1.9686,1.9893,2.0607,2.1247,2.1535,2.1691,2.1841,2.2226,2.2055,2.1848,2.1761,2.2693,2.3412,2.3551,2.3799,2.3937,2.3937,2.3681,2.3436,2.3216,2.3392,2.3377,2.3231,2.3127,2.3127,2.3142,2.2799,2.2603,2.2663,2.2077,2.1589,2.1175,2.066,2.0156,1.9798,2.0156,2.0409,2.0597,2.0597,2.0459,2.0258,1.9952,2.0156,2.0597,2.0359,2.0067,1.9798,0.0,0.9788,0.9861,0.9861,0.991,0.9911,0.9738,0.9702,1.0526,1.2792,1.3118,1.3971,1.6148,1.6487,1.6922,1.791,0.0,0.0,2.045,2.1292,2.1562,2.1165,2.1245,2.1134,2.0814,2.0731,2.0565,2.0366,2.0366,2.0483,2.0663,2.0413,2.0514,2.0828,2.0613,2.0494,2.0494,2.0494,2.0342,2.0135,1.9945,1.9747,1.956,1.9639,2.0189,2.086,2.0893,2.0991,2.1134,2.1303,2.1513,2.1728,2.2038,2.1816,2.1433,2.1492,0.0,2.0309,2.0309,2.0309,2.0563,2.1625,2.0997,2.0408,0.0,0.0,1.9953,2.0139,2.0276,2.0302,2.0097,2.055,2.1067,2.1428,2.1525,2.1588,2.1767,2.2034,2.2162,2.1926,2.2212,2.2664,2.3273,2.3363,2.3407,2.3407,2.3348,2.3216,2.2934,2.2979,2.2979,2.2934,2.2603,2.248,2.2692,2.1955,2.1623,2.1746,2.1286,2.0894,2.051,2.0422,2.0156,1.9798,1.985,1.9901,1.9901,1.9901,1.9901,1.985,1.9811,1.985,1.9901,1.9901,1.985,1.9798,0.0,0.9695,0.971,0.971,0.9717,0.9738,0.9695,0.9669,1.012,1.1476,1.243,1.3344,1.4274,1.4777,1.5559,1.6808,0.0,0.0,1.98,2.0986,2.1446,2.0909,2.0828,2.0665,2.0416,2.0246,2.0108,2.0024,2.0024,2.0004,1.998,1.9839,1.9823,1.9859,1.9732,1.9675,1.9711,1.9818,1.9726,1.953,1.9566,1.9435,1.9228,1.925,1.9479,1.9874,2.0462,2.0795,0.0,0.0,2.1587,2.1721,2.2051,2.1739,2.125,2.1361,2.1214,0.0,2.1506,2.1275,0.0,0.0,2.1437,2.1014,2.1341,2.0623,1.9922,1.9993,1.9823,1.9732,1.9909,2.0441,2.0952,0.0,2.1605,2.1911,2.2043,2.2096,2.2163,2.2291,2.2275,2.2465,2.3009,2.3083,2.3083,2.3083,2.3083,2.2949,2.2737,2.2859,2.2859,2.2737,2.254,2.2402,2.2231,2.1732,2.1444,2.1251,2.0858,2.0459,2.0156,1.9914,1.9656,1.9344,1.9344,1.9344,1.9344,1.9344,1.9344,1.9344,1.9344,1.9344,1.9396,1.9695,1.9798,1.9798,0.0,0.9698,0.9698,0.9683,0.9669,0.9673,0.9703,0.9615,0.9832,1.0519,1.179,1.2794,1.3191,1.3743,1.4606,1.5888,0.0,0.0,0.0,2.0362,2.0862,2.0444,2.0361,2.0158,1.9823,1.9579,1.9419,1.9383,1.9383,1.9325,1.9281,1.9295,1.9273,1.9213,1.9139,1.9101,1.9101,1.9265,1.9228,1.9101,1.9101,1.9064,1.8988,1.886,1.8822,1.9011,1.9929,2.0361,0.0,0.0,2.1022,2.1197,2.118,2.0915,2.0633,2.0799,2.1086,2.1454,2.195,0.0,0.0,2.1707,2.1456,2.1086,2.0927,2.028,1.9717,1.9696,1.9384,1.9161,1.9427,2.0124,2.0745,2.0895,2.1596,2.2154,2.235,2.2193,2.216,2.2466,2.2324,2.231,2.2663,2.2754,2.2814,2.2814,2.2814,2.2723,2.2509,2.254,2.254,2.2509,2.217,2.1983,2.1902,2.1361,2.1086,2.1096,2.0604,2.0321,2.025,1.9744,1.9291,1.8987,1.8987,1.8987,1.8987,1.8987,1.8987,1.8987,1.8987,1.8987,1.904,1.9448,1.9604,1.9604,0.0,0.0,0.9683,0.9617,0.9609,0.9625,0.9691,0.9593,0.9798,1.0584,1.1313,1.2329,1.3886,1.4082,1.4606,0.0,0.0,0.0,1.8709,1.9279,1.9531,1.9457,1.9711,1.95,1.886,1.85,1.8266,1.8068,1.8068,1.8291,1.8741,1.8808,1.9035,1.9493,1.9199,1.9101,1.9101,1.9101,1.9101,1.9064,1.8553,1.85,1.8745,1.8226,1.8147,1.8422,1.9176,0.0,0.0,0.0,1.9599,2.0008,1.9167,1.9197,0.0,1.9935,2.0694,0.0,0.0,0.0,2.1117,2.1272,2.0766,2.0265,2.0314,1.9914,1.9493,1.945,1.9265,1.9026,1.8693,1.9595,2.0416,2.0512,2.1354,2.2149,2.2532,2.2342,2.2203,2.2217,2.2184,2.2231,0.0,2.2463,2.2615,2.2615,2.2615,2.2509,2.2231,2.1841,2.1793,2.2184,2.1055,2.0822,2.1602,2.0459,2.0347,2.1289,2.0532,2.0477,2.0969,2.0072,1.9456,1.8987,1.8987,1.8987,1.8987,1.8987,1.8987,1.8987,1.8987,1.8987,1.8987,1.904,1.904,1.904,0.0,0.0,0.0,0.9609,0.9559,0.9542,0.9559,0.9535,0.9771,1.0524,1.1716,0.0,0.0,0.0,0.0,0.0,0.0,0.0,1.7385,1.8683,1.9234,1.8771,1.8987,1.9035,1.8822,1.8567,1.8386,1.8333,1.8333,1.8411,1.8567,1.8581,1.8697,1.8836,1.8736,1.8697,1.8697,1.8592,1.87,1.8836,1.8233,1.8315,1.87,1.795,1.7637,1.7592,0.0,0.0,0.0,0.0,1.8444,1.8728,1.8424,0.0,0.0,1.92,2.0081,2.0763,0.0,0.0,2.0431,2.0162,1.9899,1.9681,1.9536,1.9258,1.9049,1.9026,1.8836,1.8644,1.8436,1.9385,2.0133,1.9958,2.0844,2.1671,2.1908,2.1841,2.1902,2.2184,2.1949,0.0,0.0,0.0,0.0,2.1949,2.186,2.1605,2.1166,2.1139,2.1064,2.0894,2.0497,2.0258,2.0258,2.0202,2.0159,2.0249,1.9824,1.971,1.9865,1.8998,1.8561,1.8398,1.8398,1.8398,1.8398,1.8398,1.8398,1.8398,1.8398,1.8398,1.841,1.8667,1.8614,1.8464,0.0,0.0,0.0,0.0,0.0,0.0,0.0,0.0,0.0,0.0,0.0,0.0,0.0,0.0,0.0,0.0,0.0,0.0,0.0,0.0,1.8173,1.8193,1.8222,1.8186,1.8112,1.7829,1.7803,1.8012,1.8012,1.8124,1.8333,1.8425,1.8517,1.8517,1.8517,1.8517,1.8478,1.8279,1.8328,1.8453,1.7909,1.8018,1.8426,1.7666,1.7207,0.0,0.0,0.0,0.0,0.0,0.0,0.0,0.0,0.0,0.0,1.8639,1.9482,2.0204,1.998,1.9859,1.9752,1.9295,1.9072,1.8959,1.8936,1.863,1.8383,1.8592,1.8372,1.8095,1.7854,1.874,1.9435,1.9356,2.0247,2.1056,2.1369,2.141,2.1492,2.1732,2.1541,2.141,0.0,0.0,0.0,2.1264,2.1152,2.0978,2.0694,2.0513,2.0524,2.0731,2.009,1.9883,2.0122,2.0096,2.0103,2.0094,2.0134,2.0018,1.9657,1.916,1.8805,1.869,1.8495,1.8414,1.8391,1.8164,1.8084,1.8084,1.8084,1.8084,1.8139,1.8356,1.829,1.8193,0.0,0.0,0.0,0.0,0.0,0.0,0.0,0.0,0.0,0.0,0.0,0.0,0.0,0.0,0.0,0.0,0.0,0.0,0.0,0.0,0.0,1.7629,1.7328,1.7069,1.6913,1.6494,1.6519,1.7095,1.7095,1.7397,1.7987,1.8305,1.8489,1.8517,1.8517,1.8517,1.8478,1.8161,1.7988,1.7948,1.7598,1.7626,1.7879,1.7238,0.0,0.0,0.0,0.0,0.0,0.0,0.0,0.0,0.0,0.0,0.0,0.0,1.8933,1.9645,1.9398,1.9236,1.902,1.8655,1.8266,1.8068,1.8461,1.7988,1.7639,1.8147,1.7828,1.7393,0.0,0.0,1.8477,1.8728,1.9561,2.0346,2.0913,2.0993,2.0993,0.0,0.0,0.0,0.0,0.0,0.0,2.0549,0.0,2.0643,2.0792,2.0057,2.0241,2.1559,1.9902,1.9703,2.1026,2.0169,2.0072,2.0813,2.1393,2.1171,2.0412,2.0389,2.0125,1.9666,1.9149,1.8919,1.885,1.838,1.8107,1.8084,1.8084,1.8084,1.8084,1.8084,1.8084,1.8139,0.0,0.0,0.0,0.0,0.0,0.0,0.0,0.0,0.0,0.0,0.0,0.0,0.0,0.0,0.0,0.0,0.0,0.0,0.0,0.0,0.0,0.0,0.0,1.6579,1.7055,1.6918,0.0,0.0,0.0,1.7291,1.7936,1.7852,1.8219,1.8912,1.862,1.8581,1.8669,1.8201,1.7868,1.7598,0.0,1.6863,1.6889,0.0,0.0,0.0,0.0,0.0,0.0,0.0,0.0,0.0,0.0,0.0,1.7706,0.0,0.0,1.8496,1.8266,1.8173,1.8094,1.7828,1.772,1.7639,1.776,1.7639,1.7557,1.7679,1.7598,1.7393,0.0,0.0,0.0,1.8401,1.9228,0.0,2.0497,2.056,0.0,2.0944,0.0,2.056,2.056,2.0207,0.0,0.0,2.0312,2.0312,1.9768,1.9993,2.0182,2.0181,1.9773,1.9703,2.0065,2.0193,2.0514,2.1088,2.0846,2.06,2.04,2.0044,1.9803,1.9688,1.9551,1.9264,1.8885,1.8759,1.8483,1.8084,1.8084,1.8084,1.8084,1.8084,1.792,1.77,0.0,0.0,0.0,0.0,0.0,0.0,0.0,0.0,0.0,0.0,0.0,0.0,0.0,0.0,0.0,0.0,0.0,0.0,0.0,0.0,0.0,0.0,0.0,1.5712,1.6079,1.6215,0.0,0.0,0.0,0.0,0.0,1.7441,1.7663,1.8209,1.8006,1.7933,1.7933,1.7473,0.0,0.0,0.0,0.0,0.0,0.0,0.0,0.0,0.0,0.0,0.0,0.0,0.0,1.5905,1.6493,1.6717,1.6904,1.7356,0.0,1.741,1.7463,1.7435,1.7325,1.7173,1.7047,1.7005,1.7131,1.7018,1.6976,1.7102,1.7089,0.0,0.0,0.0,0.0,0.0,0.0,0.0,2.0042,2.0169,2.0207,0.0,2.0258,0.0,2.0527,2.0345,2.0241,0.0,2.0222,2.0058,1.9785,1.9955,2.0171,2.0331,1.9918,1.9792,2.001,2.0492,2.0882,2.1221,2.0871,2.0745,2.0733,2.0458,2.0343,2.0331,2.0102,1.9723,1.9229,1.8988,1.8598,1.8107,1.8103,1.7991,1.7833,1.7823,1.7544,1.72,0.0,0.0,0.0,0.0,0.0,0.0,0.0,0.0,0.0,0.0,1.361,0.0,0.0,0.0,0.0,0.0,0.0,0.0,0.0,0.0,0.0,0.0,0.0,1.4607,1.4671,0.0,0.0,0.0,0.0,0.0,0.0,0.0,0.0,0.0,0.0,0.0,0.0,0.0,0.0,0.0,0.0,0.0,0.0,0.0,0.0,0.0,0.0,0.0,0.0,0.0,1.4808,1.5445,1.6253,1.6213,1.5991,1.6608,1.6524,1.6341,1.676,1.6731,1.6587,1.6582,1.6367,1.6225,1.6497,1.6306,1.6188,1.6552,0.0,1.6436,1.6436,1.6324,1.6675,1.7887,0.0,1.8314,1.9558,1.9822,1.9859,1.9911,1.9974,2.0225,2.0781,2.0832,2.0894,2.1149,2.0394,2.0084,2.0427,2.0139,2.0285,2.1198,2.0331,2.0079,2.0504,2.094,2.1221,2.1221,2.1221,2.1221,2.1221,2.1221,2.1221,2.1198,2.0637,2.0106,1.9627,1.9033,1.8464,1.8001,1.8021,1.7818,1.7511,1.7472,1.7222,1.6884,0.0,0.0,0.0,0.0,0.0,0.0,0.0,0.0,0.0,0.0,1.406,1.4009,0.0,0.0,0.0,0.0,0.0,0.0,0.0,0.0,0.0,0.0,0.0,0.0,0.0,0.0,0.0,0.0,0.0,0.0,0.0,0.0,0.0,0.0,0.0,0.0,0.0,0.0,0.0,0.0,0.0,0.0,0.0,0.0,0.0,0.0,0.0,0.0,0.0,0.0,1.4885,1.5213,1.5106,1.5196,1.5306,1.5174,1.5096,1.5084,1.5511,1.5611,1.5611,1.5913,1.5724,1.5579,1.5869,1.568,0.0,0.0,0.0,1.5969,1.6188,1.6467,0.0,1.746,0.0,0.0,0.0,0.0,2.0234,0.0,0.0,0.0,0.0,0.0,0.0,0.0,2.1257,2.0986,2.0815,2.0908,2.1049,2.1221,2.106,2.1014,2.1032,2.1175,2.1221,2.1221,2.1221,2.1221,2.1221,2.1221,2.1221,2.1158,2.0598,2.0095,1.9543,1.8692,1.8035,1.7498,1.7515,1.7504,1.7493,1.7843,1.7655,1.7277,0.0,0.0,0.0,0.0,0.0,0.0,0.0,1.1567,1.2394,1.4026,1.454,1.4688,1.4595,1.4164,1.3818,0.0,0.0,0.0,0.0,0.0,0.0,0.0,0.0,0.0,0.0,0.0,0.0,0.0,0.0,0.0,0.0,0.0,0.0,0.0,0.0,0.0,0.0,0.0,0.0,0.0,0.0,0.0,0.0,0.0,0.0,0.0,0.0,0.0,0.0,0.0,1.4082,1.4307,1.4582,1.4247,1.3841,1.4061,1.3862,1.3711,1.4097,1.4294,1.449,1.4744,1.4709,1.4709,1.4949,0.0,0.0,0.0,0.0,1.5471,1.5599,0.0,0.0,0.0,0.0,0.0,0.0,0.0,0.0,0.0,0.0,0.0,0.0,0.0,0.0,2.1607,2.1275,2.1163,2.1287,2.1009,2.0764,2.0764,2.0506,2.0388,2.0388,2.0388,2.0388,2.0388,2.0388,2.0388,2.0388,2.0388,2.0388,2.0324,2.0118,1.9705,1.9176,1.8699,1.8214,1.7761,1.7749,1.7574,1.7429,1.7644,1.7423,1.7034,0.0,0.0,0.0,0.0,0.0,0.0,0.0,1.1786,1.2478,1.4468,1.492,1.5148,1.5467,1.4734,1.4053,0.0,0.0,0.0,0.0,0.0,0.0,0.0,0.0,0.0,0.0,0.0,0.0,0.0,0.0,0.0,0.0,0.0,0.0,0.0,0.0,0.0,0.0,0.0,0.0,0.0,0.0,0.0,0.0,0.0,0.0,0.0,0.0,0.0,0.0,0.0,1.3249,1.3377,1.4095,1.3453,1.2618,1.3142,1.2929,1.2579,1.2967,1.3266,1.3515,1.3768,1.3873,1.3931,1.4165,1.4081,0.0,0.0,1.4436,1.47,1.4666,0.0,0.0,0.0,0.0,0.0,0.0,0.0,0.0,0.0,0.0,0.0,0.0,0.0,0.0,2.1227,2.0955,2.0955,2.14,2.0752,2.0431,2.056,2.0183,1.9933,1.9933,1.9802,1.9802,1.9802,1.9671,1.9539,1.9462,1.9462,1.9396,1.933,1.9264,1.8923,1.856,1.8402,1.8164,1.7822,1.7853,1.7708,1.7403,1.7484,1.7305,1.6947,0.0,0.0,0.0,0.0,0.0,0.0,0.0,1.1757,1.283,1.598,1.5117,1.4784,1.6307,1.5693,1.476,0.0,0.0,0.0,0.0,0.0,0.0,0.0,0.0,0.0,0.0,0.0,0.0,0.0,0.0,0.0,0.0,0.0,0.0,0.0,0.0,0.0,0.0,0.0,0.0,0.0,0.0,0.0,0.0,0.0,0.0,0.0,0.0,0.0,0.0,0.0,0.0,1.2904,1.3212,1.2953,1.248,1.2274,0.0,0.0,1.257,1.2861,1.316,1.3515,1.3563,1.3552,1.3931,0.0,0.0,1.3652,1.3586,1.3445,1.3304,1.3685,0.0,0.0,0.0,0.0,0.0,0.0,0.0,0.0,0.0,0.0,0.0,0.0,0.0,2.0655,2.0344,2.0291,2.0495,2.042,2.0624,2.1094,2.1094,2.1031,2.1031,2.056,2.0302,2.0302,1.9868,1.9396,1.9044,1.9044,1.8911,1.8576,1.8114,1.7823,1.7755,1.7178,1.6939,1.6977,1.7288,1.7419,1.7439,1.7803,1.793,1.7823,0.0,0.0,0.0,0.0,0.0,0.0,1.0915,1.1055,1.1864,1.4131,1.4244,1.4373,1.5084,1.5243,1.4941,1.4023,0.0,0.0,0.0,0.0,0.0,0.0,0.0,0.0,0.0,0.0,0.0,0.0,0.0,0.0,0.0,0.0,0.0,0.0,0.0,0.0,0.0,0.0,0.0,0.0,0.0,0.0,0.0,0.0,0.0,0.0,0.0,0.0,0.0,0.0,0.0,0.0,1.2098,1.1959,0.0,0.0,1.1877,1.1669,1.1801,1.1999,1.2295,1.2598,1.2803,1.2949,1.3238,0.0,1.2402,1.2621,1.2785,1.285,1.2785,1.3204,1.3552,0.0,1.3573,1.3815,0.0,0.0,0.0,0.0,0.0,0.0,0.0,0.0,1.9628,1.9507,1.9121,1.8988,1.9396,1.9452,1.9518,1.9726,1.9452,1.9253,1.9253,1.9054,1.8988,1.8931,1.8539,1.8269,1.8066,1.7852,1.7638,1.751,1.7304,1.7245,1.7226,1.694,1.6875,1.6875,1.7011,1.7079,1.7166,1.7541,1.7676,1.7735,0.0,0.0,0.0,0.0,0.0,0.9753,1.0494,1.0609,1.1263,1.3088,1.3543,1.389,1.4409,1.4662,1.4571,1.3991,1.3877,0.0,0.0,0.0,0.0,0.0,0.0,0.0,0.0,0.0,0.0,0.0,0.0,0.0,0.0,0.0,0.0,0.0,0.0,0.0,0.0,0.0,0.0,0.0,0.0,0.0,0.0,0.0,0.0,0.0,0.0,0.0,0.0,0.0,0.0,0.0,0.0,0.0,0.0,0.0,1.163,1.1427,1.1326,1.1528,1.1778,1.2026,1.2274,1.2578,0.0,0.0,1.1917,1.2047,1.2073,1.2141,1.2148,1.2426,1.2631,1.2621,1.2499,1.2596,1.3183,0.0,0.0,0.0,0.0,0.0,0.0,0.0,1.8536,1.8358,1.8142,1.8144,1.8539,1.8539,1.8674,1.9008,1.8674,1.8472,1.8472,1.8202,1.8066,1.8066,1.7529,1.7254,1.7116,1.6839,1.67,1.656,1.656,1.656,1.656,1.67,1.67,1.676,1.6839,1.6908,1.6959,1.7192,1.7281,1.733,0.0,0.0,0.0,0.0,0.0,0.0,1.0494,1.0609,1.1437,1.3792,1.3276,1.3313,1.4914,1.4199,1.3605,1.3605,1.3667,0.0,0.0,0.0,0.0,0.0,0.0,0.0,0.0,0.0,1.1717,1.2706,1.2967,0.0,0.0,0.0,0.0,0.0,0.0,0.0,0.0,0.0,0.0,0.0,0.0,0.0,0.0,0.0,0.0,0.0,0.0,0.0,0.0,0.0,0.0,0.0,0.0,0.0,0.0,0.0,1.1319,1.1628,1.1368,1.1528,1.1778,1.2026,1.2274,1.2578,0.0,1.2243,1.1734,1.2129,1.1523,1.0971,1.1154,1.1274,1.123,1.0955,1.1278,1.1689,1.2148,0.0,0.0,0.0,0.0,0.0,0.0,1.7168,1.7504,1.7422,1.7773,0.0,1.8008,1.8008,1.8472,1.955,1.9605,1.9605,1.9605,1.8654,1.8182,1.8182,1.7304,1.67,1.6342,1.6281,1.614,1.5797,1.5797,1.5797,1.5876,1.614,1.6281,1.6351,1.6769,1.6908,1.6862,1.6863,1.6779,1.6722,0.0,0.0,0.0,0.0,0.0,0.0,0.0,0.971,1.0132,1.1359,1.124,1.1456,1.2521,1.2759,1.2815,1.2723,1.3155,0.0,0.0,0.0,0.0,0.0,0.0,0.0,0.0,0.0,1.1364,1.2439,1.2482,1.3101,1.4304,0.0,0.0,0.0,0.0,0.0,0.0,0.0,0.0,0.0,0.0,0.0,0.0,0.0,0.0,0.0,0.0,0.0,0.0,0.0,0.0,0.0,0.0,0.0,0.0,0.0,0.0,0.0,1.1499,1.1528,1.1528,1.1977,1.2175,1.2323,1.2783,1.2243,1.1645,1.1738,1.1233,1.0717,1.0776,1.0935,1.1083,1.1223,1.1465,0.0,0.0,0.0,0.0,0.0,0.0,0.0,0.0,0.0,1.6431,1.6627,1.7011,1.7097,1.6655,1.7019,1.752,1.8144,1.8134,1.7919,1.734,1.73,1.7032,1.6543,1.6497,1.6269,1.5952,1.5948,1.5867,1.5805,1.5805,1.5805,1.5805,1.5938,1.5938,1.5938,1.6079,1.6149,1.6167,1.6111,1.6093,1.6105,0.0,0.0,0.0,0.0,0.0,0.0,0.0,0.93,0.9535,1.0214,1.0256,1.0528,1.1291,1.1932,1.2277,1.2151,1.2689,0.0,0.0,0.0,0.0,0.0,0.0,0.0,1.1215,1.0873,1.1186,1.2197,1.2082,1.2781,1.4232,1.388,1.3601,0.0,0.0,0.0,0.0,0.0,0.0,0.0,0.0,0.0,0.0,0.0,0.0,0.0,0.0,0.0,0.0,0.0,0.0,0.0,0.0,0.0,0.0,0.0,0.991,0.0,0.0,1.1447,1.1492,1.2089,1.2113,1.2089,1.2531,1.1953,1.14,1.1567,1.0968,1.0454,1.0681,1.0478,1.0353,1.0496,1.0742,0.0,0.0,0.0,0.0,0.0,0.0,0.0,0.0,1.5225,1.5734,1.6056,1.6303,1.6369,1.6136,1.6165,1.6238,1.6373,1.68,1.6822,1.6276,1.626,1.5936,1.5319,1.5479,1.5368,1.4942,1.5118,1.515,1.515,1.515,1.515,0.0,1.5355,1.5426,1.5488,1.5564,1.5583,1.5584,1.5384,1.5379,1.5316,0.0,0.0,0.0,0.0,0.0,0.0,0.0,0.9281,0.9497,1.0111,1.0077,1.0262,1.0954,1.1501,1.1827,1.1794,0.0,0.0,0.0,0.0,0.0,0.0,0.0,0.0,1.1015,1.0801,1.1134,1.1978,1.1818,1.2476,1.3954,1.3597,1.3255,1.2952,1.2592,0.0,0.0,0.0,0.0,0.0,0.0,0.0,0.0,0.0,0.0,0.0,0.0,0.0,0.0,0.0,0.0,0.0,0.0,0.0,0.0,0.0,0.0,0.0,0.0,0.0,0.0,0.0,1.2006,1.176,1.2047,1.1431,0.0,1.1348,1.0637,1.0099,1.0671,0.9942,0.9226,0.9166,0.9375,0.0,0.0,0.0,0.0,0.0,0.0,0.0,1.389,1.4701,1.5274,1.5579,1.5689,1.5863,1.6078,1.5349,1.4763,1.4378,1.5482,1.6051,1.6051,1.5406,1.482,1.4311,1.431,1.4061,1.3562,1.3922,1.4091,1.4099,1.4122,1.4114,1.4091,1.4585,1.4783,1.4798,1.5026,1.5104,1.5086,1.4734,1.4577,1.4462,0.0,0.0,0.0,0.0,0.0,0.0,0.0,0.0,0.0,0.0,0.9047,0.9091,0.9275,0.9858,1.0405,0.0,0.0,0.0,0.0,0.0,0.0,0.0,0.0,0.0,1.1085,1.0873,1.1134,1.1919,1.189,1.2396,1.3475,1.3526,1.3196,1.254,1.2595,1.2212,0.0,0.0,0.0,0.0,0.0,0.0,0.0,0.0,0.0,0.0,0.0,1.0362,0.0,0.0,0.0,0.0,0.0,0.0,0.0,0.0,0.8239,0.8378,0.9439,0.0,0.9716,1.0407,1.0618,1.0727,0.0,1.0697,0.0,0.0,0.0,0.0,0.0,0.9118,0.8947,0.0,0.0,0.0,0.0,0.0,0.0,0.0,0.0,1.3042,1.3571,1.4072,1.4421,1.4475,1.4763,1.4767,1.443,1.4231,1.3908,1.3361,1.3451,1.3485,1.3485,1.3621,1.3322,1.2602,1.322,1.3235,1.2856,1.3462,1.3738,1.3753,1.4014,1.3984,1.3738,1.3871,1.3793,1.3619,1.4079,1.4188,1.4197,1.4192,1.4219,1.4096,0.0,0.0,0.0,0.0,0.0,0.0,0.0,0.0,0.0,0.0,0.0,0.8679,0.866,0.9281,0.0,0.0,0.0,0.0,0.0,0.0,0.0,0.0,0.0,1.1239,1.1085,1.0897,1.1211,1.2095,1.1877,1.2163,1.2938,1.3037,1.2623,1.1774,1.1803,1.1643,0.0,0.0,0.0,0.0,0.0,0.0,0.0,0.0,0.0,0.0,0.9684,0.9761,0.0,0.9653,0.9528,0.9403,0.0,0.0,0.0,0.0,0.7679,0.7553,0.783,0.8591,0.9466,1.0025,1.0114,1.0058,0.0,0.0,0.0,0.0,0.0,0.0,0.0,0.0,0.0,0.0,0.0,0.0,0.0,0.0,0.0,0.0,0.0,1.2297,0.0,1.3021,1.3208,1.3435,1.342,1.3381,1.3257,1.2733,1.239,1.2253,1.1561,1.1668,1.2595,1.2641,1.2345,1.1685,1.2253,1.2262,1.1906,1.2337,1.256,1.2567,1.281,1.2789,1.2629,1.2912,1.2953,1.2841,1.3146,1.3281,1.3298,1.3004,1.3002,1.3048,0.0,0.0,0.0,0.0,0.0,0.0,0.0,0.0,0.0,0.0,0.0,0.0,0.0,0.0,0.0,0.0,0.0,0.0,0.0,0.0,0.0,0.0,1.1376,1.1262,1.1132,1.0944,1.1298,1.2206,1.1764,1.1852,1.2418,1.2399,1.1869,1.0986,1.0775,1.0801,0.0,0.0,0.0,0.0,0.0,0.0,0.0,0.0,0.0,0.0,0.0,0.0,0.0,0.9112,0.8933,0.8756,0.8662,0.0,0.0,0.0,0.0,0.0,0.6605,0.7929,0.946,0.9862,0.9716,0.9524,0.0,0.0,0.0,0.0,0.0,0.0,0.0,0.0,0.0,0.0,0.0,0.0,0.0,0.0,0.0,0.0,0.0,0.0,1.1926,1.1988,1.2165,1.2503,1.2203,1.2165,1.2511,1.1446,1.0996,1.1303,1.0155,1.0392,1.2198,1.1803,1.1421,1.1052,1.1247,1.1177,1.0797,1.1088,1.122,1.1295,1.1341,1.1334,1.1356,1.1906,1.2087,1.2083,1.2253,1.2334,1.2232,1.1619,1.1586,1.1732,0.0,0.0,0.0,0.0,0.0,0.0,0.0,0.0,0.0,0.0,0.0,0.0,0.0,0.0,0.0,0.0,0.0,0.0,0.0,0.0,0.0,1.1593,1.1407,1.1285,1.1285,1.1132,1.1266,1.1709,1.1455,1.1577,1.1989,1.1822,1.1454,1.0973,1.0392,1.0311,1.0597,1.0597,0.0,0.0,0.0,0.0,0.0,0.0,0.0,0.0,0.0,0.0,0.0,0.8985,0.9081,0.8971,0.8561,0.0,0.0,0.0,0.0,0.0,0.7085,0.7486,0.7865,0.7936,0.8219,0.866,0.0,0.0,0.0,0.0,0.0,0.0,0.0,0.0,0.0,0.0,0.0,0.0,0.0,0.0,0.0,0.0,0.0,1.1178,1.1926,1.1988,1.2011,1.2119,1.2011,1.2011,1.2119,1.1512,1.124,1.1303,1.0421,1.0066,1.0424,1.0053,0.9837,0.9773,0.9817,0.9771,0.9719,1.0054,1.039,1.0676,1.0846,1.1018,1.1062,1.1195,1.1046,1.088,1.1016,1.1059,1.1052,1.1108,1.1142,1.1087,0.0,0.0,0.0,0.0,0.0,0.0,0.0,0.0,0.0,0.0,0.0,0.0,0.0,0.0,0.0,0.0,0.0,0.0,0.0,0.0,1.1389,1.1688,1.1519,1.1376,1.1307,1.1155,1.144,1.213,1.1896,1.1832,1.1936,1.1017,1.0451,1.0164,1.0058,1.0097,1.0298,1.0449,0.0,0.0,0.0,0.0,0.0,0.0,0.0,0.0,0.0,0.0,0.0,0.0,0.876,0.8811,0.8495,0.0,0.0,0.0,0.0,0.0,0.673,0.6739,0.687,0.7473,0.7865,0.8206,0.0,0.0,0.0,0.0,0.0,0.0,0.0,0.0,0.0,0.0,0.0,0.0,0.0,0.0,0.0,0.0,0.0,1.0288,1.0856,1.0919,1.0989,1.124,1.124,1.124,1.124,1.08,1.0611,1.0611,0.9849,0.9466,0.9466,0.8823,0.8882,0.9518,0.9518,0.9518,0.9524,0.9645,0.9835,0.9978,0.9766,0.9742,0.9764,0.9498,0.9427,0.9582,0.964,0.9837,1.0098,1.0148,1.0078,0.9894,0.0,0.0,0.0,0.0,0.0,0.0,0.0,0.0,0.0,0.0,0.0,0.0,0.0,0.0,0.0,0.0,0.0,0.0,0.0,1.0633,1.1022,1.155,1.1513,1.1444,1.1353,1.132,1.1649,1.2361,1.2258,1.2029,1.1613,1.0168,0.9514,0.9514,0.9673,0.9829,0.997,1.0135,0.997,0.0,0.0,0.0,0.0,0.0,0.0,0.0,0.0,0.0,0.0,0.0,0.0,0.0,0.0,0.0,0.0,0.751,0.6996,0.6515,0.6443,0.629,0.6343,0.7235,0.0,0.0,0.0,0.0,0.0,0.0,0.0,0.0,0.0,0.0,0.0,0.0,0.0,0.0,0.0,0.9259,0.8935,0.9198,0.9198,0.9396,0.9849,0.9849,0.9977,1.0301,1.0364,1.0364,1.0364,0.9913,0.9722,0.9722,0.9011,0.8624,0.8624,0.7917,0.8042,0.9069,0.8935,0.8871,0.8871,0.8871,0.8871,0.8865,0.8544,0.8409,0.8345,0.8086,0.8221,0.8544,0.8415,0.8608,0.8871,0.8871,0.8748,0.856,0.0,0.0,0.0,0.0,0.0,0.0,0.0,0.0,0.0,0.0,0.0,0.0,0.0,0.0,0.0,0.0,0.0,0.0,0.0,1.0144,1.0812,1.0872,1.1278,1.1489,1.1489,1.1769,1.1857,1.1654,1.2084,1.1718,1.0587,0.9482,0.9155,0.9485,0.9143,0.9182,0.9538,0.9366,0.9155,0.8969,0.0,0.0,0.0,0.0,0.0,0.0,0.0,0.0,0.0,0.0,0.0,0.0,0.0,0.0,0.8043,0.7403,0.6786,0.6387,0.6749,0.6543,0.6273,0.6591,0.0,0.0,0.0,0.0,0.0,0.0,0.0,0.0,0.0,0.0,0.0,0.0,0.0,0.0,0.8366,0.0,0.7381,0.8166,0.8296,0.8619,0.9454,0.9518,0.9518,0.9582,0.9582,0.9582,0.9582,0.9064,0.8801,0.8801,0.7967,0.7517,0.7517,0.712,0.726,0.7792,0.7321,0.712,0.712,0.712,0.7111,0.7098,0.7377,0.7507,0.7493,0.7892,0.8027,0.8027,0.7642,0.7316,0.712,0.712,0.7055,0.712,0.0,0.0,0.0,0.0,0.0,0.0,0.0,0.0,0.0,0.0,0.0,0.0,0.0,0.0,0.0,0.0,0.0,0.0,0.0,0.9353,0.9965,1.0768,1.0929,1.0956,1.0878,1.1613,1.208,1.2225,1.206,1.1374,1.0166,0.9482,0.9101,0.9003,0.9101,0.9193,0.9255,0.9217,0.9031,0.8761,0.869,0.0,0.0,0.0,0.0,0.0,0.0,0.0,0.0,0.0,0.7784,0.8216,0.0,0.7898,0.8104,0.7064,0.6481,0.6185,0.6265,0.6074,0.6111,0.7067,0.0,0.0,0.0,0.0,0.0,0.0,0.0,0.0,0.0,0.0,0.0,0.0,0.0,0.8425,0.8043,0.7575,0.7241,0.7367,0.7381,0.7707,0.8619,0.8683,0.8807,0.9,0.8994,0.8865,0.8608,0.835,0.8156,0.7902,0.7582,0.719,0.6793,0.6334,0.6075,0.6079,0.6666,0.6793,0.6597,0.6597,0.6461,0.626,0.6071,0.5939,0.5935,0.58,0.5997,0.6531,0.6924,0.699,0.6924,0.6924,0.6924,0.6924,0.0,0.0,0.0,0.0,0.0,0.0,0.0,0.0,0.0,0.0,0.0,0.0,0.0,0.0,0.0,0.0,0.0,0.0,0.8559,0.8785,0.9278,1.0159,1.0313,1.0338,1.0249,1.1247,1.1802,1.1899,1.1513,1.0895,1.0067,0.9438,0.9003,0.8839,0.9031,0.9097,0.9081,0.8909,0.8668,0.8404,0.8128,0.7464,0.0,0.0,0.0,0.0,0.0,0.0,0.0,0.0,0.7157,0.7689,0.0,0.0,0.7811,0.6776,0.6267,0.6013,0.5755,0.5631,0.5834,0.0,0.0,0.0,0.0,0.0,0.0,0.0,0.0,0.0,0.0,0.0,0.0,0.0,0.8315,0.7993,0.7497,0.7102,0.6881,0.6823,0.6628,0.6793,0.7577,0.7512,0.7637,0.7957,0.7957,0.7892,0.7637,0.7507,0.7251,0.6994,0.6863,0.647,0.5877,0.555,0.5153,0.4888,0.5675,0.5935,0.5738,0.5738,0.554,0.5213,0.4951,0.4755,0.4688,0.442,0.4619,0.5216,0.587,0.6067,0.6067,0.6067,0.6067,0.6133,0.0,0.0,0.0,0.0,0.0,0.0,0.0,0.0,0.0,0.0,0.0,0.0,0.0,0.0,0.0,0.0,0.0,0.0,0.7899,0.8529,0.889,0.8905,0.941,0.9692,0.9692,1.0671,1.0907,1.0412,1.0336,1.0274,1.0261,0.9181,0.8828,0.9069,0.8811,0.8839,0.9046,0.8298,0.7918,0.7736,0.7007,0.6414,0.0,0.0,0.0,0.0,0.0,0.0,0.0,0.0,0.6477,0.6694,0.0,0.0,0.0,0.6539,0.6186,0.5884,0.5341,0.5261,0.0,0.0,0.0,0.0,0.0,0.0,0.0,0.0,0.0,0.0,0.0,0.0,0.0,0.7656,0.7306,0.6932,0.6442,0.6026,0.6018,0.6522,0.5971,0.5811,0.6334,0.6067,0.6001,0.6334,0.6396,0.6527,0.6859,0.6404,0.6075,0.6075,0.562,0.5229,0.4764,0.4764,0.4625,0.4287,0.4287,0.4287,0.4287,0.4287,0.409,0.3825,0.4154,0.409,0.3825,0.4156,0.4287,0.4287,0.4287,0.4287,0.4287,0.4287,0.4287,0.4353,0.0,0.0,0.0,0.0,0.0,0.0,0.0,0.0,0.0,0.0,0.0,0.0,0.0,0.0,0.0,0.0,0.0,0.0,0.7899,0.8079,0.8409,0.8875,0.9052,0.9089,0.9004,0.9058,0.9747,1.1096,1.0285,0.9632,0.9164,0.8664,0.8284,0.806,0.8319,0.8284,0.8013,0.7604,0.7346,0.7202,0.6859,0.6368,0.0,0.0,0.0,0.0,0.0,0.0,0.0,0.0,0.0,0.0,0.5991,0.0,0.6704,0.5656,0.5601,0.5771,0.5262,0.0,0.0,0.0,0.0,0.0,0.0,0.0,0.0,0.0,0.0,0.0,0.0,0.0,0.0,0.716,0.6738,0.6258,0.5711,0.5549,0.5374,0.5231,0.5041,0.5042,0.547,0.5415,0.5348,0.5481,0.5481,0.5481,0.5422,0.5289,0.5156,0.5156,0.5027,0.4694,0.4092,0.4092,0.3892,0.3558,0.3558,0.3692,0.3956,0.3956,0.3758,0.336,0.3491,0.3491,0.3426,0.3758,0.3956,0.3956,0.422,0.4287,0.4287,0.4287,0.4287,0.4353,0.0,0.0,0.0,0.0,0.0,0.0,0.0,0.0,0.0,0.0,0.0,0.0,0.0,0.0,0.0,0.0,0.0,0.0,0.0,0.7899,0.8079,0.8484,0.8514,0.8691,0.9092,0.8774,0.9357,1.0895,0.9724,0.8898,0.8369,0.8181,0.7911,0.7611,0.7911,0.7888,0.7577,0.7136,0.688,0.6723,0.6278,0.5849,0.5465,0.0,0.0,0.0,0.0,0.0,0.0,0.0,0.0,0.0,0.0,0.0,0.0,0.5305,0.5367,0.5605,0.5274,0.0,0.0,0.0,0.0,0.0,0.0,0.0,0.0,0.0,0.0,0.0,0.0,0.7015,0.0,0.6416,0.615,0.5868,0.5313,0.5155,0.5038,0.4748,0.4385,0.4281,0.4466,0.4415,0.4369,0.4553,0.4556,0.4558,0.4625,0.4625,0.4628,0.47,0.47,0.45,0.4033,0.3897,0.3629,0.3226,0.3226,0.336,0.3558,0.3558,0.3426,0.3226,0.3226,0.3228,0.323,0.3493,0.3558,0.3558,0.3758,0.3889,0.3889,0.3889,0.3889,0.3892,0.0,0.0,0.0,0.0,0.0,0.0,0.0,0.0,0.0,0.0,0.0,0.0,0.0,0.0,0.0,0.0,0.0,0.0,0.0,0.7899,0.7899,0.7899,0.7959,0.8556,0.9769,0.9375,0.9441,1.0045,0.8804,0.8088,0.7872,0.7784,0.764,0.7472,0.7585,0.7563,0.7427,0.6808,0.6452,0.6265,0.5521,0.5146,0.501,0.4852,0.0,0.0,0.0,0.0,0.0,0.0,0.0,0.0,0.5459,0.5511,0.5411,0.5266,0.5338,0.5479,0.0,0.0,0.0,0.0,0.0,0.0,0.0,0.0,0.0,0.0,0.0,0.0,0.0,0.6154,0.5932,0.5542,0.555,0.55,0.5069,0.4862,0.4782,0.4735,0.3971,0.3475,0.3509,0.3268,0.324,0.3723,0.373,0.386,0.4188,0.4199,0.4345,0.4556,0.45,0.4306,0.4043,0.3837,0.35,0.3228,0.3228,0.3228,0.3228,0.3226,0.3226,0.3226,0.3092,0.3029,0.3034,0.3027,0.3092,0.3228,0.3228,0.3228,0.3228,0.3228,0.3228,0.3228,0.0,0.0,0.0,0.0,0.0,0.0,0.0,0.0,0.0,0.0,0.0,0.0,0.0,0.0,0.0,0.0,0.0,0.0,0.0,0.7899,0.7899,0.7899,0.8409,0.9276,1.0535,0.9413,0.9065,0.9551,0.8234,0.7583,0.7588,0.7356,0.7019,0.6592,0.6927,0.6791,0.6345,0.6189,0.5982,0.5753,0.5465,0.5271,0.5136,0.4882,0.4793,0.0,0.0,0.0,0.0,0.0,0.0,0.0,0.5114,0.5095,0.4967,0.4682,0.502,0.5507,0.0,0.0,0.0,0.0,0.0,0.0,0.0,0.0,0.0,0.0,0.0,0.0,0.5882,0.5614,0.5289,0.5175,0.4736,0.4349,0.4242,0.4048,0.3823,0.3685,0.3487,0.3306,0.3158,0.3045,0.3055,0.3143,0.3145,0.3268,0.3451,0.3462,0.3704,0.4367,0.3522,0.2822,0.222,0.2153,0.249,0.3167,0.3167,0.3167,0.3167,0.3228,0.3226,0.3159,0.2285,0.1951,0.1951,0.195,0.2423,0.3167,0.3167,0.3167,0.3167,0.3167,0.3167,0.3167,0.0,0.0,0.0,0.0,0.0,0.0,0.0,0.0,0.0,0.0,0.0,0.0,0.0,0.0,0.0,0.0,0.0,0.0,0.0,0.7928,0.7899,0.7899,0.8544,0.9203,0.9875,0.9168,0.8888,0.9072,0.7944,0.7292,0.7116,0.7211,0.6887,0.6278,0.6813,0.6657,0.5984,0.5929,0.5819,0.567,0.5404,0.5252,0.5117,0.4852,0.4713,0.4664,0.4664,0.0,0.0,0.0,0.0,0.0,0.0,0.0,0.479,0.4679,0.4917,0.5256,0.0,0.0,0.0,0.0,0.0,0.0,0.0,0.0,0.0,0.0,0.0,0.0,0.523,0.4956,0.4739,0.4574,0.4411,0.4193,0.3971,0.3755,0.3556,0.3447,0.3163,0.2969,0.2885,0.2893,0.2974,0.3022,0.228,0.1847,0.1907,0.225,0.2586,0.2967,0.2951,0.2262,0.084,0.084,0.1357,0.246,0.2457,0.2408,0.2443,0.2945,0.3232,0.3165,0.2626,0.1751,0.0808,0.0807,0.1133,0.1714,0.2242,0.2421,0.246,0.2428,0.275,0.3182,0.0,0.0,0.0,0.0,0.0,0.0,0.0,0.0,0.0,0.0,0.0,0.0,0.0,0.0,0.0,0.0,0.0,0.0,0.0,0.7941,0.7944,0.8064,0.8604,0.895,0.907,0.8949,0.8809,0.8678,0.7798,0.7193,0.6894,0.7155,0.6933,0.6296,0.6844,0.6689,0.6034,0.5911,0.5848,0.5793,0.5385,0.5194,0.5098,0.4822,0.4633,0.4535,0.4535,0.4613,0.4711,0.4691,0.0,0.0,0.0,0.0,0.4683,0.4823,0.4846,0.4933,0.0,0.0,0.0,0.0,0.0,0.0,0.0,0.0,0.0,0.0,0.0,0.4904,0.4574,0.4463,0.4353,0.4135,0.4196,0.4144,0.3699,0.3368,0.3203,0.3203,0.2635,0.232,0.2445,0.2568,0.2657,0.2728,0.1333,0.0364,0.0121,0.067,0.11,0.1345,0.2157,0.1793,0.0,-0.0185,0.0123,0.0988,0.111,0.1186,0.1216,0.2101,0.2737,0.3169,0.2817,0.1672,0.0,0.0,0.0,0.0064,0.0959,0.1323,0.1297,0.1077,0.1576,0.2358,0.0,0.0,0.0,0.0,0.0,0.0,0.0,0.0,0.0,0.0,0.0,0.8858,0.8729,0.862,0.0,0.0,0.0,0.0,0.7996,0.0,0.0,0.874,0.8845,0.9175,0.974,0.9072,0.8678,0.8612,0.7622,0.7327,0.0,0.0,0.6765,0.6547,0.6581,0.6438,0.6183,0.6153,0.6086,0.5933,0.5528,0.5339,0.5233,0.4841,0.4691,0.4662,0.4662,0.4722,0.4773,0.4653,0.4662,0.0,0.0,0.0,0.0,0.4604,0.4592,0.0,0.0,0.0,0.0,0.0,0.0,0.0,0.0,0.0,0.0,0.0,0.512,0.4574,0.4519,0.4242,0.4135,0.4366,0.3869,0.3198,0.2521,0.1962,0.1628,0.1628,0.1008,0.084,0.135,0.1407,0.1468,0.1535,0.0852,-0.017,-0.1421,-0.1401,-0.0889,0.0178,0.0365,0.0309,0.0,-0.105,-0.1483,-0.136,-0.0803,-0.0557,-0.0559,-0.0436,0.0964,0.3098,0.1246,0.026,0.0,0.0,0.0,0.0,0.0186,0.0186,0.0062,-0.093,-0.124,-0.1174,0.0,0.0,0.0,0.0,0.0,0.0,0.0,0.0,0.0,0.0,0.0,0.9002,0.8829,0.8681,0.0,0.0,0.0,0.0,0.7884,0.7855,0.0,0.8166,0.8165,0.8298,0.8607,0.8265,0.8057,0.8041,0.7471,0.0,0.0,0.7457,0.7306,0.0,0.7407,0.7157,0.6746,0.6367,0.6177,0.6068,0.5678,0.554,0.5511,0.4975,0.4815,0.4889,0.4671,0.4604,0.4624,0.4472,0.4541,0.4691,0.4564,0.0,0.0,0.0,0.0,0.0,0.0,0.0,0.0,0.0,0.0,0.0,0.0,0.0,0.0,0.0,0.5285,0.4739,0.4519,0.4242,0.4024,0.3974,0.3249,0.2465,0.1793,0.1065,0.0336,-0.0336,-0.0392,-0.0392,-0.0448,0.0056,0.028,0.0056,-0.0505,-0.1122,-0.1741,-0.1822,-0.1549,-0.1032,-0.0697,-0.0527,-0.0527,-0.1054,-0.1465,-0.1819,-0.1552,-0.1384,-0.1385,-0.141,-0.0376,0.1347,0.038,0.0,0.0,0.0,-0.0428,-0.1023,-0.1023,-0.107,-0.1289,-0.1852,-0.2258,-0.2521,0.0,0.0,0.0,0.0,0.0,0.0,0.0,0.0,0.0,0.0,0.0,0.0,0.8913,0.0,0.0,0.0,0.0,0.0,0.7812,0.0,0.0,0.0,0.7605,0.7605,0.7605,0.7589,0.7545,0.7514,0.0,0.0,0.812,0.7894,0.8064,0.0,0.8267,0.7826,0.0,0.0,0.0,0.0,0.6015,0.5867,0.583,0.539,0.5253,0.5255,0.4799,0.4661,0.0,0.0,0.0,0.0,0.0,0.0,0.0,0.0,0.0,0.0,0.0,0.0,0.0,0.0,0.0,0.0,0.0,0.0,0.0,0.0,0.5668,0.523,0.468,0.4187,0.3802,0.3583,0.2856,0.2017,0.1122,0.028,-0.0617,-0.1685,-0.1403,-0.1291,-0.1741,-0.1122,-0.0785,-0.1122,-0.1572,-0.1797,-0.1797,-0.1797,-0.1797,-0.1797,-0.1347,-0.1234,-0.1457,-0.1401,-0.157,-0.2021,-0.1901,-0.1807,-0.1808,-0.1792,-0.1328,-0.0422,-0.0304,-0.0122,-0.0,-0.0423,-0.1308,-0.2448,-0.2213,-0.2234,-0.2413,-0.2533,-0.2858,-0.3256,0.0,0.0,0.0,0.0,0.0,0.0,0.0,0.0,0.0,0.0,0.0,0.0,0.8913,0.884,0.8755,0.8653,0.0,0.0,0.0,0.0,0.0,0.0,0.0,0.0,0.7605,0.753,0.7438,0.7314,0.0,0.0,0.8482,0.8334,0.8813,0.9767,0.875,0.7964,0.7387,0.0,0.0,0.0,0.0,0.6349,0.6094,0.6261,0.6116,0.5795,0.5249,0.0,0.0,0.0,0.0,0.0,0.0,0.4256,0.4326,0.0,0.0,0.0,0.0,0.0,0.0,0.0,0.0,0.0,0.0,0.0,0.0,0.0,0.6327,0.5996,0.4893,0.4128,0.3527,0.3357,0.2968,0.2073,0.0336,-0.0449,-0.1066,-0.1741,-0.1797,-0.1741,-0.1797,-0.1741,-0.1741,-0.1741,-0.1797,-0.1797,-0.1797,-0.1797,-0.1797,-0.1797,-0.1797,-0.2133,-0.2974,-0.2749,-0.2635,-0.2635,-0.208,-0.1802,-0.1802,-0.1805,-0.175,-0.1696,-0.1108,-0.0531,-0.0118,-0.1483,-0.2986,-0.4294,-0.337,-0.3023,-0.3077,-0.3421,-0.3532,-0.3583,0.0,0.0,0.0,0.0,0.0,0.0,0.0,0.0,0.0,0.0,0.0,0.0,0.0,0.8801,0.8509,0.7978,0.7644,0.0,0.0,0.0,0.0,0.0,0.0,0.0,0.0,0.7453,0.7376,0.0,0.0,0.7284,0.7853,0.7766,0.7876,0.8183,0.8268,0.8143,0.7798,0.696,0.0,0.0,0.0,0.0,0.6285,0.6333,0.6376,0.6347,0.0,0.0,0.0,0.0,0.0,0.0,0.4125,0.4091,0.4112,0.4125,0.0,0.0,0.0,0.0,0.0,0.0,0.0,0.0,0.0,0.0,0.0,0.6869,0.6431,0.5828,0.5222,0.4457,0.3796,0.3244,0.2912,0.2465,0.1849,0.0224,-0.0898,-0.0842,-0.1403,-0.1797,-0.1797,-0.1797,-0.1797,-0.1797,-0.2076,-0.2244,-0.2244,-0.2521,-0.2631,-0.2631,-0.2631,-0.2798,-0.3079,-0.3023,-0.2965,-0.2965,-0.2465,-0.2244,-0.2244,-0.1965,-0.1797,-0.1798,-0.1592,-0.1372,-0.1199,-0.1915,-0.2635,-0.3368,-0.3418,-0.3466,-0.3574,-0.3688,-0.4021,-0.446,0.0,0.0,0.0,0.0,0.0,0.0,0.0,0.0,0.9375,0.9226,0.0,0.0,0.0,0.0,0.8434,0.7802,0.7531,0.7515,0.7783,0.7709,0.0,0.0,0.0,0.0,0.0,0.7407,0.7329,0.7203,0.7058,0.7179,0.0,0.7355,0.7367,0.7481,0.7672,0.7745,0.0,0.0,0.0,0.6214,0.0,0.0,0.6518,0.6671,0.68,0.6794,0.0,0.0,0.0,0.0,0.0,0.0,0.0,0.4071,0.3926,0.3863,0.0,0.0,0.0,0.0,0.0,0.0,0.0,0.0,0.0,0.0,0.6875,0.695,0.6436,0.5882,0.5386,0.4783,0.4067,0.3241,0.2856,0.2691,0.2695,0.1008,-0.0336,-0.0729,-0.1403,-0.1797,-0.1797,-0.1797,-0.1797,-0.1797,-0.2244,-0.2521,-0.2521,-0.2854,-0.3074,-0.3074,-0.3241,-0.3352,-0.3352,-0.3352,-0.3352,-0.3352,-0.291,-0.2687,-0.2687,-0.2354,-0.2242,-0.2242,-0.2242,-0.2188,-0.2132,-0.2408,-0.2798,-0.336,-0.3749,-0.4021,-0.4181,-0.4181,-0.4512,-0.5062,0.0,0.0,0.0,0.0,0.0,0.0,0.0,0.0,0.9282,0.9216,0.0,0.0,0.0,0.0,0.0,0.8232,0.8191,0.8082,0.7812,0.7797,0.0,0.0,0.0,0.0,0.7499,0.7438,0.7329,0.7203,0.7058,0.7149,0.7465,0.7201,0.7392,0.7908,0.7054,0.675,0.686,0.0,0.6712,0.6614,0.0,0.6989,0.6774,0.0,0.0,0.0,0.6477,0.6235,0.0,0.5753,0.0,0.0,0.0,0.4223,0.3759,0.3548,0.3646,0.0,0.0,0.0,0.0,0.0,0.0,0.0,0.0,0.0,0.6433,0.6625,0.6538,0.615,0.5441,0.4948,0.4343,0.3297,0.291,0.2693,0.2701,0.1849,0.0503,-0.1459,-0.1741,-0.1797,-0.1797,-0.1797,-0.1797,-0.1797,-0.2242,-0.2521,-0.2521,-0.291,-0.313,-0.313,-0.3574,-0.3796,-0.3796,-0.3796,-0.3796,-0.3796,-0.3352,-0.313,-0.313,-0.313,-0.3074,-0.3074,-0.3074,-0.2965,-0.2747,-0.3021,-0.3691,-0.4477,-0.4522,-0.468,-0.4897,-0.4897,-0.5062,-0.5386,0.0,0.0,0.0,0.0,0.0,0.9577,0.9509,0.9394,0.9282,0.0,0.0,0.0,0.884,0.8665,0.8492,0.8356,0.8164,0.8025,0.7955,0.7855,0.7783,0.7739,0.7635,0.7545,0.7499,0.7484,0.7376,0.7203,0.7058,0.6923,0.6782,0.6705,0.6626,0.6537,0.6307,0.6105,0.5969,0.6143,0.0,0.618,0.6403,0.6683,0.0,0.0,0.0,0.0,0.0,0.6895,0.652,0.0,0.5796,0.5217,0.0,0.0,0.0,0.3408,0.0,0.0,0.3538,0.0,0.0,0.0,0.0,0.0,0.0,0.0,0.0,0.6369,0.5937,0.5452,0.5341,0.4677,0.4021,0.3524,0.319,0.2912,0.2749,0.1847,0.1007,0.0505,-0.0898,-0.1797,-0.1797,-0.1797,-0.1965,-0.2298,-0.2687,-0.3077,-0.3408,-0.3852,-0.4128,-0.4128,-0.4239,-0.4298,-0.4298,-0.4298,-0.4298,-0.4294,-0.3852,-0.363,-0.3574,-0.3241,-0.3074,-0.3074,-0.3074,-0.3241,-0.3519,-0.3793,-0.3959,-0.4021,-0.457,-0.4846,-0.4897,-0.4897,-0.5234,-0.5732,0.0,0.0,0.0,0.9517,0.9525,0.9527,0.9421,0.932,0.9214,0.0,0.0,0.0,0.8736,0.8616,0.8483,0.8327,0.8178,0.8039,0.797,0.7884,0.7841,0.7841,0.7739,0.7665,0.7635,0.7545,0.7438,0.7329,0.7155,0.6914,0.6583,0.6465,0.6236,0.59,0.5793,0.57,0.5603,0.5652,0.0,0.0,0.638,0.0,0.0,0.7405,0.7656,0.0,0.0,0.0,0.681,0.6688,0.6209,0.0,0.0,0.0,0.0,0.0,0.0,0.0,0.0,0.0,0.0,0.0,0.0,0.0,0.4697,0.4837,0.0,0.0,0.5514,0.5127,0.5184,0.4649,0.4079,0.3638,0.3413,0.319,0.2747,0.1847,0.112,0.0785,-0.0336,-0.1234,-0.1741,-0.1797,-0.202,-0.2465,-0.2854,-0.3408,-0.4073,-0.4349,-0.4519,-0.4519,-0.4519,-0.4519,-0.4519,-0.4519,-0.4519,-0.4519,-0.4239,-0.4073,-0.4073,-0.3796,-0.3685,-0.3685,-0.3685,-0.3852,-0.4128,-0.4401,-0.4346,-0.4128,-0.457,-0.4787,-0.4901,-0.5007,-0.5504,-0.6119,0.0,0.0,0.9491,0.95,0.9492,0.9439,0.9321,0.9231,0.9137,0.0,0.8858,0.8736,0.8604,0.8592,0.8504,0.8245,0.8218,0.8152,0.7971,0.7928,0.7914,0.7914,0.7856,0.7812,0.7797,0.762,0.7499,0.7469,0.7282,0.7012,0.6668,0.6406,0.6129,0.5793,0.556,0.5492,0.5558,0.5309,0.0,0.5371,0.6705,0.722,0.0,0.0,0.8188,0.8115,0.7553,0.7245,0.7088,0.7102,0.6682,0.0,0.0,0.0,0.0,0.0,0.3795,0.0,0.0,0.0,0.0,0.0,0.0,0.0,0.4739,0.4631,0.4469,0.0,0.5103,0.503,0.5073,0.4729,0.4226,0.3687,0.3602,0.3403,0.2802,0.1906,0.0954,0.0112,0.0,-0.0449,-0.1572,-0.1741,-0.202,-0.2521,-0.3021,-0.363,-0.4463,-0.4519,-0.4519,-0.4519,-0.4519,-0.4519,-0.4519,-0.4515,-0.4519,-0.4574,-0.4625,-0.468,-0.468,-0.4736,-0.4736,-0.468,-0.4736,-0.468,-0.457,-0.4897,-0.4791,-0.4519,-0.457,-0.4736,-0.4952,-0.5281,-0.5832,-0.6495,0.0,0.9457,0.9439,0.9492,0.9412,0.9331,0.9312,0.9157,0.9001,0.8925,0.8755,0.8616,0.8517,0.8521,0.8508,0.8457,0.8396,0.8343,0.8303,0.8096,0.7983,0.7983,0.7913,0.7856,0.7797,0.7665,0.7499,0.7345,0.7139,0.6865,0.6544,0.6383,0.6129,0.5793,0.5737,0.5606,0.5427,0.0,0.0,0.6205,0.6749,0.0,0.7809,0.843,0.8736,0.88,0.8522,0.8103,0.7735,0.7738,0.7518,0.7138,0.0,0.0,0.0,0.4032,0.386,0.3986,0.3656,0.0,0.0,0.0,0.0,0.0,0.4049,0.4212,0.4437,0.0,0.4716,0.4561,0.4967,0.4411,0.3875,0.3778,0.3766,0.3522,0.28,0.1909,0.0954,0.0112,0.0,-0.028,-0.101,-0.1515,-0.2132,-0.291,-0.3741,-0.4298,-0.4519,-0.4519,-0.4519,-0.4519,-0.4519,-0.4519,-0.4519,-0.4736,-0.4846,-0.4846,-0.5441,-0.571,-0.571,-0.6041,-0.6041,-0.571,-0.6041,-0.5664,-0.4901,-0.5492,-0.5277,-0.4519,-0.4952,-0.5171,-0.5281,-0.5567,-0.6168,-0.6825,0.0,0.9421,0.9466,0.9501,0.9394,0.9303,0.9311,0.9136,0.9116,0.9399,0.9309,0.9038,0.8603,0.8542,0.853,0.8508,0.8435,0.8369,0.8301,0.8123,0.8039,0.8094,0.797,0.7914,0.7898,0.7695,0.7545,0.7453,0.7219,0.696,0.6693,0.6493,0.6224,0.5897,0.5756,0.5614,0.5492,0.0,0.5412,0.5972,0.6896,0.0,0.8735,0.9258,0.944,0.9367,0.9013,0.8521,0.7941,0.768,0.764,0.0,0.0,0.6328,0.592,0.0,0.45,0.4449,0.4025,0.0,0.0,0.41,0.0,0.0,0.0,0.4034,0.4152,0.4809,0.4708,0.4581,0.4846,0.4475,0.4048,0.3762,0.3739,0.3588,0.2913,0.1954,0.0952,0.0112,0.0,-0.0336,-0.1234,-0.1628,-0.2186,-0.3019,-0.3962,-0.4519,-0.4519,-0.4519,-0.4519,-0.4519,-0.4519,-0.457,-0.468,-0.4846,-0.5062,-0.5441,-0.5819,-0.6091,-0.6312,-0.6534,-0.648,-0.6312,-0.6529,-0.6263,-0.5769,-0.615,-0.5987,-0.555,-0.5391,-0.5441,-0.5714,-0.6,-0.6603,-0.7246,0.0,0.9375,0.9457,0.9457,0.9376,0.9293,0.9292,0.9154,0.9281,0.9924,1.0018,0.9762,0.9113,0.9035,0.9026,0.8961,0.8786,0.8626,0.8487,0.8253,0.8135,0.8234,0.8069,0.797,0.8011,0.7783,0.762,0.756,0.7329,0.7091,0.6858,0.6642,0.6348,0.5988,0.5774,0.0,0.0,0.0,0.0,0.5936,0.0,0.8077,0.9002,0.9674,0.9833,0.959,0.9244,0.8807,0.8314,0.7809,0.7973,0.8198,0.7164,0.7044,0.0,0.0,0.0,0.0,0.0,0.0,0.0,0.0,0.0,0.3689,0.0,0.0,0.0,0.4614,0.4582,0.0,0.0,0.0,0.0,0.3659,0.0,0.0,0.0,0.2113,0.0,0.0109,0.0,-0.0389,-0.1334,-0.1722,-0.2282,-0.313,-0.3996,-0.4433,-0.4515,-0.4519,-0.4519,-0.4519,-0.4519,-0.4625,-0.4897,-0.4952,-0.5332,-0.6091,-0.6199,-0.6529,-0.6912,-0.6966,-0.6966,-0.6912,-0.6966,-0.6912,-0.6696,-0.6858,-0.6804,-0.6642,-0.5932,-0.5878,-0.6253,-0.6485,-0.7139,-0.7723,0.9239,0.9236,0.9259,0.9303,0.9311,0.9301,0.9303,0.9231,0.9392,1.0008,1.0491,1.0743,1.0646,1.0629,1.0646,1.0632,1.0024,0.9603,0.9533,0.8844,0.8419,0.8382,0.8247,0.8123,0.8011,0.7911,0.7724,0.7422,0.7329,0.7091,0.6723,0.6689,0.6443,0.6,0.597,0.0,0.0,0.0,0.6061,0.0,0.7308,0.7083,0.0,0.8721,0.9277,0.9087,0.9084,0.9259,0.935,0.0,0.9512,1.0094,0.0,0.857,0.8798,0.6927,0.0,0.0,0.0,0.0,0.0,0.0,0.483,0.0,0.0,0.0,0.4169,0.3962,0.0,0.0,0.0,0.0,0.0,0.0,0.0,0.0,0.3041,0.2711,0.1908,0.0195,0.0,-0.0054,-0.0214,-0.1495,-0.2649,-0.3463,-0.3971,-0.4328,-0.4512,-0.4519,-0.4519,-0.4519,-0.4519,-0.4625,-0.4897,-0.5117,-0.5609,-0.6381,-0.7031,-0.7568,-0.8055,-0.8374,-0.8374,-0.8055,-0.8374,-0.7996,-0.7085,-0.7735,-0.7622,-0.7025,-0.6918,-0.6918,-0.7031,-0.73,-0.7681,-0.8109,0.9224,0.9224,0.0,0.9303,0.9303,0.932,0.9348,0.9924,1.0453,1.0698,1.1242,1.1438,0.0,0.0,0.0,0.0,0.0,1.022,0.0,0.0,0.8931,0.8489,0.8301,0.8205,0.8234,0.8025,0.784,0.7695,0.7424,0.7219,0.7042,0.6807,0.6552,0.6302,0.6368,0.0,0.6117,0.0,0.6245,0.0,0.0,0.0,0.0,0.8954,0.9883,0.9795,0.9609,0.9647,0.9743,0.0,0.9779,0.0,0.0,0.0,0.0,0.7893,0.0,0.0,0.0,0.0,0.0,0.0,0.0,0.0,0.4351,0.0,0.4103,0.0,0.0,0.0,0.0,0.0,0.0,0.0,0.3637,0.0,0.0,0.0,0.261,0.167,0.0,0.0,0.0,-0.0839,-0.1991,-0.335,-0.3735,-0.4091,-0.4453,-0.4519,-0.4519,-0.4519,-0.4519,-0.4625,-0.4897,-0.5171,-0.5828,-0.6815,-0.73,-0.7842,-0.854,-0.8705,-0.8699,-0.854,-0.8752,-0.854,-0.8109,-0.858,-0.858,-0.8309,-0.8514,-0.8296,-0.799,-0.8096,-0.8521,-0.8995,0.0,0.0,0.0,0.9282,0.9293,0.9419,0.9679,1.0592,1.1332,1.1552,1.2092,0.0,1.2286,1.2084,0.0,0.0,1.1952,1.1338,0.0,0.0,0.9511,0.9169,0.857,0.8409,0.8722,0.8243,0.7954,0.7897,0.7606,0.7408,0.7298,0.696,0.6693,0.6517,0.6712,0.6646,0.6423,0.0,0.6579,0.6168,0.6739,0.6939,0.7089,0.9166,1.0137,1.0409,1.0192,1.0184,1.0311,1.0048,1.024,1.0449,0.9943,0.9751,0.9607,0.0,0.0,0.0,0.7347,0.0,0.0,0.0,0.0,0.0,0.0,0.0,0.0,0.0,0.0,0.0,0.0,0.0,0.374,0.3413,0.0,0.3476,0.0,0.2783,0.0,0.0,0.0,0.0,0.0,-0.0296,-0.1121,-0.2673,-0.337,-0.3952,-0.4446,-0.446,-0.4423,-0.4515,-0.4519,-0.4625,-0.4897,-0.5171,-0.5882,-0.7085,-0.7354,-0.7949,-0.8804,-0.8804,-0.8804,-0.8804,-0.8857,-0.891,-0.8903,-0.9211,-0.9316,-0.9316,-0.951,-0.9354,-0.8995,-0.8883,-0.9197,-0.9562,0.9313,0.9303,0.0,0.0,0.9318,0.9671,1.0438,1.1036,1.1681,1.2453,0.0,0.0,0.0,0.0,0.0,0.0,0.0,1.3278,1.3193,0.0,1.0101,1.0793,0.9262,0.8754,0.0,0.8659,0.8094,0.7897,0.7897,0.768,0.7298,0.7155,0.6881,0.6517,0.6923,0.7006,0.6887,0.6965,0.7251,0.7647,0.7869,0.8604,0.9529,0.0,0.9526,1.0567,1.0586,1.0966,1.1398,1.0967,1.1192,1.1531,1.074,1.0991,1.141,0.0,0.0,0.0,0.9179,0.8717,0.8044,0.6186,0.5893,0.5681,0.4264,0.4257,0.4446,0.0,0.0,0.0,0.4005,0.413,0.423,0.3983,0.4142,0.0,0.0,0.0,0.0,0.0,0.0,0.0,0.0,-0.0,-0.0438,-0.1381,-0.2949,-0.4084,-0.4505,-0.4312,-0.4321,-0.4515,-0.4519,-0.4625,-0.4897,-0.5171,-0.5882,-0.7085,-0.7354,-0.7949,-0.8804,-0.8804,-0.8804,-0.8804,-0.9061,-0.9211,-0.9211,-0.9458,-0.9562,-0.9562,-0.9614,-0.9725,-0.994,-0.9673,-0.9562,-0.9614,0.0,0.0,0.0,0.0,0.0,0.9831,1.1134,1.1814,1.2644,0.0,0.0,0.0,0.0,1.5375,1.5426,0.0,0.0,1.4519,1.4051,1.2655,0.0,0.0,0.0,0.9845,0.0,0.9215,0.8742,0.8234,0.8011,0.7797,0.7635,0.7266,0.6977,0.6783,0.0,0.752,0.0,0.0,0.0,0.0,0.0,0.9032,1.0004,0.955,0.9881,1.0624,1.0918,1.1283,1.1715,1.1713,1.1798,1.19,1.1657,1.1554,1.141,1.1049,1.0728,1.0415,1.0005,0.9607,0.895,0.7709,0.7045,0.6362,0.5162,0.4624,0.4237,0.3961,0.0,0.0,0.3755,0.3798,0.3744,0.344,0.344,0.3255,0.0,0.0,0.0,0.0,0.0,0.0,0.0,0.0,-0.0135,-0.0426,-0.1296,-0.2533,-0.4236,-0.4348,-0.4419,-0.4515,-0.4519,-0.4519,-0.4625,-0.5062,-0.5769,-0.675,-0.7246,-0.7949,-0.8804,-0.8804,-0.891,-0.9061,-0.9159,-0.9309,-0.9465,-0.9732,-0.9888,-0.9888,-1.0095,-1.0257,-1.0308,-0.9991,-0.9991,-1.0205,0.9646,0.0,0.0,0.0,0.0,0.0,1.1509,1.2429,0.0,0.0,1.4845,0.0,1.6272,0.0,1.6187,0.0,1.621,1.5563,1.4841,1.3939,0.0,1.2523,1.1613,0.0,0.0,0.9997,0.937,0.8607,0.8391,0.8094,0.7724,0.7376,0.7091,0.693,0.0,0.7761,0.7628,0.0,0.8241,0.0,0.0,0.9509,0.0,0.9935,1.0206,1.0938,1.1309,1.1676,1.2063,1.2337,1.2323,1.2224,1.2224,1.2017,1.176,1.166,1.1401,1.1082,1.0736,1.0387,0.9824,0.8585,0.7895,0.7092,0.5734,0.5262,0.4956,0.4392,0.4357,0.4326,0.4182,0.3899,0.3653,0.3398,0.3226,0.2848,0.0,0.1901,0.0,0.0,0.0,0.0,0.0,0.0,0.0,0.0,-0.027,-0.1227,-0.2951,-0.389,-0.4365,-0.4239,-0.4405,-0.4519,-0.4519,-0.4952,-0.555,-0.6421,-0.7025,-0.7788,-0.8593,-0.8752,-0.891,-0.9061,-0.9159,-0.9361,-0.9614,-0.9888,-1.0051,-1.0205,-1.0419,-1.0522,-1.047,-1.0265,-1.0308,-1.0522,0.0,0.0,0.0,0.0,1.0115,0.0,0.0,0.0,1.3995,0.0,1.5394,1.6296,1.7732,1.7241,1.7359,1.8748,1.7562,1.642,1.5664,1.4958,0.0,0.0,1.2522,1.1974,1.1792,1.0896,0.9954,0.0,0.0,0.8499,0.7605,0.7469,0.7219,0.693,0.7685,0.0,0.7484,0.8133,0.8544,0.8802,0.9451,1.0178,1.0812,1.0118,1.0487,1.1368,1.1659,1.2072,1.2529,1.2774,1.2725,1.2529,1.2529,1.2529,1.248,1.2224,1.2323,1.2332,1.1418,1.1175,1.0698,0.8915,0.841,0.785,0.5951,0.6206,0.6476,0.5301,0.5444,0.5664,0.5167,0.4536,0.3972,0.3799,0.338,0.2854,0.2169,0.0,0.0,0.0,0.0,0.0,0.0,0.0,0.0,0.0,-0.0037,0.0,0.0,-0.2966,-0.401,-0.3834,-0.4236,-0.446,-0.4519,-0.4791,-0.5277,-0.5977,-0.6696,-0.7461,-0.8168,-0.8593,-0.8804,-0.8857,-0.9113,-0.9361,-0.9614,-0.9888,-1.0205,-1.0522,-1.0522,-1.0522,-1.0522,-1.0522,-1.0522,-1.0522,1.0716,1.1004,1.128,0.0,1.1345,1.1687,0.0,0.0,0.0,0.0,1.7284,1.8017,1.8966,1.8753,1.8498,1.8317,1.7726,0.0,0.0,0.0,0.0,1.5033,1.4624,1.3609,1.1841,1.0994,1.0097,0.9142,0.0,0.0,0.7811,0.7545,0.7282,0.0,0.0,0.0,0.7956,0.8355,0.8849,0.9459,1.0632,1.1022,1.0921,1.0985,1.0751,1.0502,1.0915,1.1661,1.2529,1.2578,1.2686,1.2783,1.2783,1.2783,1.2783,1.2725,1.2578,1.2431,1.2224,1.1828,1.1375,1.0582,0.9643,0.8714,0.7754,0.7173,0.6608,0.6023,0.5998,0.5837,0.5112,0.4807,0.442,0.3632,0.3001,0.2434,0.0,0.0,0.0,0.1699,0.0,0.0,0.0,0.0,0.0,0.0,-0.0511,-0.1027,-0.1533,-0.2378,-0.3241,-0.4084,-0.4024,-0.4128,-0.4519,-0.4791,-0.5167,-0.5651,-0.6263,-0.7031,-0.7836,-0.8215,-0.8639,-0.9113,-0.9159,-0.9472,-0.9888,-0.9947,-1.0205,-1.0522,-1.0522,-1.0522,-1.0522,-1.0522,-1.0522,-1.0522,1.1636,0.0,0.0,1.295,0.0,0.0,1.3405,1.3966,0.0,1.6589,1.739,0.0,1.8818,1.8827,1.875,1.8598,1.8336,0.0,1.7652,0.0,0.0,1.6348,1.5939,1.4903,1.3148,1.2006,0.0,0.9591,0.0,0.85,0.7855,0.7665,0.0,0.0,0.0,0.8257,0.8013,0.8557,0.9275,1.0083,1.0622,1.1098,0.0,1.1063,1.0689,1.0351,1.0426,1.1062,1.1977,1.2382,1.2578,1.2735,1.2881,1.2881,1.2881,1.2881,1.2774,1.2627,1.2529,1.2175,1.1719,1.1006,1.0186,0.929,0.8248,0.7756,0.7318,0.6758,0.654,0.6279,0.5579,0.505,0.4372,0.3253,0.2719,0.0,0.0,0.0,0.0,0.0,0.1701,0.0,0.0,0.0948,0.0238,0.0034,-0.075,-0.1322,-0.1573,-0.218,-0.2764,-0.3395,-0.3784,-0.407,-0.4184,-0.4787,-0.5167,-0.5437,-0.6263,-0.6923,-0.7354,-0.8109,-0.8586,-0.8798,-0.9054,-0.942,-0.9836,-0.9947,-1.0205,-1.0522,-1.0522,-1.0522,-1.0522,-1.0522,-1.0522,-1.0522,1.2722,0.0,0.0,0.0,0.0,0.0,0.0,1.4904,0.0,1.6395,0.0,1.7733,1.8416,1.8586,1.8791,1.9194,0.0,1.8694,1.7764,1.8998,1.9062,1.7437,1.6861,1.602,1.4841,1.3302,1.1716,0.0,0.9877,0.9112,0.7827,0.7812,0.0,0.0,0.0,0.0,0.0,0.8792,0.9713,1.054,1.0283,1.0907,1.1932,1.0914,1.0607,1.0602,1.0218,1.0541,1.1226,1.2026,1.2382,1.2529,1.2774,1.2881,1.2881,1.2881,1.2881,1.2832,1.2627,1.2382,1.1918,1.0931,1.0372,0.9708,0.8373,0.8215,0.8182,0.7499,0.7149,0.6794,0.6279,0.5186,0.4021,0.2924,0.0,0.0,0.0,0.0,0.0,0.0,0.0,0.0,0.0,0.0,0.0,0.0,-0.0752,-0.125,-0.13,-0.2018,-0.2429,-0.2426,-0.3553,-0.4015,-0.3852,-0.4842,-0.5277,-0.5336,-0.6485,-0.6982,-0.6982,-0.8168,-0.854,-0.8328,-0.8949,-0.9361,-0.9614,-0.9888,-1.0205,-1.0522,-1.0573,-1.0573,-1.0573,-1.0624,-1.0667,-1.0718,0.0,0.0,0.0,0.0,0.0,1.638,1.6913,1.6506,1.6901,1.9017,1.9408,1.9781,2.0507,2.0492,2.0149,1.9425,1.9843,0.0,0.0,0.0,0.0,1.8334,1.817,1.7084,1.4857,1.3291,1.1703,1.0112,0.946,0.8727,0.7885,0.7884,0.7739,0.0,0.0,0.0,0.8279,0.9485,0.0,1.0495,1.1267,1.1634,1.1746,1.138,1.0953,1.0539,1.0554,1.0812,1.1124,1.1276,1.1877,1.2529,1.2578,1.2725,1.2881,1.2881,1.2881,1.2881,1.2832,1.2627,1.2372,1.2166,1.1242,1.0281,1.0012,0.9113,0.8343,0.8241,0.777,0.7127,0.6191,0.4894,0.3813,0.3497,0.3209,0.0,0.0,0.0,0.0,0.0,0.0,0.2036,0.0,0.0,0.0,0.0,0.0,-0.0583,-0.1335,-0.151,-0.1938,-0.2684,-0.3348,-0.3846,-0.4122,-0.4893,-0.5277,-0.5336,-0.6105,-0.6707,-0.7085,-0.7949,-0.8434,-0.8699,-0.9061,-0.9361,-0.9614,-0.9888,-1.0205,-1.0522,-1.0871,-1.0972,-1.1023,-1.1377,-1.1477,-1.1469,0.0,0.0,0.0,0.0,0.0,0.0,0.0,1.7594,1.7986,1.9123,1.8965,1.918,2.0314,2.0063,1.987,2.0013,2.0235,2.0347,2.0374,2.1011,2.0981,2.0151,1.9458,1.8292,1.6548,1.468,1.2955,1.1404,1.0247,0.9281,0.8515,0.8121,0.7826,0.7618,0.0,0.8753,0.0,0.0,1.0887,1.1278,1.173,1.2091,1.2319,1.1673,1.1172,1.0822,1.0704,1.0769,1.0972,1.1267,1.1719,1.2126,1.2421,1.2578,1.2725,1.2881,1.2881,1.2881,1.2881,1.2676,1.2421,1.2206,1.1283,1.0364,1.0167,0.919,0.8421,0.8421,0.7943,0.7228,0.6297,0.5097,0.4258,0.4232,0.3803,0.0,0.0,0.0,0.0,0.0,0.0,0.0,0.0,0.0,0.0,0.0,0.0,-0.0211,-0.066,-0.1153,-0.1813,-0.2659,-0.3229,-0.367,-0.4015,-0.5011,-0.5449,-0.5336,-0.6431,-0.7031,-0.7241,-0.8103,-0.8586,-0.8745,-0.9204,-0.9465,-0.9614,-1.0095,-1.0462,-1.082,-1.1023,-1.1226,-1.1418,-1.1628,-1.1828,-1.1977,0.0,1.7676,0.0,0.0,1.8039,1.8081,1.7911,1.8539,1.9002,1.8908,1.8271,1.8342,1.9726,1.9553,1.9708,2.0613,2.0836,2.1026,2.1258,2.1709,2.1911,2.1768,2.0611,1.9495,1.8516,1.6636,1.4762,1.2928,1.1673,1.0409,0.9142,0.8696,0.8319,0.8051,0.8973,0.9895,1.0761,1.1362,1.1895,1.2359,1.2145,1.2486,1.2942,1.2006,1.15,1.1276,1.1023,1.0871,1.0922,1.1528,1.1728,1.1877,1.2332,1.2529,1.2627,1.2832,1.2881,1.2881,1.2881,1.2735,1.2471,1.208,1.1216,1.0364,1.0012,0.9145,0.8427,0.848,0.79,0.7076,0.6223,0.5372,0.4795,0.4785,0.4397,0.0,0.0,0.0,0.0,0.0,0.0,0.0,0.1507,0.0,0.0,0.0,0.0,0.0,0.0,-0.0707,-0.1469,-0.2335,-0.311,-0.3596,-0.3753,-0.5109,-0.5732,-0.5555,-0.6912,-0.7563,-0.761,-0.8527,-0.8896,-0.883,-0.9413,-0.9718,-0.9829,-1.0411,-1.082,-1.1124,-1.1276,-1.1528,-1.1828,-1.1927,-1.2175,-1.2431,0.0,0.0,0.0,0.0,0.0,1.8927,1.8805,1.956,2.0084,1.9896,1.9126,1.8966,1.9972,2.0673,2.1024,2.098,2.2177,2.2793,2.2461,2.2504,2.2476,2.2313,2.1414,2.0548,1.9841,1.865,1.6722,0.0,0.0,1.212,0.9384,0.986,0.9825,0.9383,1.0977,1.1587,1.1508,1.2735,1.3361,1.3482,1.2921,1.2883,1.3111,1.2608,1.2236,1.1977,1.1728,1.1469,1.1267,1.1628,1.1877,1.2126,1.2431,1.2686,1.2881,1.2881,1.2881,1.2881,1.2881,1.2881,1.2774,1.2529,1.1592,1.0669,1.0415,0.9347,0.848,0.8699,0.7802,0.6672,0.5736,0.5289,0.4995,0.4828,0.4629,0.4556,0.0,0.0,0.0,0.0,0.0,0.0,0.0,0.1047,0.0,0.0,0.02,0.0,0.0,-0.0082,-0.0573,-0.1481,-0.2866,-0.3553,-0.3512,-0.5046,-0.5955,-0.6327,-0.7343,-0.809,-0.8521,-0.9197,-0.951,-0.951,-0.9836,-1.0154,-1.0462,-1.0871,-1.1074,-1.1175,-1.1877,-1.2224,-1.2283,-1.2627,-1.2832,-1.2832,0.0,0.0,1.8867,1.9934,1.9603,1.9494,2.0318,2.0735,2.0952,2.0913,2.0117,2.0044,2.1394,2.0963,2.0885,2.1647,2.226,2.2664,2.2755,2.279,2.2695,2.2529,2.2271,2.1704,2.0807,1.9942,1.8663,1.6981,1.5027,1.3399,1.2078,1.1319,1.1354,1.2118,1.2692,1.3279,1.3855,1.4853,1.5042,1.4664,1.4749,1.458,1.4124,1.3328,1.2871,1.2589,1.2116,1.1877,1.1828,1.2076,1.2026,1.1968,1.2598,1.2754,1.2725,1.3094,1.3055,1.2881,1.2881,1.2881,1.2832,1.2578,1.1801,1.1032,1.0517,0.9451,0.8527,0.8533,0.7789,0.6884,0.6336,0.5714,0.5377,0.5477,0.5148,0.4999,0.5311,0.0,0.0,0.0,0.0,0.0,0.0,0.0,0.0,0.0,0.0,0.0154,0.0463,0.0603,0.0041,-0.1369,-0.1975,-0.2695,-0.3603,-0.4653,-0.55,-0.615,-0.7331,-0.8243,-0.8876,-0.9354,-0.9821,-1.019,-1.0293,-1.071,-1.1217,-1.1368,-1.1628,-1.1877,-1.2175,-1.251,-1.2842,-1.2871,-1.3065,-1.3296,2.0967,2.0092,1.9727,2.1315,2.0727,2.036,2.1389,2.1716,2.1879,2.1879,2.1314,2.1221,2.2102,2.1399,2.1213,2.2196,2.25,2.2762,2.306,2.3095,2.301,2.2883,2.2935,2.2623,2.1883,2.1232,2.0396,1.9328,1.7014,1.5467,1.4657,1.3348,1.3302,1.4263,1.4651,1.5227,1.5968,1.6719,1.6678,1.61,1.6103,1.572,1.5073,1.4039,1.3426,1.3054,1.255,1.2264,1.2175,1.251,1.2314,1.2076,1.2745,1.289,1.2803,1.3142,1.3104,1.2881,1.2881,1.2881,1.2832,1.2578,1.1968,1.125,1.0736,0.971,0.8685,0.8268,0.7727,0.7142,0.6601,0.6024,0.5686,0.5871,0.5601,0.5453,0.5766,0.5178,0.0,0.0,0.3229,0.2448,0.1911,0.179,0.0,0.0,0.0,0.0677,0.0894,0.118,0.0593,-0.0978,-0.1241,-0.201,-0.3289,-0.4204,-0.5112,-0.6027,-0.7374,-0.8448,-0.919,-0.9666,-1.019,-1.0761,-1.0761,-1.1065,-1.1569,-1.1859,-1.2058,-1.2255,-1.2559,-1.2939,-1.3314,-1.3286,-1.344,-1.361,2.1996,2.1964,2.1881,2.1643,2.1696,2.1731,2.1625,2.2392,2.2923,2.2811,2.2774,2.2464,2.1586,2.2146,2.2558,2.2488,2.321,2.3634,2.3517,2.3494,2.3494,2.3494,2.3289,2.3193,2.3175,2.2782,2.185,2.0381,2.0018,1.8723,1.6555,1.6147,1.5703,1.5356,1.7015,1.7623,1.7397,1.8026,1.8173,1.7841,1.6617,1.5996,1.57,1.4663,1.3909,1.3369,1.3102,1.2589,1.2175,1.2783,1.2793,1.2529,1.2832,1.3152,1.3324,1.3017,1.2881,1.2881,1.2881,1.2881,1.2832,1.2578,1.1968,1.136,1.1116,1.019,0.9036,0.7863,0.7602,0.7289,0.6209,0.5981,0.5938,0.5723,0.5852,0.5976,0.5976,0.5399,0.0,0.4704,0.3439,0.2578,0.2501,0.2182,0.0,0.0,0.0,0.1704,0.1125,0.161,0.123,-0.0178,-0.0929,-0.1644,-0.2317,-0.3846,-0.5088,-0.6013,-0.757,-0.8758,-0.9614,-1.0198,-1.0718,-1.1074,-1.1074,-1.1124,-1.1167,-1.2178,-1.2365,-1.212,-1.317,-1.3573,-1.3658,-1.4035,-1.3941,-1.3658,2.2812,2.2402,2.2286,2.3198,2.296,2.2777,2.3308,2.3639,2.3785,2.3766,2.3652,2.3522,2.3227,2.2895,2.2872,2.3355,2.3581,2.3678,2.3634,2.3544,2.3494,2.3494,2.3448,2.3407,2.3407,2.302,2.2574,2.2089,2.0688,1.9211,1.7806,1.7508,1.7711,1.8368,1.8576,1.8815,1.9061,1.906,1.8707,1.8147,1.7517,1.6909,1.6312,1.5499,1.496,1.4595,1.4097,1.3779,1.3589,1.3684,1.38,1.3905,1.3705,1.3382,1.3152,1.3515,1.3286,1.2881,1.2881,1.2881,1.2832,1.2578,1.2175,1.1719,1.1226,1.0241,0.9092,0.8041,0.7675,0.7433,0.6834,0.6357,0.6019,0.6153,0.6067,0.6019,0.6019,0.5697,0.5282,0.4819,0.4226,0.3549,0.2821,0.2748,0.0,0.0,0.2121,0.2028,0.1787,0.2045,0.1542,0.0128,-0.0092,-0.1015,-0.2763,-0.3688,-0.4881,-0.6416,-0.7486,-0.8659,-0.9888,-1.0308,-1.0871,-1.1528,-1.1528,-1.1678,-1.1977,-1.2569,-1.2559,-1.2255,-1.2861,-1.3344,-1.361,-1.3552,-1.3789,-1.414,2.3733,2.334,2.3242,2.4062,2.3786,2.3621,2.4116,2.419,2.419,2.419,2.4132,2.4054,2.3996,2.3519,2.3329,2.3735,2.3725,2.3678,2.3634,2.3562,2.3494,2.3494,2.3494,2.3494,2.3494,2.3193,2.3003,2.3003,2.1703,2.0569,1.9546,1.9551,1.9695,1.9968,1.9844,1.9839,1.9909,1.9639,1.9199,1.8553,1.8147,1.7585,1.6921,1.6256,1.5776,1.5344,1.4846,1.4525,1.4305,1.4433,1.4501,1.4512,1.4628,1.4165,1.361,1.3742,1.3382,1.2881,1.2881,1.2881,1.2881,1.2676,1.2431,1.2026,1.1276,1.0344,0.9372,0.8511,0.8118,0.7778,0.7367,0.6798,0.6476,0.6708,0.6477,0.6313,0.6435,0.6121,0.5747,0.0,0.489,0.4315,0.3588,0.3385,0.3138,0.2694,0.2598,0.2566,0.2596,0.2369,0.1622,0.03,0.0276,-0.0678,-0.2713,-0.3534,-0.4718,-0.6411,-0.7859,-0.904,-0.9999,-1.0514,-1.1074,-1.1728,-1.1877,-1.2116,-1.2452,-1.2852,-1.2803,-1.2598,-1.3007,-1.3334,-1.361,-1.3647,-1.3941,-1.4244,2.4663,2.4599,2.4515,2.4247,2.419,2.419,2.419,2.419,2.419,2.4209,2.4208,2.4151,2.4036,2.4016,2.3915,2.3743,2.3721,2.3656,2.3539,2.3517,2.3517,2.3494,2.3494,2.3494,2.3494,2.3313,2.3193,2.3193,2.2995,2.2435,2.1609,2.1987,2.1528,2.0453,2.0782,2.0663,2.017,1.9909,1.9551,1.9101,1.8539,1.7988,1.7475,1.6921,1.6299,1.5676,1.5478,1.5028,1.4617,1.5209,1.4983,1.4617,1.5546,1.5311,1.4571,1.3742,1.3238,1.2968,1.2929,1.2929,1.2881,1.2881,1.2676,1.2274,1.1318,1.0592,0.9885,0.9184,0.8777,0.8344,0.7836,0.7443,0.7249,0.737,0.7021,0.6852,0.714,0.6641,0.6227,0.6227,0.5486,0.4881,0.455,0.4065,0.3706,0.3599,0.3367,0.3245,0.3378,0.2599,0.1656,0.054,0.0421,-0.0486,-0.2272,-0.333,-0.4608,-0.6067,-0.8482,-0.9725,-0.9947,-1.0761,-1.1326,-1.1728,-1.2126,-1.2403,-1.2618,-1.3016,-1.3122,-1.3016,-1.342,-1.3573,-1.3658,-1.4222,-1.4233,-1.4067,2.4663,2.4599,2.4515,2.4247,2.419,2.419,2.419,2.419,2.4228,2.434,2.4266,2.4228,2.4284,2.4114,2.3976,2.3935,2.3834,2.3771,2.3728,2.3682,2.3611,2.3517,2.3494,2.3494,2.3494,2.3313,2.3102,2.297,2.2902,2.2789,2.2565,2.2513,2.2238,2.181,2.1483,2.1213,2.0893,2.0292,1.9874,1.9588,1.8846,1.8226,1.7666,1.7118,1.6824,1.6642,1.6441,1.6441,1.6527,1.6459,1.6157,1.5864,1.6107,1.57,1.5073,1.4674,1.4071,1.3552,1.3324,1.3104,1.2881,1.2881,1.2676,1.2274,1.1318,1.0964,1.0626,0.9921,0.97,0.9568,0.9446,0.8761,0.8224,0.8237,0.7589,0.7014,0.6846,0.6683,0.652,0.6367,0.619,0.5747,0.4964,0.4584,0.4187,0.3641,0.3372,0.3155,0.3081,0.2909,0.2421,0.1662,0.1138,-0.0,-0.1986,-0.3056,-0.4513,-0.6317,-0.8547,-0.9458,-0.9295,-1.0549,-1.1326,-1.1728,-1.2126,-1.2403,-1.2618,-1.2852,-1.2842,-1.2716,-1.2949,-1.3152,-1.3314,-1.3705,-1.3905,-1.4067,2.4726,2.4679,2.4631,2.4411,2.4375,2.4375,2.4375,2.4375,2.4411,2.4481,2.4358,2.4321,2.4394,2.4209,2.4094,2.4094,2.3917,2.3774,2.375,2.3703,2.3634,2.3517,2.3494,2.3494,2.3494,2.3383,2.3289,2.3168,2.3168,2.3144,2.3028,2.2849,2.2625,2.2286,2.1919,2.1568,2.1166,2.0646,2.0189,1.9752,1.9072,1.85,1.7988,1.7612,1.7366,1.7214,1.7089,1.7102,1.7199,1.7118,1.6951,1.671,1.6655,1.6355,1.6008,1.5623,1.4801,1.4014,1.3836,1.3467,1.3104,1.2929,1.2676,1.2323,1.1728,1.1326,1.0964,1.0446,1.0128,0.9998,1.0035,0.9502,0.9058,0.9025,0.8207,0.7517,0.7328,0.693,0.6689,0.6653,0.6611,0.6258,0.5583,0.4988,0.439,0.3818,0.3413,0.3147,0.3115,0.3172,0.2707,0.1612,0.1023,0.0,-0.1536,-0.3377,-0.5015,-0.6436,-0.8243,-0.9093,-0.9026,-1.0482,-1.1368,-1.1728,-1.2403,-1.2783,-1.2861,-1.2987,-1.2987,-1.2871,-1.291,-1.2968,-1.3094,-1.3478,-1.3668,-1.3858,2.4821,2.4806,2.476,2.4631,2.4599,2.4599,2.4599,2.4599,2.4615,2.4631,2.4515,2.4447,2.4465,2.4321,2.4228,2.4228,2.4016,2.3813,2.3703,2.3721,2.3656,2.3517,2.3494,2.3494,2.3494,2.3494,2.3494,2.3494,2.3494,2.3407,2.3241,2.3133,2.2849,2.2439,2.2248,2.1849,2.1308,2.0942,2.0429,1.9874,1.9347,1.8822,1.8305,1.8108,1.7828,1.7598,1.7598,1.7475,1.7406,1.7598,1.7516,1.731,1.7173,1.7076,1.6909,1.6436,1.549,1.4582,1.449,1.4025,1.3467,1.3152,1.291,1.2666,1.2363,1.1819,1.1309,1.1065,1.0643,1.0335,1.0393,1.0051,0.9708,0.9567,0.8749,0.8041,0.7783,0.7223,0.6862,0.6901,0.6768,0.6514,0.6068,0.5166,0.4449,0.403,0.3474,0.3158,0.3192,0.3188,0.2521,0.1179,0.0579,-0.0267,-0.1444,-0.4044,-0.5651,-0.6376,-0.7818,-0.8672,-0.9026,-1.0482,-1.1309,-1.1669,-1.2638,-1.3074,-1.3112,-1.3122,-1.317,-1.317,-1.2968,-1.2881,-1.2978,-1.3382,-1.3573,-1.3668,2.4821,2.4806,2.476,2.4631,2.4599,2.4599,2.4599,2.4599,2.4647,2.4742,2.4647,2.4615,2.4729,2.4534,2.4376,2.4376,2.4228,2.4054,2.3813,2.3774,2.3685,2.3517,2.3494,2.3494,2.3494,2.3494,2.3494,2.3494,2.3494,2.3494,2.3453,2.343,2.3295,2.3035,2.2678,2.2313,2.1924,2.1119,2.0646,2.0342,1.9617,1.9026,1.8539,1.8344,1.8108,1.7908,1.7908,1.8082,1.8307,1.8347,1.8135,1.7868,1.7868,1.7449,1.6993,1.6909,1.6411,1.578,1.5266,1.4663,1.4118,1.3884,1.3789,1.3695,1.342,1.3025,1.2628,1.2374,1.1999,1.1801,1.1787,1.1005,1.0113,0.9404,0.8752,0.7962,0.6815,0.7074,0.7132,0.6563,0.6605,0.6398,0.5668,0.4828,0.4276,0.4019,0.3248,0.2862,0.3042,0.2434,0.1827,0.121,0.0608,-0.0831,-0.3164,-0.471,-0.5651,-0.6091,-0.7486,-0.8448,-0.9033,-1.0182,-1.0863,-1.1226,-1.2076,-1.255,-1.2716,-1.29,-1.3045,-1.317,-1.2968,-1.2881,-1.292,-1.318,-1.342,-1.3621,2.4964,2.4922,2.4894,2.4836,2.4821,2.4821,2.4821,2.4821,2.485,2.4894,2.4791,2.4726,2.4791,2.4634,2.4464,2.4412,2.434,2.419,2.3917,2.3837,2.3753,2.3682,2.3634,2.3616,2.366,2.366,2.366,2.366,2.366,2.3638,2.3611,2.3611,2.3453,2.3193,2.301,2.2616,2.2068,2.1521,2.1071,2.0646,1.9909,1.9479,1.9207,1.8846,1.8669,1.8592,1.8592,1.8669,1.8798,1.8798,1.8721,1.8553,1.8383,1.8094,1.7814,1.753,1.685,1.6057,1.5445,1.4994,1.4536,1.4258,1.4071,1.3931,1.3658,1.3467,1.317,1.2716,1.2384,1.2049,1.1619,1.1022,1.0336,0.9492,0.9008,0.8268,0.695,0.6803,0.66,0.5907,0.5658,0.5392,0.4889,0.4406,0.3943,0.3463,0.2861,0.2542,0.2579,0.1999,0.1295,0.0391,-0.0392,-0.1621,-0.3302,-0.4067,-0.4889,-0.5655,-0.6956,-0.7919,-0.8652,-0.9858,-1.0643,-1.1175,-1.2058,-1.2442,-1.2442,-1.29,-1.3045,-1.3055,-1.292,-1.2881,-1.2929,-1.3132,-1.3372,-1.3621,2.5107,2.507,2.5012,2.5012,2.5012,2.5012,2.5012,2.5018,2.5023,2.5023,2.4908,2.485,2.485,2.4726,2.4599,2.4498,2.4446,2.4358,2.4153,2.3979,2.3858,2.3795,2.375,2.3747,2.3795,2.3795,2.3795,2.3795,2.3795,2.3771,2.37,2.37,2.3544,2.3265,2.3217,2.2816,2.2136,2.1832,2.1399,2.0828,2.0139,1.9823,1.9752,1.931,1.9139,1.9101,1.9101,1.9101,1.9101,1.9101,1.9101,1.9064,1.8784,1.8669,1.85,1.8108,1.7256,1.6337,1.58,1.54,1.5085,1.4674,1.4433,1.4305,1.4035,1.38,1.3552,1.3054,1.2463,1.1832,1.1209,1.0651,1.003,0.9247,0.8905,0.8335,0.709,0.6748,0.6274,0.54,0.5021,0.4619,0.4193,0.395,0.3576,0.2941,0.258,0.2177,0.1738,0.1362,0.054,-0.0784,-0.1626,-0.241,-0.3074,-0.3627,-0.4453,-0.5496,-0.6588,-0.7557,-0.8389,-0.954,-1.0336,-1.0922,-1.1841,-1.2197,-1.2224,-1.2745,-1.2949,-1.2881,-1.2881,-1.2881,-1.2929,-1.3094,-1.3276,-1.3515,2.5103,2.5103,2.5091,2.5091,2.5091,2.5091,2.5091,2.5101,2.5089,2.5089,2.5037,2.4996,2.4996,2.4865,2.4791,2.4776,2.4647,2.4582,2.4566,2.4302,2.4058,2.3816,2.3795,2.3795,2.3795,2.3795,2.3795,2.3795,2.3795,2.3771,2.37,2.37,2.3611,2.3471,2.3289,2.2892,2.2341,2.189,2.1399,2.0861,2.0308,1.998,1.9767,1.9472,1.9265,1.9101,1.9101,1.9101,1.9101,1.9101,1.9101,1.9101,1.9064,1.886,1.8592,1.8553,1.7921,1.7105,1.671,1.6349,1.5969,1.5513,1.5424,1.5334,1.5062,1.4444,1.3978,1.392,1.2618,1.1392,1.1074,0.9997,0.8878,0.8031,0.7945,0.7616,0.6575,0.6988,0.6878,0.5473,0.5372,0.5003,0.3831,0.3438,0.3136,0.2854,0.2522,0.1692,0.0318,0.0213,-0.0595,-0.2294,-0.2798,-0.3019,-0.3074,-0.4236,-0.5167,-0.5977,-0.675,-0.7616,-0.8626,-0.9302,-0.9829,-1.0102,-1.0863,-1.1418,-1.1778,-1.2175,-1.2578,-1.2881,-1.2881,-1.2881,-1.2881,-1.2929,-1.3045,-1.3218,2.516,2.5168,2.5157,2.5115,2.5126,2.5145,2.5115,2.5111,2.5094,2.5101,2.5076,2.5063,2.5063,2.5023,2.495,2.4875,2.4832,2.4723,2.4615,2.4497,2.4284,2.3937,2.3996,2.4054,2.4054,2.4054,2.4054,2.4054,2.4054,2.3976,2.3873,2.3792,2.3725,2.3611,2.3453,2.3067,2.2512,2.2258,2.182,2.1277,2.0795,2.0462,2.0189,1.9925,1.969,1.9472,1.9472,1.9472,1.9472,1.9472,1.9472,1.9472,1.9472,1.9384,1.9273,1.9139,1.8383,1.7585,1.7421,1.6808,1.6113,1.5792,1.5412,1.5051,1.4846,1.4362,1.3873,1.3494,1.2511,1.1475,1.0568,0.9644,0.8731,0.8001,0.7647,0.722,0.6284,0.6156,0.5664,0.4381,0.4157,0.385,0.3216,0.2886,0.2684,0.2574,-0.0206,-0.2155,-0.2717,-0.2065,-0.177,-0.2074,-0.2742,-0.3241,-0.3519,-0.4181,-0.4838,-0.5546,-0.6322,-0.7079,-0.7824,-0.862,-0.9145,-0.9458,-1.0395,-1.0863,-1.1065,-1.1669,-1.2026,-1.2175,-1.2421,-1.2529,-1.2578,-1.2832,-1.3055,-1.3218,2.5312,2.5243,2.522,2.5171,2.5201,2.522,2.5171,2.5149,2.5134,2.5125,2.5113,2.5101,2.5101,2.5348,2.5476,2.5378,2.5378,2.5418,2.5521,2.5236,2.4791,2.421,2.4228,2.4266,2.4266,2.4209,2.419,2.419,2.419,2.4113,2.3996,2.3858,2.3771,2.37,2.3499,2.3091,2.2591,2.2432,2.2068,2.1559,2.1166,2.0844,2.0579,2.0308,2.01,1.996,1.996,1.9889,1.9833,1.9833,1.9747,1.969,1.969,1.969,1.9654,1.9376,1.8707,1.7988,1.7747,1.706,1.6275,1.5881,1.5424,1.496,1.4569,1.4176,1.3637,1.2861,1.2061,1.1116,0.9902,0.9131,0.8455,0.7765,0.7289,0.6801,0.6225,0.5733,0.5056,0.3913,0.3604,0.3289,0.2814,0.2586,0.2376,0.2245,-0.0801,-0.3098,-0.4028,-0.2996,-0.23,-0.202,-0.2742,-0.3352,-0.3796,-0.4236,-0.4728,-0.5336,-0.605,-0.6652,-0.7187,-0.7984,-0.8455,-0.8712,-0.9547,-1.0012,-1.0328,-1.0838,-1.125,-1.1569,-1.1868,-1.2126,-1.2323,-1.2627,-1.2861,-1.3132,2.5558,2.534,2.5303,2.5303,2.5303,2.5303,2.5322,2.5262,2.5212,2.5212,2.5168,2.5115,2.5115,2.5886,2.6402,2.6402,2.6402,2.674,2.7532,2.6586,2.5587,2.4652,2.4482,2.4394,2.4394,2.4266,2.419,2.419,2.419,2.4113,2.3996,2.3858,2.3771,2.3678,2.336,2.2968,2.2591,2.2395,2.201,2.1589,2.1309,2.1071,2.0861,2.0613,2.0494,2.0494,2.0494,2.0308,2.01,2.01,1.994,1.9726,1.969,1.969,1.9617,1.9213,1.886,1.8422,1.772,1.7089,1.6552,1.5969,1.5647,1.5277,1.4408,1.3894,1.3314,1.2209,1.1166,1.0108,0.9183,0.8396,0.7717,0.7192,0.6707,0.6381,0.6381,0.605,0.5386,0.4343,0.416,0.3705,0.2792,0.2663,0.2376,0.1842,0.1513,0.0,-0.2927,-0.2249,-0.202,-0.2465,-0.291,-0.3297,-0.3796,-0.4512,-0.5007,-0.5277,-0.605,-0.6549,-0.6933,-0.7563,-0.7871,-0.7925,-0.8178,-0.8797,-0.9577,-0.9577,-1.021,-1.1209,-1.12,-1.166,-1.2274,-1.2274,-1.2529,-1.2881,2.5584,2.5385,2.5542,2.6111,2.6217,2.6428,2.7024,2.711,2.6858,2.62,2.6638,2.6761,2.6148,2.6857,2.7374,2.7374,2.6818,2.6522,2.6675,2.6379,2.6062,2.5744,2.4963,2.4498,2.4412,2.4446,2.4393,2.419,2.4284,2.4284,2.4151,2.3917,2.3774,2.375,2.3365,2.3052,2.2807,2.2439,2.2136,2.1869,2.1691,2.1417,2.1103,2.1039,2.0778,2.0494,2.0494,2.046,2.0392,2.0392,2.0323,2.0254,2.003,1.996,1.9889,1.9435,1.8808,1.8159,1.7828,1.6921,1.6044,1.5836,1.5424,1.4858,1.3988,1.3457,1.2822,1.1601,1.083,1.0056,0.8928,0.8243,0.7717,0.7192,0.6485,0.5996,0.5996,0.5336,0.468,0.4132,0.3874,0.3539,0.3019,0.2775,0.2607,0.2469,0.1176,-0.0392,-0.2079,-0.2357,-0.23,-0.202,-0.2742,-0.3019,-0.291,-0.3904,-0.4453,-0.4508,-0.5003,-0.5332,-0.5655,-0.648,-0.6977,-0.7246,-0.7765,-0.8343,-0.8928,-0.9079,-0.9547,-1.0123,-1.0897,-1.1309,-1.161,-1.2126,-1.2529,-1.2881,2.661,2.6431,2.6562,2.7035,2.6832,2.6774,2.7313,2.739,2.7187,2.6617,2.7297,2.7643,2.7116,2.7808,2.8295,2.8295,2.813,2.7546,2.6447,2.6936,2.6972,2.6265,2.5597,2.5014,2.4568,2.4582,2.4532,2.4358,2.4394,2.4358,2.4266,2.3998,2.3876,2.3876,2.3491,2.3206,2.2977,2.2599,2.2275,2.1982,2.1911,2.1705,2.1448,2.1448,2.123,2.0925,2.0925,2.0827,2.0646,2.0646,2.0512,2.0308,2.0135,1.996,1.9726,1.925,1.8655,1.808,1.7612,1.6752,1.5957,1.5836,1.5379,1.4731,1.38,1.3314,1.2677,1.136,1.0804,1.0123,0.883,0.8355,0.7931,0.7246,0.6485,0.605,0.605,0.5285,0.4629,0.4294,0.3965,0.358,0.313,0.2965,0.2635,0.2191,0.1119,0.0168,-0.0561,-0.1345,-0.1625,-0.1401,-0.2014,-0.2462,-0.2577,-0.3241,-0.3738,-0.3956,-0.4177,-0.4505,-0.4944,-0.5605,-0.6109,-0.65,-0.7031,-0.7509,-0.7937,-0.8249,-0.8725,-0.9302,-1.0226,-1.0846,-1.1259,-1.1868,-1.2431,-1.2881,2.8175,2.8004,2.7991,2.8007,2.7351,2.6851,2.6928,2.6948,2.6909,2.6832,2.7582,2.8082,2.8025,2.8717,2.9217,2.9217,2.9824,2.9212,2.6891,2.8032,2.8122,2.658,2.6474,2.5996,2.5066,2.4845,2.4706,2.4599,2.4555,2.4485,2.4394,2.4134,2.4016,2.3996,2.3649,2.3341,2.3091,2.284,2.2449,2.2027,2.2056,2.194,2.1811,2.1811,2.1738,2.162,2.162,2.134,2.0958,2.0926,2.0597,2.017,2.0135,1.9797,1.9339,1.8784,1.8422,1.8068,1.7201,1.6612,1.6194,1.5869,1.5424,1.4834,1.3847,1.342,1.2822,1.141,1.0922,1.0249,0.8837,0.8626,0.8309,0.7241,0.6707,0.6436,0.6381,0.5673,0.5011,0.4783,0.4294,0.3799,0.3186,0.3077,0.2629,0.1514,0.1343,0.1287,0.129,0.0392,-0.0336,-0.0671,-0.1118,-0.1734,-0.2635,-0.2635,-0.2965,-0.3516,-0.3461,-0.3846,-0.456,-0.4889,-0.5281,-0.5736,-0.6014,-0.6445,-0.6933,-0.7359,-0.7943,-0.8626,-0.9354,-1.0277,-1.12,-1.1569,-1.2224,-1.2881,2.8182,2.7965,2.8116,2.8739,2.8679,2.8794,2.9467,2.9583,2.9333,2.864,2.9313,2.9602,2.8909,2.9602,3.0121,3.0121,2.9648,2.9106,2.8509,2.8708,2.8679,2.8275,2.8188,2.7767,2.6919,2.6208,2.5442,2.4599,2.5316,2.5215,2.4394,2.4229,2.4096,2.3996,2.3649,2.3341,2.3109,2.3042,2.2712,2.2265,2.2415,2.2271,2.1969,2.1969,2.1869,2.1768,2.1768,2.1617,2.1419,2.1277,2.1007,2.0697,2.0478,2.01,1.9588,1.8808,1.8266,1.7747,1.6964,1.6337,1.5869,1.5603,1.5334,1.4926,1.4222,1.36,1.2871,1.1724,1.1049,1.0249,0.8837,0.8778,0.8508,0.7295,0.6912,0.6696,0.6436,0.5673,0.5069,0.5014,0.4408,0.3858,0.3527,0.3081,0.2689,0.2411,0.2128,0.1734,0.123,0.1063,0.0559,-0.0336,-0.1231,-0.1792,-0.2021,-0.2186,-0.2519,-0.2912,-0.2406,-0.2569,-0.3292,-0.4064,-0.4728,-0.5277,-0.5677,-0.6282,-0.6933,-0.7359,-0.7788,-0.8421,-0.9607,-1.0423,-1.0931,-1.151,-1.2224,-1.2929,2.9338,2.9195,2.9255,2.9652,2.9371,2.9256,2.9717,2.9775,2.9621,2.9159,2.9871,3.0237,2.9775,3.014,3.0237,2.9813,2.9737,2.9533,2.9075,2.9366,2.9371,2.8924,2.8793,2.8373,2.7571,2.7452,2.6927,2.5988,2.6422,2.6322,2.5775,2.5153,2.4819,2.4743,2.4121,2.3628,2.3289,2.3289,2.3017,2.2596,2.2712,2.2561,2.2298,2.2298,2.213,2.1899,2.1899,2.1768,2.1589,2.1388,2.1055,2.0679,2.0545,2.0015,1.9332,1.8769,1.8147,1.7557,1.7005,1.6337,1.5792,1.5659,1.5379,1.4971,1.4512,1.3752,1.2967,1.2209,1.1493,1.0608,0.9302,0.9086,0.8712,0.7515,0.7133,0.6918,0.6761,0.6164,0.5727,0.5727,0.5014,0.4301,0.3638,0.319,0.2914,0.2974,0.2805,0.2633,0.2516,0.235,0.1792,0.0728,0.0,-0.0839,-0.1797,-0.1964,-0.1962,-0.185,-0.1794,-0.2015,-0.2402,-0.3236,-0.4064,-0.4944,-0.5281,-0.5891,-0.6608,-0.7252,-0.7628,-0.8002,-0.9399,-1.0261,-1.0872,-1.146,-1.2224,-1.292,3.0618,3.0549,3.049,3.0421,2.9794,2.9313,2.9313,2.9313,2.9313,2.9313,2.9948,3.0398,3.0398,3.0398,3.0102,2.9393,2.9998,3.0102,2.9371,2.9946,2.9986,2.9238,2.9102,2.8727,2.8046,2.8639,2.8461,2.7494,2.7519,2.7455,2.7236,2.6318,2.5857,2.5783,2.5041,2.4419,2.4006,2.3884,2.3578,2.3144,2.303,2.285,2.2659,2.2605,2.2398,2.2084,2.201,2.184,2.1589,2.1388,2.0958,2.0494,2.0494,1.9854,1.9026,1.8707,1.8068,1.7434,1.7047,1.6367,1.5792,1.5748,1.5424,1.5017,1.4754,1.3941,1.316,1.2764,1.199,1.1015,0.9917,0.9496,0.8974,0.7777,0.7461,0.73,0.7192,0.6761,0.649,0.649,0.5614,0.4684,0.3802,0.3355,0.3135,0.3254,0.3312,0.3479,0.3811,0.3646,0.3028,0.2015,0.1341,0.0168,-0.1459,-0.1685,-0.1572,-0.1066,-0.1572,-0.1796,-0.1847,-0.2571,-0.3514,-0.4505,-0.4889,-0.5445,-0.6178,-0.709,-0.7467,-0.7622,-0.8988,-1.0064,-1.0864,-1.1651,-1.2372,-1.2968,3.0618,3.0549,3.049,3.0421,3.0302,3.0217,3.0217,3.0217,3.0217,3.0217,3.0321,3.0398,3.0398,3.0398,3.0375,3.0316,3.0367,3.034,3.0237,3.0273,3.0254,3.0139,3.0041,2.9932,2.9779,2.9859,2.911,2.7494,2.8184,2.8018,2.7026,2.7056,2.6931,2.6635,2.6674,2.6449,2.5969,2.5399,2.4729,2.4083,2.3536,2.3133,2.2842,2.2659,2.2579,2.2453,2.2113,2.184,2.1589,2.1388,2.0958,2.0494,2.0494,1.9854,1.9026,1.8707,1.8068,1.7393,1.6879,1.6293,1.5748,1.5603,1.5334,1.5108,1.5017,1.4269,1.3467,1.317,1.2344,1.1309,1.032,1.0012,0.9488,0.8237,0.8143,0.8049,0.7521,0.7079,0.6858,0.6858,0.5601,0.4563,0.4181,0.3516,0.313,0.3132,0.3416,0.3585,0.3641,0.4089,0.3808,0.2635,0.1006,0.0056,-0.0224,-0.129,-0.1741,-0.1685,-0.1741,-0.1797,-0.1852,-0.2687,-0.3294,-0.379,-0.4563,-0.5289,-0.5905,-0.682,-0.73,-0.7628,-0.8784,-0.9865,-1.0965,-1.2472,-1.3074,-1.3218,3.0618,3.0549,3.049,3.0421,3.0398,3.0398,3.0398,3.0398,3.0398,3.0398,3.0398,3.0402,3.0458,3.0458,3.0458,3.0447,3.0421,3.0398,3.0398,3.0374,3.0362,3.0362,3.0279,3.0226,3.0199,3.0147,2.9726,2.8939,2.9219,2.912,2.8606,2.8173,2.7896,2.7735,2.7286,2.6935,2.665,2.6357,2.5695,2.4825,2.4504,2.3866,2.3151,2.2876,2.2712,2.2525,2.2073,2.1768,2.1589,2.1388,2.0958,2.0494,2.0494,1.9854,1.9064,1.8898,1.8344,1.7679,1.7256,1.6625,1.6032,1.5736,1.5379,1.5108,1.5108,1.4605,1.3999,1.3515,1.2774,1.1891,1.0897,1.0328,0.9703,0.8758,0.8349,0.8043,0.7777,0.7551,0.7337,0.6961,0.615,0.5332,0.4563,0.4177,0.3904,0.3633,0.3747,0.3913,0.4079,0.4141,0.4036,0.3702,0.2298,0.1008,0.0,-0.0505,-0.1122,-0.1797,-0.1797,-0.1797,-0.1797,-0.2465,-0.3074,-0.3624,-0.4233,-0.5011,-0.585,-0.644,-0.6869,-0.7252,-0.8415,-0.9762,-1.1141,-1.2295,-1.2852,-1.3094]}]]